[[{"header":{"parameterUnit":"m.s-1","parameterCategory":1,"la1":30.6,"la2":29.2853,"lo1":-89.7004,"lo2":-87.6739,"dx":0.0162,"dy":0.0183,"nx":112,"ny":82,"refTime":"2022-12-03T18:00:00:Z","depth":0,"parameterNumber":2,"parameterNumberName":"U-component_of_WINDS"},"data":[0.0,0.0,0.0,0.0,0.0,0.0,0.0,0.0,0.0,0.0,0.0,0.0,0.0,0.0,0.0,0.0,0.0,0.0,0.0,0.0,0.0,0.0,0.0,0.0,0.0,0.0,0.0,0.0,0.0,0.0,0.0,0.0,0.0,0.0,0.0,0.0,0.0,0.0,0.0,0.0,0.0,0.0,0.0,0.0,0.0,0.0,0.0,0.0,0.0,0.0,0.0,0.0,0.0,0.0,0.0,0.0,0.0,0.0,0.0,0.0,0.0,0.0,0.0,0.0,0.0,0.0,0.0,0.0,0.0,0.0,0.0,0.0,0.0,0.0,0.0,0.0,0.0,0.0,0.0,0.0,0.0,0.0,0.0,0.0,0.0,0.0,0.0,0.0,0.0,0.0,-2.0129,-2.1203,-2.2536,-2.2958,-2.1931,-2.1277,-1.9811,-1.7166,0.0,0.0,0.0,0.0,0.0,0.0,0.0,0.0,0.0,0.0,0.0,0.0,0.0,0.0,0.0,0.0,0.0,0.0,0.0,0.0,0.0,0.0,0.0,0.0,0.0,0.0,0.0,0.0,0.0,0.0,0.0,0.0,0.0,0.0,0.0,0.0,0.0,0.0,0.0,0.0,0.0,0.0,0.0,0.0,0.0,0.0,0.0,0.0,0.0,0.0,0.0,0.0,0.0,0.0,0.0,0.0,0.0,0.0,0.0,0.0,0.0,0.0,0.0,0.0,0.0,0.0,0.0,0.0,0.0,0.0,0.0,0.0,0.0,0.0,0.0,0.0,0.0,0.0,0.0,0.0,0.0,0.0,0.0,0.0,0.0,0.0,0.0,0.0,0.0,0.0,0.0,0.0,0.0,0.0,0.0,0.0,0.0,0.0,0.0,0.0,0.0,0.0,0.0,0.0,-1.9941,-2.25,-2.2998,-2.2737,-2.1735,-2.1549,-2.0194,-1.7191,0.0,0.0,0.0,0.0,0.0,0.0,0.0,0.0,0.0,0.0,0.0,0.0,0.0,0.0,0.0,0.0,0.0,0.0,0.0,0.0,0.0,0.0,0.0,0.0,0.0,0.0,0.0,0.0,0.0,0.0,0.0,0.0,0.0,0.0,0.0,0.0,0.0,0.0,0.0,0.0,0.0,0.0,0.0,0.0,0.0,0.0,0.0,0.0,0.0,0.0,0.0,0.0,0.0,0.0,0.0,0.0,0.0,0.0,0.0,0.0,0.0,0.0,0.0,0.0,0.0,0.0,0.0,0.0,0.0,0.0,0.0,0.0,0.0,0.0,0.0,0.0,0.0,0.0,0.0,0.0,0.0,0.0,0.0,0.0,0.0,0.0,0.0,0.0,0.0,0.0,0.0,0.0,0.0,0.0,0.0,0.0,0.0,0.0,0.0,0.0,0.0,0.0,0.0,-1.8958,-2.0492,-2.265,-2.2876,-2.2703,-2.2246,-2.182,-2.0475,-1.7811,-1.6878,0.0,0.0,0.0,0.0,0.0,0.0,0.0,0.0,0.0,0.0,0.0,0.0,0.0,0.0,0.0,0.0,0.0,0.0,0.0,0.0,0.0,0.0,0.0,0.0,0.0,0.0,0.0,0.0,0.0,0.0,0.0,0.0,0.0,0.0,0.0,0.0,0.0,0.0,0.0,0.0,0.0,0.0,0.0,0.0,0.0,0.0,0.0,0.0,0.0,0.0,0.0,0.0,0.0,0.0,0.0,0.0,0.0,0.0,0.0,0.0,0.0,0.0,0.0,0.0,0.0,0.0,0.0,0.0,0.0,0.0,0.0,0.0,0.0,0.0,0.0,0.0,0.0,0.0,0.0,0.0,0.0,0.0,0.0,0.0,0.0,0.0,0.0,0.0,0.0,0.0,0.0,0.0,0.0,0.0,0.0,0.0,0.0,0.0,0.0,0.0,0.0,0.0,-2.0153,-2.1376,-2.2561,-2.2699,-2.2699,-2.2699,-2.2181,-2.0791,-1.8323,-1.749,0.0,0.0,0.0,0.0,0.0,0.0,0.0,0.0,0.0,0.0,0.0,0.0,0.0,0.0,0.0,0.0,0.0,0.0,0.0,0.0,0.0,0.0,0.0,0.0,0.0,0.0,0.0,0.0,0.0,0.0,0.0,0.0,0.0,0.0,0.0,0.0,0.0,0.0,0.0,0.0,0.0,0.0,0.0,0.0,0.0,0.0,0.0,0.0,0.0,0.0,0.0,0.0,0.0,0.0,0.0,0.0,0.0,0.0,0.0,0.0,0.0,0.0,0.0,0.0,0.0,0.0,0.0,0.0,0.0,0.0,0.0,0.0,0.0,0.0,0.0,0.0,0.0,0.0,0.0,0.0,0.0,0.0,0.0,0.0,0.0,0.0,0.0,0.0,0.0,0.0,0.0,0.0,0.0,0.0,0.0,0.0,0.0,0.0,0.0,0.0,0.0,0.0,-2.0768,-2.2578,-2.2681,-2.2699,-2.2699,-2.2699,-2.2647,-2.1287,-1.8204,-1.7943,0.0,0.0,0.0,0.0,0.0,0.0,0.0,0.0,0.0,0.0,0.0,0.0,0.0,0.0,0.0,0.0,0.0,0.0,0.0,0.0,0.0,0.0,0.0,0.0,0.0,0.0,0.0,0.0,0.0,0.0,0.0,0.0,0.0,0.0,0.0,0.0,0.0,0.0,0.0,0.0,0.0,0.0,0.0,0.0,0.0,0.0,0.0,0.0,0.0,0.0,0.0,0.0,0.0,0.0,0.0,0.0,0.0,0.0,0.0,0.0,0.0,0.0,0.0,0.0,0.0,0.0,0.0,0.0,0.0,0.0,0.0,0.0,0.0,0.0,0.0,0.0,0.0,0.0,0.0,0.0,0.0,0.0,0.0,0.0,0.0,0.0,0.0,0.0,0.0,0.0,0.0,0.0,0.0,0.0,0.0,0.0,0.0,0.0,0.0,0.0,0.0,0.0,-1.9963,-2.1597,-2.2582,-2.2699,-2.2699,-2.2699,-2.2699,-2.1381,-1.8308,0.0,0.0,0.0,0.0,0.0,0.0,0.0,0.0,0.0,0.0,0.0,0.0,0.0,0.0,0.0,0.0,0.0,0.0,0.0,0.0,0.0,0.0,0.0,0.0,0.0,0.0,0.0,0.0,0.0,0.0,0.0,0.0,0.0,0.0,0.0,0.0,0.0,0.0,0.0,0.0,0.0,0.0,0.0,0.0,0.0,0.0,0.0,0.0,0.0,0.0,0.0,0.0,0.0,0.0,0.0,0.0,0.0,0.0,0.0,0.0,0.0,0.0,0.0,0.0,0.0,0.0,0.0,0.0,0.0,0.0,0.0,0.0,0.0,0.0,0.0,0.0,0.0,0.0,0.0,0.0,0.0,0.0,0.0,0.0,0.0,0.0,0.0,0.0,0.0,0.0,0.0,0.0,0.0,0.0,0.0,0.0,0.0,0.0,0.0,0.0,0.0,0.0,-1.7986,-1.9842,-2.1455,-2.2556,-2.2685,-2.2699,-2.2699,-2.2699,-2.129,-1.7975,0.0,0.0,0.0,0.0,0.0,0.0,0.0,0.0,0.0,0.0,0.0,0.0,0.0,0.0,0.0,0.0,0.0,0.0,0.0,0.0,0.0,0.0,0.0,0.0,0.0,0.0,0.0,0.0,0.0,0.0,0.0,0.0,0.0,0.0,0.0,0.0,0.0,0.0,0.0,0.0,0.0,0.0,0.0,0.0,0.0,0.0,0.0,0.0,0.0,0.0,0.0,0.0,0.0,0.0,0.0,0.0,0.0,0.0,0.0,0.0,0.0,0.0,0.0,0.0,0.0,0.0,0.0,0.0,0.0,0.0,0.0,0.0,0.0,0.0,0.0,0.0,0.0,0.0,0.0,0.0,0.0,0.0,0.0,0.0,0.0,0.0,0.0,0.0,0.0,0.0,0.0,0.0,0.0,0.0,0.0,0.0,0.0,0.0,0.0,0.0,0.0,0.0,-1.8008,-2.0727,-2.2592,-2.2592,-2.2659,-2.2699,-2.2699,-2.2699,-2.1012,0.0,0.0,0.0,0.0,0.0,0.0,0.0,0.0,0.0,0.0,0.0,0.0,0.0,0.0,0.0,0.0,0.0,0.0,0.0,0.0,0.0,0.0,0.0,0.0,0.0,0.0,0.0,0.0,0.0,0.0,0.0,0.0,0.0,0.0,0.0,0.0,0.0,0.0,0.0,0.0,0.0,0.0,0.0,0.0,0.0,0.0,0.0,0.0,0.0,0.0,0.0,0.0,0.0,0.0,0.0,0.0,0.0,0.0,0.0,0.0,0.0,0.0,0.0,0.0,0.0,0.0,0.0,0.0,0.0,0.0,0.0,0.0,0.0,0.0,0.0,0.0,0.0,0.0,0.0,0.0,0.0,0.0,0.0,0.0,0.0,0.0,0.0,0.0,0.0,0.0,0.0,0.0,0.0,0.0,0.0,0.0,0.0,0.0,0.0,0.0,0.0,0.0,0.0,-1.798,-2.064,-2.2501,-2.2579,-2.2619,-2.2646,-2.2699,-2.2699,-2.1054,-1.7192,0.0,0.0,0.0,0.0,0.0,0.0,0.0,0.0,0.0,0.0,0.0,0.0,0.0,0.0,0.0,0.0,0.0,0.0,0.0,0.0,0.0,0.0,0.0,0.0,0.0,0.0,0.0,0.0,0.0,0.0,0.0,0.0,0.0,0.0,0.0,0.0,0.0,0.0,0.0,0.0,0.0,0.0,0.0,0.0,0.0,0.0,0.0,0.0,0.0,0.0,0.0,0.0,0.0,0.0,0.0,0.0,0.0,0.0,0.0,0.0,0.0,0.0,0.0,0.0,0.0,0.0,0.0,0.0,0.0,0.0,0.0,0.0,0.0,0.0,0.0,0.0,0.0,0.0,0.0,0.0,0.0,0.0,0.0,0.0,0.0,0.0,0.0,0.0,0.0,0.0,0.0,0.0,0.0,0.0,0.0,0.0,0.0,0.0,0.0,0.0,0.0,0.0,-1.7881,-2.0577,-2.2432,-2.2515,-2.2538,-2.2596,-2.2646,-2.2592,-2.1062,-1.7579,0.0,0.0,0.0,0.0,0.0,0.0,0.0,0.0,0.0,0.0,0.0,0.0,0.0,0.0,0.0,0.0,0.0,0.0,0.0,0.0,0.0,0.0,0.0,0.0,0.0,0.0,0.0,0.0,0.0,0.0,0.0,0.0,0.0,0.0,0.0,0.0,0.0,0.0,0.0,0.0,0.0,0.0,0.0,0.0,0.0,0.0,0.0,0.0,0.0,0.0,0.0,0.0,0.0,0.0,0.0,0.0,0.0,0.0,0.0,0.0,0.0,0.0,0.0,0.0,0.0,0.0,0.0,0.0,0.0,0.0,0.0,0.0,0.0,0.0,0.0,0.0,0.0,0.0,0.0,0.0,0.0,0.0,0.0,0.0,0.0,0.0,0.0,0.0,0.0,0.0,0.0,0.0,0.0,0.0,0.0,0.0,0.0,0.0,0.0,0.0,0.0,0.0,-1.7708,-2.0526,-2.2391,-2.2391,-2.2446,-2.2515,-2.2538,-2.2371,-2.1017,-1.8025,0.0,0.0,0.0,0.0,0.0,0.0,0.0,0.0,0.0,0.0,0.0,0.0,0.0,0.0,0.0,0.0,0.0,0.0,0.0,0.0,0.0,0.0,0.0,0.0,0.0,0.0,0.0,0.0,0.0,0.0,0.0,0.0,0.0,0.0,0.0,0.0,0.0,0.0,0.0,0.0,0.0,0.0,0.0,0.0,0.0,0.0,0.0,0.0,0.0,0.0,0.0,0.0,0.0,0.0,0.0,0.0,0.0,0.0,0.0,0.0,-2.1176,-2.0396,0.0,0.0,0.0,0.0,0.0,0.0,0.0,0.0,0.0,0.0,0.0,0.0,0.0,0.0,0.0,0.0,0.0,0.0,0.0,0.0,0.0,0.0,0.0,0.0,0.0,0.0,0.0,0.0,0.0,0.0,0.0,0.0,0.0,0.0,0.0,0.0,0.0,0.0,0.0,0.0,-1.7697,-2.0492,-2.2338,-2.2391,-2.2405,-2.2346,-2.2141,-2.2084,-2.0729,-1.7619,-1.7096,0.0,0.0,0.0,0.0,0.0,0.0,0.0,0.0,0.0,0.0,0.0,0.0,0.0,0.0,0.0,0.0,0.0,0.0,0.0,0.0,0.0,0.0,0.0,0.0,0.0,0.0,0.0,0.0,0.0,0.0,0.0,0.0,0.0,0.0,0.0,0.0,0.0,0.0,0.0,0.0,0.0,0.0,0.0,0.0,0.0,0.0,0.0,0.0,0.0,0.0,0.0,0.0,0.0,0.0,0.0,0.0,0.0,0.0,0.0,-2.1098,-2.083,0.0,0.0,0.0,0.0,0.0,0.0,0.0,0.0,0.0,0.0,0.0,0.0,0.0,0.0,0.0,0.0,0.0,0.0,0.0,0.0,0.0,0.0,0.0,0.0,0.0,0.0,0.0,0.0,0.0,0.0,0.0,0.0,0.0,0.0,0.0,0.0,0.0,0.0,0.0,0.0,-1.7698,-2.045,-2.2237,-2.212,-2.212,-2.2003,-2.1735,-2.1598,-2.0706,-1.8765,-1.7901,0.0,0.0,0.0,0.0,0.0,0.0,0.0,0.0,0.0,0.0,0.0,0.0,0.0,0.0,0.0,0.0,0.0,0.0,0.0,0.0,0.0,0.0,0.0,0.0,0.0,0.0,0.0,0.0,0.0,0.0,0.0,0.0,0.0,0.0,0.0,0.0,0.0,0.0,0.0,0.0,0.0,0.0,0.0,0.0,0.0,0.0,0.0,0.0,0.0,0.0,0.0,0.0,0.0,-2.1563,-2.1483,-2.143,-2.1177,-2.1435,-2.2043,-2.0883,-2.1215,-2.2403,-2.0264,0.0,0.0,0.0,0.0,0.0,0.0,0.0,0.0,0.0,0.0,0.0,0.0,0.0,0.0,0.0,0.0,0.0,0.0,0.0,0.0,0.0,0.0,-1.9185,-1.9009,-2.0009,-2.0605,-1.9276,0.0,0.0,0.0,0.0,0.0,0.0,0.0,0.0,0.0,0.0,0.0,-1.8053,-2.055,-2.2123,-2.1827,-2.1812,-2.1661,-2.1324,-2.115,-2.075,-2.0046,-1.8707,-1.6956,0.0,0.0,0.0,0.0,0.0,0.0,0.0,0.0,0.0,0.0,0.0,0.0,0.0,0.0,0.0,0.0,0.0,0.0,0.0,0.0,0.0,0.0,0.0,0.0,0.0,0.0,0.0,0.0,0.0,0.0,0.0,0.0,-2.2362,-2.2495,0.0,0.0,0.0,0.0,0.0,0.0,0.0,0.0,0.0,0.0,0.0,0.0,0.0,-2.1432,-2.1649,-2.2246,-2.2417,-2.22,-2.2868,-2.3057,-2.2834,-2.2568,-2.2633,-2.2909,-2.2511,0.0,-2.1942,-2.0921,0.0,0.0,0.0,0.0,0.0,0.0,0.0,0.0,0.0,0.0,0.0,0.0,0.0,0.0,0.0,0.0,0.0,0.0,0.0,0.0,0.0,0.0,-2.2065,-2.1765,-2.1885,-2.1952,-2.1465,-1.8944,-1.6691,-1.6363,-1.5627,-1.4566,0.0,0.0,0.0,0.0,0.0,0.0,-1.9456,-2.0966,-2.1857,-2.1796,-2.1812,-2.1555,-2.0926,-2.1103,-2.0782,-1.9656,-1.9373,-1.8078,-1.5474,-1.4755,0.0,0.0,0.0,0.0,0.0,0.0,0.0,0.0,0.0,0.0,0.0,0.0,0.0,0.0,0.0,0.0,0.0,0.0,0.0,0.0,0.0,0.0,0.0,0.0,0.0,0.0,0.0,0.0,0.0,-2.2646,-2.2962,-2.24,-2.259,-2.2044,0.0,0.0,0.0,0.0,0.0,0.0,0.0,0.0,0.0,-2.2156,-2.2174,-2.2373,-2.2781,-2.3143,-2.3255,-2.3131,-2.3228,-2.32,-2.3096,-2.2672,-2.2538,-2.2642,-2.2525,-2.2337,-2.2061,-2.1103,-2.0309,-1.9573,0.0,0.0,0.0,0.0,-1.811,-1.7971,-1.9621,-1.9899,-1.9539,-1.9671,0.0,0.0,0.0,0.0,0.0,0.0,0.0,-1.8115,-1.9738,-2.0679,-2.1356,-2.2084,-2.2132,-2.1991,-2.1827,-2.0674,-1.9307,-1.8155,-1.701,-1.5615,-1.3735,-1.4438,0.0,0.0,0.0,-1.8899,-1.9879,-2.1224,-2.2005,-2.1827,-2.1631,-2.1323,-2.0844,-2.0762,-2.0504,-1.9972,-1.9957,-1.926,-1.7693,-1.6273,-1.4631,0.0,0.0,0.0,0.0,0.0,0.0,0.0,0.0,0.0,0.0,0.0,0.0,0.0,0.0,0.0,0.0,0.0,0.0,0.0,0.0,0.0,0.0,0.0,0.0,0.0,0.0,0.0,0.0,-2.3243,-2.3528,-2.2576,-2.2856,-2.2325,0.0,0.0,0.0,0.0,0.0,0.0,-2.2075,-2.2093,-2.2365,-2.2952,-2.297,-2.3234,-2.3777,-2.3806,-2.3774,-2.371,-2.3307,-2.3054,-2.2985,-2.2511,-2.2296,-2.2296,-2.2296,-2.2296,-2.224,-2.145,-2.0992,-2.0709,-1.9513,-1.8914,-1.8806,-1.9476,-1.9361,-1.9173,-2.1112,-2.1399,-2.0914,-2.1065,-2.0771,-2.0153,-1.8859,0.0,0.0,0.0,0.0,-1.8286,-2.0123,-2.0524,-2.0726,-2.1781,-2.1915,-2.1751,-2.1586,-2.1529,-2.1142,-1.9891,-1.8812,-1.7484,-1.5436,-1.6389,0.0,-1.6065,-1.817,-2.006,-2.0525,-2.1518,-2.2034,-2.1706,-2.1524,-2.1214,-2.0712,-2.0611,-2.0477,-2.0304,-2.0304,-1.9996,-1.9317,-1.7867,-1.6504,-1.5322,0.0,0.0,0.0,0.0,0.0,0.0,0.0,0.0,0.0,0.0,0.0,0.0,0.0,0.0,0.0,0.0,0.0,0.0,0.0,0.0,0.0,0.0,0.0,0.0,0.0,0.0,0.0,0.0,0.0,-2.3249,-2.3,0.0,0.0,0.0,0.0,-2.2528,-2.2618,-2.2944,-2.3661,-2.3668,-2.3687,-2.3741,-2.3741,-2.3759,-2.3806,-2.3806,-2.37,-2.3515,-2.3224,-2.296,-2.2712,-2.2432,-2.2296,-2.2296,-2.2296,-2.2296,-2.231,-2.224,-2.181,-2.1162,-2.1094,-2.0594,-2.0006,-2.0814,-2.1081,-2.1153,-2.1969,-2.224,-2.2206,-2.222,-2.1015,-1.9528,-1.9449,-1.8215,0.0,0.0,-1.9406,-1.982,-2.1703,-2.1962,-2.1654,-2.1415,-2.1586,-2.1631,-2.099,-2.0805,-2.0938,-2.1545,-2.1859,-2.1519,-1.9934,0.0,-1.9445,-1.9694,-1.962,-2.017,-2.195,-2.1969,-2.1706,-2.137,-2.1584,-2.137,-2.0424,-2.0893,-2.0974,-2.0339,-2.0304,-1.9996,-1.9317,-1.9194,-1.7945,-1.5338,-1.4452,0.0,0.0,0.0,0.0,0.0,0.0,0.0,0.0,0.0,0.0,0.0,0.0,0.0,0.0,0.0,0.0,0.0,0.0,0.0,0.0,0.0,0.0,0.0,0.0,0.0,0.0,0.0,0.0,-2.3121,-2.3391,0.0,-2.1717,-2.2432,-2.2908,-2.2717,-2.3143,-2.3524,-2.3788,-2.3806,-2.3806,-2.3806,-2.3806,-2.3806,-2.3806,-2.3806,-2.3689,-2.3504,-2.3242,-2.296,-2.2685,-2.2419,-2.2296,-2.2296,-2.2296,-2.2296,-2.2296,-2.2296,-2.2158,-2.1904,-2.1904,-2.1735,-2.1502,-2.1803,-2.1904,-2.1955,-2.2212,-2.2296,-2.2296,-2.2296,-2.1855,-2.1259,-2.1045,-2.0539,-2.0099,-2.0548,-2.0664,-2.0868,-2.1753,-2.1886,-2.1827,-2.1915,-2.1706,-2.1462,-2.1448,-2.1083,-2.097,-2.1673,-2.1343,-2.0685,-1.9824,-2.0398,-2.0685,-1.9804,-2.0595,-2.153,-2.2215,-2.2194,-2.1991,-2.1661,-2.1721,-2.1479,-2.0695,-2.0828,-2.0778,-2.0321,-2.0304,-2.0196,-1.995,-1.9518,-1.8624,-1.7191,-1.6455,-1.4246,0.0,0.0,0.0,0.0,0.0,0.0,0.0,0.0,0.0,0.0,0.0,0.0,0.0,0.0,0.0,0.0,0.0,0.0,0.0,0.0,0.0,0.0,0.0,0.0,0.0,-2.3695,-2.386,-2.2932,-2.3516,-2.3439,-2.2048,-2.3053,-2.3596,-2.3107,-2.3524,-2.3806,-2.3806,-2.3806,-2.3806,-2.3806,-2.3806,-2.3806,-2.3806,-2.3732,-2.3631,-2.3504,-2.3133,-2.2876,-2.2685,-2.2419,-2.2296,-2.2296,-2.2296,-2.2296,-2.2296,-2.2296,-2.2296,-2.2296,-2.2296,-2.2296,-2.2296,-2.2296,-2.2296,-2.2296,-2.2296,-2.2296,-2.2296,-2.2296,-2.2209,-2.2092,-2.1871,-2.1721,-2.1616,-2.1493,-2.1385,-2.1401,-2.1857,-2.1812,-2.1721,-2.2049,-2.1706,-2.137,-2.1569,-2.1276,-2.1135,-2.1691,-2.1223,-2.0672,-2.0475,-2.1192,-2.1381,-2.0125,-2.1189,-2.2037,-2.183,-2.1984,-2.2005,-2.1661,-2.1631,-2.1354,-2.0695,-2.0303,-2.0143,-2.0291,-1.9856,-1.9809,-2.0289,-1.9193,-1.8253,-1.7546,-1.6553,-1.4364,-1.093,0.0,0.0,0.0,0.0,0.0,0.0,0.0,0.0,0.0,0.0,0.0,0.0,0.0,0.0,0.0,0.0,0.0,0.0,0.0,0.0,0.0,0.0,0.0,-2.2735,-2.3343,-2.3524,-2.2825,-2.3379,-2.3524,-2.2807,-2.3379,-2.3806,-2.3806,-2.3806,-2.3806,-2.3806,-2.3806,-2.3806,-2.3806,-2.3806,-2.3806,-2.3806,-2.3598,-2.3504,-2.3481,-2.2952,-2.2699,-2.2672,-2.2419,-2.2296,-2.2296,-2.2296,-2.2296,-2.2296,-2.2296,-2.2296,-2.2296,-2.2296,-2.2296,-2.2296,-2.2296,-2.2296,-2.2296,-2.2296,-2.2296,-2.2296,-2.2296,-2.2077,-2.1796,-2.1812,-2.1586,-2.1401,-2.1706,-2.157,-2.1462,-2.2123,-2.1812,-2.1401,-2.1736,-2.157,-2.1323,-2.1339,-2.1307,-2.1401,-2.1736,-2.1781,-2.1886,-2.224,-2.202,-2.1578,-2.0907,-2.1394,0.0,-2.0922,-2.141,-2.166,-2.1274,-2.1227,-2.0959,-2.0294,-1.9296,-1.917,-2.0229,-1.9022,-1.8884,-2.0225,-1.8361,-1.6978,-1.6288,-1.4669,-1.349,-1.2807,0.0,0.0,0.0,0.0,0.0,0.0,0.0,0.0,0.0,0.0,0.0,0.0,0.0,0.0,0.0,0.0,0.0,0.0,0.0,0.0,0.0,-2.2998,-2.3506,-2.3506,-2.3668,-2.3723,-2.3524,-2.3668,-2.3723,-2.3524,-2.3668,-2.3806,-2.3806,-2.3806,-2.3806,-2.3806,-2.3806,-2.3806,-2.3806,-2.3806,-2.3806,-2.3806,-2.3598,-2.3394,-2.3218,-2.2863,-2.2592,-2.2422,-2.2338,-2.2296,-2.2296,-2.2296,-2.2296,-2.2296,-2.2296,-2.2296,-2.2296,-2.2296,-2.2296,-2.2296,-2.2296,-2.2296,-2.2296,-2.2296,-2.2296,-2.2296,-2.2296,-2.224,-2.2123,-2.1871,-2.1901,-2.193,-2.1539,-2.1555,-2.1706,-2.1886,-2.1812,-2.1751,-2.2077,-2.1901,-2.1721,-2.1976,-2.1646,-2.1401,-2.1736,-2.16,-2.1539,-2.1886,-2.1871,-2.1655,-2.1231,-2.1738,-2.201,-2.1574,-2.168,-2.1279,-1.9922,-1.978,-1.9502,-1.8824,-1.8732,-1.917,-2.0229,-1.9933,-1.9902,-2.0289,-1.9748,-1.9017,-1.8088,-1.5694,-1.4025,0.0,0.0,0.0,0.0,0.0,0.0,0.0,0.0,0.0,0.0,0.0,0.0,0.0,0.0,0.0,0.0,0.0,0.0,0.0,0.0,0.0,0.0,-2.3324,-2.3806,-2.3806,-2.3806,-2.3806,-2.3806,-2.3806,-2.3806,-2.3806,-2.3806,-2.3806,-2.3806,-2.3806,-2.3806,-2.3806,-2.3806,-2.3806,-2.3806,-2.3806,-2.3806,-2.3806,-2.3491,-2.3253,-2.3109,-2.2708,-2.2446,-2.2296,-2.2296,-2.2296,-2.2296,-2.2296,-2.2296,-2.2296,-2.2296,-2.2296,-2.2296,0.0,0.0,0.0,0.0,-2.2296,-2.2296,-2.2296,-2.2296,-2.2296,-2.2296,-2.2296,-2.2268,-2.2063,-2.2152,-2.2209,-2.1827,-2.1751,-2.1842,-2.1976,-2.1901,-2.1886,-2.2209,-2.2034,-2.1857,-2.2049,-2.1676,-2.1401,-2.1736,-2.1524,0.0,-2.1736,-2.1812,-2.1592,-2.0964,-2.1689,-2.2037,-2.1266,-2.142,-2.1196,-2.0184,-1.9821,-1.95,-1.9117,-1.8718,0.0,0.0,0.0,-1.9235,-1.8845,-1.8699,0.0,0.0,0.0,-1.4746,-1.4548,-1.2887,0.0,0.0,-1.0609,-0.981,0.0,0.0,0.0,0.0,0.0,0.0,0.0,0.0,0.0,0.0,0.0,0.0,0.0,0.0,0.0,0.0,-2.3358,-2.3806,-2.3806,-2.3806,-2.3806,-2.3806,-2.3806,-2.3806,-2.3806,-2.3806,-2.3806,-2.3806,-2.3806,-2.3806,-2.3806,-2.3806,0.0,0.0,0.0,-2.3806,-2.3806,-2.3347,-2.3157,-2.3128,-2.2628,-2.2363,-2.2352,-2.2352,-2.2338,-2.2296,-2.2296,-2.2296,-2.2296,-2.2296,-2.2296,-2.2296,-2.2296,-2.2296,-2.2296,-2.2296,-2.2296,-2.2296,-2.2296,0.0,0.0,-2.2296,-2.2296,-2.2296,-2.2296,-2.2296,-2.2296,-2.2296,-2.2094,-2.1915,-2.2209,-2.2077,-2.193,-2.224,-2.2063,-2.1842,-2.1812,-2.157,-2.1432,-2.1691,-2.1493,-2.1401,-2.1691,-2.1766,-2.1462,-2.0497,-2.1429,-2.1802,-2.057,-2.0904,-2.1196,-2.1081,-2.046,0.0,-2.0056,-1.8915,-1.8807,-2.021,-1.9082,-1.8004,-1.7164,-1.682,-1.635,-1.572,-1.5486,-1.5707,-1.6371,-1.5809,-1.5267,-1.4712,-1.0558,-0.9387,0.0,0.0,0.0,0.0,0.0,0.0,0.0,0.0,0.0,0.0,0.0,0.0,0.0,0.0,0.0,-2.3238,-2.3599,-2.3806,-2.3806,-2.3806,-2.3806,-2.3806,-2.3806,-2.3806,-2.3806,-2.3806,-2.3806,-2.3806,-2.3806,-2.3806,-2.3806,-2.3806,-2.3806,-2.3806,-2.3806,-2.3806,-2.3806,-2.3553,-2.3417,-2.3417,-2.3096,0.0,-2.2619,-2.2619,-2.2501,-2.2296,-2.2296,-2.2296,-2.2296,-2.2296,-2.2296,-2.2296,-2.2296,-2.2296,-2.2296,-2.2296,-2.2296,-2.2296,-2.2296,-2.2296,-2.2296,-2.2296,-2.2296,-2.2296,-2.2296,-2.2296,0.0,-2.2296,-2.2254,-2.2209,-2.2282,-2.2254,-2.2209,-2.2282,-2.2254,-2.2137,-2.1857,-2.1751,-2.1646,-2.1432,-2.1354,-2.1323,-2.1385,-2.1631,-2.1536,-2.0815,-2.1382,-2.1702,-2.1159,-2.0975,-2.0575,-1.9702,-1.8997,-1.8606,-1.8606,-1.8361,-1.8807,-2.021,-1.9786,-1.9418,-1.923,-1.8948,-1.8618,-1.8201,-1.7852,-1.7356,-1.6788,-1.6016,-1.5363,-1.4743,-1.286,-1.1954,0.0,0.0,0.0,0.0,0.0,0.0,0.0,0.0,0.0,0.0,0.0,-2.2221,0.0,0.0,-2.3079,-2.357,-2.3732,-2.3806,-2.3806,-2.3806,-2.3806,-2.3806,-2.4157,-2.4393,-2.4393,-2.4755,-2.5009,-2.5009,-2.5009,-2.4827,-2.4411,-2.4393,-2.4212,-2.3813,-2.3806,-2.3806,-2.3806,-2.3598,-2.3504,-2.3504,-2.3242,-2.3035,-2.2902,-2.2747,-2.2636,-2.2501,-2.2366,-2.2296,-2.2296,-2.2296,-2.2296,-2.2296,-2.2296,-2.2296,-2.2296,-2.2296,-2.2296,-2.2296,-2.2296,-2.2296,-2.2296,-2.2296,-2.2296,-2.2296,-2.2296,-2.2296,-2.2296,-2.2296,-2.2296,-2.2296,-2.2296,-2.2296,-2.2296,-2.2296,-2.2296,-2.2166,-2.1661,-2.1539,-2.1447,-2.1103,-2.1055,-2.1055,-2.1055,-2.1323,-2.137,-2.0876,-2.1371,-2.1616,-2.1103,-2.1055,-2.0783,-2.0077,-1.9562,-1.9254,-1.9254,-1.9107,-1.9365,-2.0241,-1.9696,-1.9424,-1.9584,-1.9176,-1.876,-1.8364,-1.8147,-1.7598,-1.6693,-1.6316,-1.5823,-1.5261,-1.3926,-1.3057,0.0,0.0,0.0,0.0,0.0,0.0,0.0,0.0,-2.3809,-2.3585,-2.3498,-2.356,-2.3892,-2.3825,-2.3775,-2.3927,-2.3865,-2.3806,-2.3806,-2.3806,-2.386,-2.4013,-2.461,-2.5063,-2.5226,-2.5823,-2.6204,-2.6204,-2.6204,-2.5914,-2.5262,-2.5226,-2.4864,-2.4049,-2.4031,-2.3958,-2.3795,-2.3642,-2.3553,-2.3553,-2.3342,-2.3212,-2.3182,-2.2902,-2.2751,-2.2685,-2.2422,-2.2296,-2.2296,-2.2296,-2.2296,-2.2296,-2.2296,-2.2296,-2.2296,-2.2296,-2.2296,-2.2296,-2.2296,-2.2296,-2.2296,-2.2296,-2.2296,-2.2296,-2.2296,-2.2296,-2.2296,-2.2296,-2.2296,-2.2296,-2.2296,-2.2296,-2.2296,-2.2296,-2.2296,-2.2123,-2.1447,-2.1308,-2.1198,-2.0876,-2.0794,-2.0794,-2.0794,-2.1007,-2.1087,-2.0761,-2.1214,-2.1417,-2.0876,-2.099,-2.1023,-2.0827,-2.0494,-2.027,-2.0202,-1.9962,-1.9892,-2.0113,-1.9347,-1.9026,-1.9302,-1.8774,-1.8288,-1.7808,-1.772,-1.7297,-1.65,-1.6414,-1.6175,-1.5758,-1.444,-1.3532,-2.6149,-2.6005,-2.5878,-2.5063,-2.5479,-2.5942,0.0,0.0,-2.5519,-2.5481,-2.5301,-2.5231,-2.549,-2.495,-2.4468,-2.4521,-2.4118,-2.3806,-2.3806,-2.3806,-2.4067,-2.4773,-2.4954,-2.528,-2.6005,-2.6149,-2.6204,-2.6204,-2.6204,-2.6168,-2.6065,-2.6077,-2.5697,-2.4882,-2.4864,-2.452,-2.3806,-2.3774,-2.3764,-2.3764,-2.3742,-2.3624,-2.3458,-2.3182,-2.2922,-2.2685,-2.2422,-2.2296,-2.2296,-2.2296,-2.2296,-2.2296,-2.2296,-2.2296,-2.2296,-2.2296,-2.2296,-2.2296,-2.2296,-2.2296,-2.2296,-2.2296,-2.2296,-2.2296,-2.2296,-2.2296,-2.2296,-2.2296,-2.2296,-2.2296,-2.2296,-2.2296,-2.2296,-2.2296,-2.2296,-2.2123,-2.1447,-2.1308,-2.1198,-2.0876,-2.0794,-2.0794,-2.0794,-2.0827,-2.0745,-2.0407,-2.0678,-2.0877,-2.0811,-2.0578,-2.051,-2.0778,-2.0494,-2.0185,-1.9892,-1.9823,-1.9714,-1.9505,-1.912,-1.8917,-1.8936,-1.8659,-1.8288,-1.7808,-1.7455,-1.6997,-1.65,-1.6066,-1.5859,-1.577,-1.4733,-1.4013,-2.7423,-2.7242,0.0,0.0,-2.6989,-2.7386,-2.6673,-2.6822,-2.6966,-2.6393,-2.6182,-2.6037,-2.5829,-2.5522,-2.5356,0.0,-2.5339,-2.5208,-2.5208,-2.5208,-2.5497,-2.6312,-2.6403,-2.6518,-2.6862,-2.7314,-2.7604,-2.7604,-2.7604,-2.7387,-2.6916,-2.6898,-2.6331,-2.5045,-2.5009,-2.461,-2.3806,-2.3806,-2.3806,-2.3806,-2.3806,-2.3689,-2.3492,-2.323,-2.2871,-2.246,-2.2352,-2.2296,-2.2296,-2.2296,-2.2296,-2.2296,-2.2296,-2.2296,-2.2296,-2.2296,-2.2296,-2.2296,-2.2296,-2.2296,-2.2296,-2.2296,-2.2296,-2.2296,-2.2296,-2.2296,-2.2296,-2.2296,-2.2296,-2.2296,-2.2296,-2.2296,-2.2296,-2.2296,-2.2296,-2.2123,-2.1447,-2.1308,-2.115,-2.0611,-2.0662,-2.0728,-2.0544,-2.0662,-2.0678,-2.0356,-2.0578,-2.0728,-2.0527,-2.0561,-2.0561,-2.051,-2.0204,-1.9945,-1.9806,-1.9482,-1.931,-1.9395,-1.8946,-1.8741,-1.8879,-1.8639,-1.8169,-1.7455,-1.7303,-1.682,-1.6035,-1.5881,-1.577,-1.5726,-1.4743,-1.4219,-2.7676,-2.7676,0.0,-2.7405,-2.8002,-2.8373,-2.749,-2.771,-2.7887,-2.7161,-2.7014,-2.692,-2.6639,-2.6385,-2.629,-2.6494,-2.6337,-2.6204,-2.6204,-2.6204,-2.6512,-2.7296,-2.7405,-2.7495,-2.7713,-2.8256,-2.86,-2.86,-2.86,-2.8346,-2.7767,-2.7731,-2.7097,-2.5715,-2.566,-2.528,-2.4465,-2.4465,-2.4339,-2.4121,-2.4121,-2.3905,-2.3492,-2.3145,-2.2837,-2.2584,-2.2381,-2.2296,-2.2296,-2.2296,-2.2296,-2.2296,-2.2296,-2.2296,-2.2296,-2.2296,-2.2296,-2.2296,-2.2296,-2.2296,-2.2296,-2.2296,-2.2296,-2.2296,-2.2296,-2.2296,-2.2296,-2.2296,-2.2296,-2.2296,-2.2296,-2.2296,-2.2296,-2.2296,-2.224,-2.2005,-2.1416,-2.1229,-2.0991,-2.0409,-2.0509,-2.0578,-2.0339,-2.0494,-2.0578,-2.0339,-2.0509,-2.0561,-2.0321,-2.051,-2.0561,-2.0321,-2.0013,-1.977,-1.9696,-1.9203,-1.8969,-1.9134,-1.8736,-1.8562,-1.8702,-1.8562,-1.8055,-1.7115,-1.7157,-1.6714,-1.5738,-1.577,-1.577,-1.5693,-1.4743,-1.4305,-2.6475,-2.6808,-2.7405,-2.7405,-2.8002,-2.8505,-2.8152,-2.8084,-2.8084,-2.8066,-2.8053,-2.8148,-2.8464,-2.7881,-2.7351,-2.7369,-2.6699,-2.6204,-2.6204,-2.6204,-2.6512,-2.7296,-2.7405,-2.7713,0.0,-2.86,-2.86,-2.86,-2.86,-2.86,-2.8563,-2.8563,-2.8183,-2.7351,-2.7333,-2.6934,-2.6149,-2.6131,-2.5751,-2.4954,-2.4954,-2.4446,-2.3481,-2.2952,-2.2946,-2.3325,-2.2615,-2.2296,-2.2296,-2.2296,-2.2296,-2.2296,-2.2296,-2.2296,-2.2296,-2.2296,-2.2296,-2.2296,-2.2296,-2.2296,-2.2296,-2.2296,-2.2296,-2.2296,-2.2296,-2.2296,-2.2296,-2.2296,-2.2296,-2.2296,-2.2296,-2.2296,-2.2296,-2.2296,-2.2049,-2.1721,-2.137,-2.1039,-2.0712,-2.0373,-2.0304,-2.0304,-2.0304,-2.0304,-2.0304,-2.0304,-2.0304,-2.0304,-2.0304,-2.0304,-2.0304,-2.0304,-2.0013,-1.9696,-1.9431,-1.9101,-1.8798,-1.8537,-1.8517,-1.842,-1.8242,-1.84,-1.7975,-1.6837,-1.706,-1.6735,-1.5792,-1.5792,-1.577,-1.5693,-1.4743,-1.4281,-2.6916,-2.7188,-2.7532,-2.8057,-2.8401,-2.8574,-2.8466,-2.8435,-2.8435,-2.8435,-2.8435,-2.8479,-2.8574,-2.8382,-2.8201,-2.8201,-2.7966,-2.7785,-2.7785,-2.7785,-2.7894,-2.8165,-2.8201,0.0,0.0,0.0,-2.86,-2.86,-2.86,-2.86,-2.86,-2.86,-2.8238,-2.7423,-2.7405,-2.7007,-2.6222,-2.6204,-2.6059,-2.5794,-2.4933,-2.4237,-2.3667,-2.2815,-2.2785,-2.3359,-2.2632,-2.2296,-2.2296,-2.2296,-2.2296,-2.2296,-2.2296,-2.2296,-2.2296,-2.2296,-2.2296,-2.2296,-2.2296,-2.2296,-2.2296,-2.2296,-2.2296,-2.2296,-2.2296,-2.2296,-2.2296,-2.2296,-2.2296,-2.2296,-2.2296,-2.2296,-2.2237,-2.202,-2.1886,-2.1646,-2.1087,-2.0877,-2.0695,-2.0373,-2.0304,-2.0304,-2.0304,-2.0304,-2.0304,-2.0304,-2.0304,-2.022,-2.0013,-1.9962,-1.9962,-1.9962,-1.9515,-1.9254,-1.9395,-1.8927,-1.86,-1.8517,-1.8498,-1.842,-1.8222,-1.8262,-1.7814,-1.6752,-1.6829,-1.6402,-1.547,-1.557,-1.5547,-1.5425,-1.4513,-1.4095,-2.717,-2.7405,-2.7586,-2.8401,-2.86,-2.86,-2.86,-2.86,-2.86,-2.86,-2.86,-2.86,-2.86,-2.86,-2.86,-2.86,-2.86,-2.86,-2.86,-2.86,-2.86,-2.86,-2.86,-2.86,0.0,0.0,0.0,-2.86,-2.86,-2.86,-2.86,-2.86,-2.8364,-2.7857,-2.7821,-2.7586,-2.7061,-2.7061,-2.6916,-2.6609,-2.5194,-2.4599,-2.4733,-2.3599,-2.3494,-2.4154,-2.341,-2.2936,-2.2699,-2.2699,-2.2533,-2.2296,-2.2296,-2.2296,-2.2296,-2.2296,-2.2296,-2.2296,-2.2296,-2.2296,-2.2296,-2.2296,-2.2296,-2.2296,-2.2296,-2.2296,-2.2296,-2.2296,-2.2296,-2.2296,-2.2296,-2.2209,-2.2063,-2.1857,-2.1616,-2.1324,-2.0893,-2.0712,-2.0561,-2.0339,-2.0304,-2.0304,-2.0304,-2.0304,-2.0304,-2.0304,-2.0304,-2.0185,-1.9841,-1.9806,-1.9752,-1.9675,-1.9199,-1.8988,-1.9195,-1.8774,-1.8498,-1.8498,-1.8439,-1.8301,-1.8103,-1.8083,-1.7611,-1.6582,-1.6646,-1.6272,-1.5368,-1.5446,-1.5435,-1.5289,-1.4408,-1.3978,-2.7188,-2.7423,-2.764,-2.8419,-2.86,-2.86,-2.86,-2.86,-2.86,-2.8545,-2.8545,-2.8527,0.0,0.0,-2.8545,-2.8545,-2.8582,-2.86,-2.86,-2.86,-2.86,0.0,0.0,0.0,0.0,0.0,0.0,-2.86,-2.86,-2.86,-2.86,-2.86,-2.86,-2.86,-2.86,-2.86,-2.86,-2.86,-2.8189,-2.7363,-2.5756,-2.5513,-2.6436,-2.512,-2.4898,-2.5558,-2.4829,-2.4101,-2.3444,-2.341,-2.2987,-2.2347,-2.2313,-2.2296,-2.2296,-2.2296,-2.2296,-2.2296,-2.2296,-2.2296,-2.2296,-2.2296,-2.2296,-2.2296,-2.2296,-2.2296,-2.2296,-2.2296,-2.2282,-2.2268,-2.2268,-2.2034,-2.1766,-2.1751,-2.1261,-2.0794,-2.0778,-2.051,-2.0304,-2.0304,-2.0304,-2.0304,-2.0304,-2.0304,-2.0287,-2.0287,-2.027,-2.015,-1.9821,-1.977,-1.9678,-1.9413,-1.9082,-1.8893,-1.8898,-1.8659,-1.8498,-1.8498,-1.8321,-1.8103,-1.7902,-1.7882,-1.7372,-1.6312,-1.6539,-1.6281,-1.5468,-1.5468,-1.5401,-1.5267,-1.4374,-1.3918,-2.7333,-2.7839,-2.8346,-2.8545,-2.86,-2.86,-2.86,-2.86,-2.8437,-2.7821,-2.7713,-2.7514,0.0,0.0,0.0,-2.7713,-2.8219,0.0,-2.86,-2.86,0.0,-2.86,0.0,-2.8326,-2.8574,-2.8365,0.0,-2.8587,-2.86,-2.86,-2.86,-2.86,-2.86,-2.86,-2.86,-2.86,-2.86,-2.86,-2.8095,-2.709,-2.6474,-2.6179,-2.616,-2.5029,-2.4898,-2.5558,-2.4829,-2.4389,-2.4186,-2.3628,-2.3291,-2.3054,-2.2499,-2.2296,-2.2296,-2.2296,-2.2296,-2.2296,-2.2296,-2.2296,-2.2296,-2.2296,-2.2296,-2.2296,-2.2296,-2.2296,-2.2296,-2.2296,-2.2123,-2.193,-2.193,-2.1676,-2.137,-2.1119,-2.0909,-2.0728,-2.0492,-2.0356,-2.0304,-2.0304,-2.0304,-2.0304,-2.0304,-2.0304,-2.022,-1.9962,-1.9927,-1.9821,-1.9545,-1.949,-1.938,-1.9064,-1.876,-1.8678,-1.8879,-1.8659,-1.8498,-1.8498,-1.8321,-1.8103,-1.7902,-1.7713,-1.7165,-1.6241,-1.6297,-1.5957,-1.5198,-1.5198,-1.5176,-1.5131,-1.4152,-1.3681,-2.7821,-2.8342,-2.8785,-2.8785,-2.8851,-2.8789,-2.8354,-2.8245,-2.7985,-2.7049,-2.6862,-2.6747,-2.6276,-2.6862,-2.7405,0.0,0.0,0.0,-2.86,-2.86,-2.86,0.0,-2.8435,0.0,-2.8383,-2.8215,-2.8134,-2.8197,-2.844,-2.86,-2.86,-2.86,-2.86,-2.86,-2.8466,-2.8378,-2.8378,-2.8264,-2.7964,-2.7486,-2.7063,-2.6832,-2.6767,-2.5864,-2.5773,-2.6276,-2.5723,-2.5286,-2.4949,-2.4543,-2.3985,-2.3359,-2.2936,-2.2584,-2.2296,-2.2296,-2.2296,-2.2296,-2.2296,-2.2296,-2.2296,-2.2296,-2.2296,-2.2296,-2.2296,-2.2296,-2.2268,-2.2123,-2.1961,-2.1783,-2.1631,-2.1323,-2.1039,-2.0844,-2.0678,-2.0527,-2.0339,-2.0304,-2.0304,-2.0304,-2.0304,-2.0304,-2.0304,-2.0304,-2.0185,-1.9841,-1.9806,-1.966,-1.9232,-1.9176,-1.9064,-1.876,-1.8581,-1.8562,-1.8716,-1.8581,-1.8498,-1.8498,-1.8242,-1.8023,-1.7902,-1.755,-1.701,-1.6222,-1.62,-1.5836,-1.5108,-1.5108,-1.5108,-1.5085,-1.4059,-1.3597,-2.8419,-2.881,-2.9003,-2.9003,-2.9152,-2.9037,-2.8037,-2.7798,-2.7475,-2.6268,-2.6041,-2.6023,-2.5914,-2.6627,-2.7242,-2.7242,0.0,-2.86,-2.86,-2.8562,-2.8562,-2.8587,-2.8536,-2.8396,-2.8188,-2.8088,-2.7968,-2.7771,-2.8197,-2.851,-2.8531,-2.8531,-2.8531,-2.8531,-2.8242,-2.8129,-2.8156,-2.7872,-2.7826,-2.8102,-2.7487,-2.7353,-2.7609,-2.6988,-2.6858,-2.7117,-2.6825,-2.6336,-2.5744,-2.5541,-2.4695,-2.3528,-2.3325,-2.2868,-2.2296,-2.2296,-2.2296,-2.2296,-2.2296,-2.2296,-2.2296,-2.2254,-2.2268,-2.2296,-2.2254,-2.2223,-2.2166,-2.1886,-2.1753,-2.1601,-2.1308,-2.099,-2.0728,-2.0728,-2.051,-2.0304,-2.0304,-2.0304,-2.0304,-2.0304,-2.0304,-2.0304,-2.0304,-2.0304,-2.0168,-1.9803,-1.977,-1.9573,-1.8917,-1.8893,-1.8798,-1.8537,-1.8498,-1.8498,-1.8498,-1.8498,-1.8498,-1.8498,-1.8069,-1.7828,-1.7828,-1.7344,-1.6778,-1.6122,-1.6122,-1.578,-1.5108,-1.504,-1.5017,-1.4994,-1.3954,-1.3491,-2.8563,-2.881,-2.9003,-2.9003,-2.9152,-2.9037,-2.8037,-2.7798,0.0,0.0,-2.5208,-2.5009,-2.4339,-2.5425,-2.6409,-2.6409,-2.764,-2.86,-2.86,-2.8352,-2.8299,0.0,-2.8156,-2.8031,-2.8466,-2.8055,0.0,-2.802,-2.7911,-2.7957,-2.817,-2.8201,-2.8201,-2.8201,-2.8129,-2.8228,-2.8505,-2.7957,-2.7826,-2.8102,-2.7487,-2.7228,-2.7276,-2.6891,-2.6725,-2.6775,-2.6725,-2.6623,-2.6404,-2.5202,-2.4541,-2.4186,-2.297,-2.2398,-2.2296,-2.2296,-2.2296,-2.2296,-2.2296,-2.2296,-2.2237,-2.1991,-2.2063,-2.2254,-2.1976,-2.1886,-2.1871,-2.1827,-2.1402,-2.0958,-2.0893,-2.0645,-2.039,-2.039,-2.0339,-2.0304,-2.0304,-2.0304,-2.0304,-2.0304,-2.0304,-2.0304,-2.0304,-2.0304,-2.0113,-1.9545,-1.966,-1.95,-1.8678,-1.876,-1.8798,-1.8537,-1.8498,-1.8498,-1.8498,-1.8498,-1.8498,-1.8498,-1.7808,-1.7407,-1.7407,-1.6744,-1.6154,-1.5702,-1.5702,-1.5501,-1.5108,-1.472,-1.4512,-1.4489,-1.3423,-1.2943,-2.8767,-2.8973,-2.9185,-2.9283,-2.9385,-2.908,-2.7672,0.0,0.0,0.0,-2.4375,-2.4248,-2.3868,-2.4773,-2.5588,-2.5588,-2.6916,-2.7984,-2.7984,-2.8196,-2.8422,-2.8587,-2.8349,-2.8224,-2.8326,-2.8079,-2.784,-2.7651,-2.7669,-2.7757,-2.7883,-2.7897,-2.7811,-2.7651,-2.7619,-2.771,-2.7872,-2.758,-2.7504,-2.7636,-2.7336,-2.7197,-2.7181,-2.6858,-2.6791,-2.6939,-2.6368,-2.6133,-2.6048,-2.4948,-2.4271,-2.3864,-2.3139,-2.2649,-2.2296,-2.2296,-2.2296,-2.2296,-2.2296,-2.218,-2.1974,-2.1646,-2.1783,-2.1991,-2.1646,-2.1539,-2.1493,-2.134,-2.1039,-2.0761,-2.0578,-2.0424,-2.0304,-2.0304,-2.0304,-2.0304,-2.0304,-2.0304,-2.0304,-2.0304,-2.0304,-2.0304,-2.0304,-2.0304,-2.0096,-1.9487,-1.9508,-1.9328,-1.8581,-1.86,-1.8639,-1.8517,-1.8498,-1.8498,-1.8498,-1.8498,-1.8459,-1.8361,-1.7686,-1.725,-1.7146,-1.6531,-1.6013,-1.5613,-1.5591,-1.5434,-1.5108,-1.4628,-1.4396,-1.4373,-1.3304,-1.2788,-2.8934,-2.9152,-2.9355,-2.9551,-2.957,-2.9083,-2.7308,-2.6752,0.0,-2.4184,-2.3806,-2.3806,-2.3806,-2.432,-2.4864,0.0,-2.6331,-2.726,-2.7604,-2.8133,-2.8492,0.0,-2.844,0.0,-2.8034,-2.8006,0.0,-2.7244,-2.7384,-2.7519,-2.7597,-2.7713,-2.7639,-2.7322,-2.7307,-2.7321,-2.7398,-2.718,-2.7133,-2.7197,-2.7133,-2.7085,-2.7085,-2.6825,-2.6841,-2.7051,-2.6027,-2.5592,-2.5525,-2.4643,-2.3932,-2.3376,-2.3224,-2.2818,-2.2296,-2.2296,-2.2296,-2.2296,-2.2296,-2.2137,-2.1842,-2.1432,-2.1478,-2.1631,-2.1292,-2.1198,-2.1135,-2.086,-2.0745,-2.0628,-2.0373,-2.0304,-2.0304,-2.0304,-2.0304,-2.0304,-2.0304,-2.0304,-2.0304,-2.0304,-2.0304,-2.0304,-2.0304,-2.0304,-2.0096,-1.9487,-1.9505,-1.9339,-1.8581,-1.86,-1.8639,-1.8517,-1.8498,-1.8498,-1.8498,-1.8498,-1.8439,-1.8282,-1.7592,-1.7126,-1.6959,-1.6315,-1.5824,-1.5501,-1.5479,-1.53,-1.4949,-1.4466,-1.4163,-1.4035,-1.3088,-1.2579,-2.8991,-2.9152,-2.9355,-2.9551,-2.9465,-2.8907,-2.727,0.0,-2.6067,-2.4184,-2.3806,-2.3806,-2.3806,-2.385,-2.4393,-2.586,-2.621,-2.6808,-2.8274,-2.8285,-2.8143,-2.8143,0.0,0.0,-2.7728,-2.7745,-2.758,-2.7228,-2.6956,-2.6923,-2.7228,-2.7765,-2.794,-2.7654,-2.7639,-2.7768,-2.8002,-2.7161,-2.6907,-2.7197,-2.6891,-2.6741,-2.6741,-2.6708,-2.6708,-2.6708,-2.5929,-2.5592,-2.5491,-2.4086,-2.346,-2.3325,-2.2651,-2.2347,-2.2296,-2.2296,-2.2296,-2.2296,-2.2296,-2.2282,-2.2152,-2.1508,-2.1323,-2.1292,-2.0942,-2.0844,-2.0844,-2.0811,-2.0578,-2.0339,-2.0304,-2.0304,-2.0304,-2.0304,-2.0304,-2.0304,-2.0304,-2.0304,-2.0304,-2.0304,-2.0304,-2.0304,-2.0304,-2.0304,-2.0096,-1.9487,-1.9866,-1.9797,-1.8653,-1.8984,-1.9097,-1.8556,-1.8498,-1.8498,-1.8498,-1.8498,-1.8498,-1.8478,-1.7456,-1.6828,-1.6807,-1.5788,-1.5176,-1.5153,-1.5153,-1.4926,-1.4466,-1.3928,-1.3409,-1.2933,-1.2403,-1.1893,-2.9334,-2.9425,-2.9532,-2.9725,-2.9542,-2.8876,-2.727,0.0,-2.5874,-2.4142,-2.3451,-2.327,-2.3723,-2.3035,-2.2926,-2.4502,-2.4755,-2.5153,-2.6276,-2.7157,-2.7689,-2.7689,-2.8017,0.0,0.0,0.0,-2.8045,-2.7552,-2.718,-2.6972,-2.6907,-2.7319,-2.7502,-2.7398,-2.74,-2.7352,-2.727,-2.689,-2.6775,-2.6907,-2.6758,-2.6691,-2.6691,-2.6691,-2.6691,-2.6657,-2.593,-2.5355,-2.4863,-2.3831,-2.3139,-2.2716,-2.2398,-2.2296,-2.2296,-2.2296,-2.2296,-2.2296,-2.2296,-2.2166,-2.1961,-2.1691,-2.134,-2.0942,-2.0595,-2.0494,-2.0494,-2.0494,-2.0407,-2.0304,-2.0304,-2.0304,-2.0304,-2.0304,-2.0304,-2.0304,-2.0304,-2.0304,-2.0304,-2.0304,-2.0304,-2.0304,-2.0304,-2.0304,-2.0096,-1.9487,-1.9596,-1.9453,-1.8615,-1.8711,-1.8755,-1.8537,-1.84,-1.8321,-1.8321,-1.8222,-1.7975,-1.7625,-1.6972,-1.6463,-1.6083,-1.5445,-1.5108,-1.5108,-1.5108,-1.488,-1.4396,-1.3858,-1.3314,-1.2788,-1.1983,-1.1502,-2.957,-2.9608,-2.9653,-2.9855,-2.9561,-2.8823,0.0,0.0,-2.5751,-2.4121,-2.3216,-2.2862,-2.3379,-2.2401,-2.2002,-2.3542,-2.3806,-2.4248,-2.5534,-2.6693,-2.7381,-2.7289,0.0,-2.8319,-2.8007,-2.8192,-2.8156,-2.7745,-2.74,-2.7101,-2.6858,-2.7069,-2.7197,-2.7197,-2.7197,-2.7085,-2.6858,-2.6741,-2.6691,-2.6691,-2.6691,-2.6691,-2.6691,-2.6691,-2.6691,-2.664,-2.5693,-2.4983,-2.4423,-2.346,-2.2784,-2.2296,-2.2296,-2.2296,-2.2296,-2.2296,-2.2296,-2.2282,-2.218,-2.2005,-2.1783,-2.157,-2.1182,-2.0728,-2.0407,-2.0304,-2.0304,-2.0304,-2.0304,-2.0304,-2.0304,-2.0304,-2.0304,-2.0304,-2.0304,-2.0304,-2.0304,-2.0304,-2.0304,-2.0304,-2.0304,-2.027,-2.0168,-2.015,-1.9957,-1.9343,-1.9339,-1.9172,-1.8576,-1.8562,-1.8562,-1.8439,-1.8242,-1.8143,-1.8183,-1.8023,-1.7672,-1.7118,-1.671,-1.625,-1.5746,-1.5334,-1.5108,-1.5108,-1.5108,-1.4789,-1.4163,-1.3776,-1.3242,-1.2555,-1.1685,-1.1116,-2.9608,-2.9608,-2.9653,-2.9855,-2.9455,-2.8618,0.0,-2.6549,-2.5751,-2.4121,-2.3216,-2.2699,-2.2717,-2.2047,-2.2002,-2.3542,-2.3806,-2.4646,-2.7043,-2.7387,-2.7301,0.0,-2.767,-2.769,-2.6627,-2.7245,-2.7716,-2.7701,-2.74,-2.7197,-2.7197,-2.7197,-2.7197,-2.7197,-2.7197,-2.7197,-2.7197,-2.6874,-2.6691,-2.6691,-2.6691,-2.6691,-2.6691,-2.6691,-2.6691,-2.6607,-2.5151,-2.4508,-2.4389,-2.2919,-2.2296,-2.2296,-2.2296,-2.2296,-2.2296,-2.2296,-2.2296,-2.2254,-2.1915,-2.1812,-2.1691,-2.1023,-2.0811,-2.0728,-2.0407,-2.0304,-2.0304,-2.0304,-2.0304,-2.0304,-2.0304,-2.0304,-2.0304,-2.0304,-2.0304,-2.0304,-2.0304,-2.0304,-2.0304,-2.0304,-2.0304,-2.0185,-1.9874,-1.9806,-1.9591,-1.8993,-1.9176,-1.9172,-1.8576,-1.8721,-1.8721,-1.8248,-1.8023,-1.7983,-1.8183,-1.8023,-1.7733,-1.7312,-1.6795,-1.6349,-1.601,-1.5412,-1.5108,-1.5108,-1.5108,-1.4617,-1.361,-1.3597,-1.3094,-1.2101,-1.1544,-1.0702,-2.9133,-2.8982,-2.8858,-2.8381,-2.7874,-2.7246,-2.6303,-2.5723,-2.4936,-2.3379,-2.2427,-2.1884,-2.1884,-2.0771,-2.0717,-2.3371,-2.3379,-2.3886,-2.6258,0.0,0.0,-2.7277,-2.7949,-2.8306,0.0,-2.795,-2.7897,-2.7698,-2.7612,-2.7336,-2.6891,-2.7085,-2.7197,-2.7197,-2.7197,-2.7085,-2.6858,-2.6758,-2.6437,-2.5947,-2.6454,-2.6437,-2.5981,-2.6471,-2.6691,-2.664,-2.5676,-2.4966,-2.4423,-2.3444,-2.275,-2.2296,-2.2296,-2.2296,-2.2296,-2.2296,-2.2296,-2.2254,-2.1915,-2.1812,-2.1738,-2.1293,-2.099,-2.0778,-2.0662,-2.0492,-2.0304,-2.0304,-2.0304,-2.0304,-2.0304,-2.0304,-2.0304,-2.0304,-2.0304,-2.0304,-2.0304,-2.0304,-2.0304,-2.0304,-2.0304,-2.0185,-1.9874,-1.9806,-1.9591,-1.8993,-1.886,-1.8721,-1.8341,-1.8248,-1.8149,-1.8003,-1.7767,-1.7652,-1.7713,-1.7331,-1.6934,-1.6573,-1.6141,-1.5724,-1.5401,-1.5198,-1.5108,-1.5108,-1.4789,-1.428,-1.3597,-1.3242,-1.253,-1.1553,-1.0973,-1.0303,-2.8389,-2.8476,-2.8514,-2.7695,-2.7157,-2.6609,-2.5875,-2.5109,-2.4194,-2.2952,-2.1812,-2.1061,-2.1061,-2.0228,-2.0282,-2.2564,-2.2799,-2.3513,-2.5866,-2.6627,0.0,-2.7785,-2.7933,0.0,-2.8373,-2.812,-2.7826,-2.7519,-2.7522,-2.7321,-2.6907,-2.6716,-2.664,-2.6782,-2.6656,-2.6361,-2.5879,-2.5879,-2.5642,-2.5186,-2.5659,-2.5778,-2.5625,-2.6082,-2.6437,-2.664,-2.5625,-2.4915,0.0,-2.3393,-2.2702,-2.2296,-2.2296,-2.2296,-2.2296,-2.2296,-2.2209,-2.2063,-2.1721,-2.1525,-2.1371,-2.1023,-2.0778,-2.0611,-2.0611,-2.0475,-2.0304,-2.0304,-2.0304,-2.0304,-2.0304,-2.0304,-2.0304,-2.0304,-2.0304,-2.0304,-2.0304,-2.0202,-2.015,-2.0287,-2.0202,-2.0013,-1.9696,-1.9657,-1.9439,-1.8836,-1.8586,-1.8392,-1.8208,-1.8023,-1.7862,-1.7767,-1.7591,-1.7475,-1.7393,-1.6964,-1.6552,-1.6222,-1.5824,-1.5457,-1.5108,-1.5108,-1.5108,-1.5108,-1.4628,-1.414,-1.3597,-1.288,-1.199,-1.0947,-1.0576,-0.9987,0.0,-2.782,-2.8324,-2.7524,-2.6969,-2.6423,-2.5689,-2.4595,0.0,-2.2681,-2.1351,-2.03,-2.03,-2.0246,-2.0536,-2.1514,-2.2246,-2.3531,-2.595,-2.6319,0.0,0.0,-2.7702,-2.7335,-2.8031,-2.7826,-2.7537,-2.7228,-2.7197,-2.7164,-2.7096,-2.6158,-2.5716,-2.5904,-2.5614,-2.5135,-2.4508,-2.4491,-2.4474,-2.4423,-2.4474,-2.4829,-2.5456,-2.5542,-2.5947,-2.6471,-2.5083,-2.4457,-2.4305,-2.2885,-2.2296,-2.2296,-2.2296,-2.2296,-2.2296,-2.2296,-2.2094,-2.1751,-2.1416,-2.1071,-2.0745,-2.0407,-2.0304,-2.0304,-2.0304,-2.0304,-2.0304,-2.0304,-2.0304,-2.0304,-2.0304,-2.0304,-2.0304,-2.0304,-2.0304,-2.0287,-2.027,-2.003,-1.9892,-2.0168,-1.9977,-1.9678,-1.9413,-1.9358,-1.9153,-1.8576,-1.8321,-1.8163,-1.8149,-1.7983,-1.7747,-1.7496,-1.7475,-1.7393,-1.722,-1.6871,-1.6543,-1.6222,-1.5802,-1.5412,-1.5108,-1.5108,-1.5085,-1.504,-1.4558,-1.4012,-1.3501,-1.2559,-1.1551,-1.0517,-1.044,-0.9865,-2.4017,0.0,-2.6596,-2.578,-2.5278,-2.476,0.0,-2.3355,-2.2554,-2.1151,-2.0554,-2.03,-2.03,-1.9793,-2.0228,-2.2835,-2.2944,-2.373,-2.6699,-2.764,0.0,-2.8563,-2.8151,-2.7906,-2.8084,-2.7622,-2.7291,-2.7197,-2.7197,-2.6845,-2.6026,-2.5978,-2.5375,-2.4069,-2.3962,-2.4086,-2.4491,-2.4491,-2.422,-2.3678,-2.422,-2.4305,-2.3951,-2.5101,-2.5389,-2.4998,-2.4643,-2.4186,-2.3594,-2.2682,-2.2296,-2.2296,-2.2296,-2.2296,-2.2296,-2.2296,-2.2094,-2.1751,-2.1416,-2.1071,-2.0745,-2.0407,-2.0304,-2.0304,-2.0304,-2.0304,-2.0304,-2.0304,-2.0304,-2.0304,-2.0304,-2.0304,-2.0304,-2.0304,-2.0304,-2.022,-1.9962,-1.9874,-1.9767,-1.965,-1.956,-1.9398,-1.9082,-1.9026,-1.8855,-1.8361,-1.8103,-1.7902,-1.7693,-1.7488,-1.7344,-1.7282,-1.7282,-1.7261,-1.7199,-1.665,-1.6275,-1.62,-1.558,-1.5176,-1.5108,-1.5108,-1.4926,-1.4558,-1.3661,-1.2943,-1.2437,-1.2224,-1.1968,-1.1685,-1.0804,-1.0261,-2.2628,-2.3912,-2.5425,-2.4497,-2.4061,-2.3702,-2.3181,-2.2301,-2.1351,-2.0481,-2.001,-1.9739,-1.9739,-1.9992,-2.0753,-2.2473,-2.3306,-2.4599,-2.7061,-2.8093,-2.86,-2.86,-2.8192,-2.7926,-2.7926,-2.7334,-2.6972,-2.6972,-2.6972,-2.6631,-2.5864,-2.5535,-2.4831,-2.3671,-2.3141,-2.3088,-2.3477,-2.3477,-2.3291,-2.2902,-2.3291,-2.346,-2.3427,-2.4239,-2.456,-2.4474,-2.4135,-2.378,-2.3342,-2.26,-2.2296,-2.2296,-2.2296,-2.2296,-2.2296,-2.2296,-2.1991,-2.1539,-2.137,-2.0974,-2.0544,-2.0356,-2.0304,-2.0304,-2.0304,-2.0304,-2.0304,-2.0304,-2.0304,-2.0304,-2.0304,-2.0304,-2.0304,-2.0304,-2.0304,-2.0202,-1.9874,-1.9696,-1.9566,-1.9431,-1.9284,-1.9101,-1.8917,-1.8822,-1.863,-1.8248,-1.7929,-1.7652,-1.7516,-1.7323,-1.7136,-1.6976,-1.7115,-1.7136,-1.6976,-1.65,-1.62,-1.62,-1.5513,-1.5108,-1.5108,-1.488,-1.4432,-1.3684,-1.3102,-1.2555,-1.2101,-1.2101,-1.1977,-1.1728,-1.1099,-1.0652,-2.2136,-2.3322,-2.449,-2.3442,-2.3167,-2.3039,-2.2637,-2.1379,-2.0264,-2.0137,-1.9666,-1.9367,-1.9594,-2.0753,-2.1794,-2.2165,-2.3994,-2.5842,-2.7206,-2.8093,-2.86,-2.86,-2.8073,-2.7701,-2.7701,-2.71,-2.6691,-2.6691,-2.659,-2.6315,-2.5876,-2.4897,-2.4117,-2.3677,-2.277,-2.2296,-2.2296,-2.2296,-2.2296,-2.2296,-2.2296,-2.2632,-2.3241,-2.3342,-2.3678,-2.4135,-2.3613,-2.3342,-2.3173,-2.2564,-2.2296,-2.2296,-2.2296,-2.2296,-2.2296,-2.2237,-2.1827,-2.1292,-2.1182,-2.0778,-2.0304,-2.0304,-2.0304,-2.0304,-2.0304,-2.0304,-2.0304,-2.0304,-2.027,-2.0252,-2.0287,-2.027,-2.022,-2.022,-2.022,-2.0133,-1.9734,-1.9475,-1.9321,-1.9265,-1.9026,-1.8836,-1.8836,-1.8669,-1.8436,-1.8189,-1.7774,-1.7496,-1.7455,-1.7323,-1.706,-1.6744,-1.6955,-1.6976,-1.6659,-1.6306,-1.61,-1.61,-1.5468,-1.5062,-1.4994,-1.4535,-1.3813,-1.2812,-1.2716,-1.2491,-1.2101,-1.2101,-1.1877,-1.1427,-1.1352,-1.1032,-2.1776,-2.2678,-2.3273,-2.2435,-2.257,-2.2581,-2.1193,-2.0567,-2.0101,-1.9413,-1.9721,-2.0536,-2.1902,-2.2355,-2.3169,-2.5172,-2.6355,-2.7115,-2.7369,-2.8093,-2.86,-2.86,-2.8073,-2.7701,-2.7701,-2.71,-2.6691,-2.6691,-2.6116,-2.5455,-2.4771,-2.3996,-2.3253,-2.2581,-2.2392,-2.2296,-2.2296,-2.2296,-2.2296,-2.2296,-2.2296,-2.2347,-2.2496,-2.3122,-2.3122,-2.2682,-2.3173,-2.3054,-2.2448,-2.2347,-2.2296,-2.2296,-2.2296,-2.2296,-2.2268,-2.1991,-2.1631,-2.1229,-2.0646,-2.039,-2.0304,-2.0304,-2.0304,-2.0304,-2.0304,-2.0304,-2.0304,-2.0304,-2.01,-1.9945,-2.022,-2.0083,-1.9892,-1.9892,-1.9892,-1.9732,-1.9161,-1.9011,-1.8912,-1.8678,-1.8595,-1.8562,-1.8562,-1.8386,-1.8189,-1.7983,-1.7693,-1.7434,-1.7282,-1.722,-1.706,-1.6744,-1.6765,-1.6637,-1.6297,-1.5913,-1.568,-1.568,-1.5334,-1.4926,-1.4512,-1.3999,-1.3433,-1.2812,-1.2403,-1.2166,-1.2101,-1.2101,-1.2051,-1.1977,-1.1519,-1.1242,-2.0421,-2.1319,-2.2181,-2.1813,-2.2969,-2.3968,-2.3122,-2.2552,-2.1966,-2.1206,-2.1351,-2.1812,-2.2554,-2.3368,-2.4708,-2.7115,-2.7441,-2.755,-2.7984,-2.8201,-2.8326,-2.8326,-2.7815,-2.743,-2.743,-2.6988,-2.6522,-2.6133,-2.5795,-2.5101,-2.3966,-2.3579,-2.3054,-2.2313,-2.2296,-2.2296,-2.2296,-2.2296,-2.2296,-2.2296,-2.2296,-2.2296,-2.2313,-2.2649,-2.2632,-2.2313,-2.2651,-2.2615,-2.2296,-2.2296,-2.2296,-2.2296,-2.2296,-2.2296,-2.224,-2.1721,-2.1432,-2.1197,-2.0544,-2.0304,-2.0304,-2.0304,-2.0304,-2.0304,-2.0304,-2.0304,-2.027,-2.0083,-1.9927,-1.9892,-2.0202,-1.994,-1.9621,-1.9785,-1.9678,-1.9457,-1.8993,-1.8898,-1.8817,-1.8542,-1.8498,-1.8478,-1.8361,-1.8163,-1.7963,-1.7713,-1.7488,-1.7303,-1.722,-1.7199,-1.701,-1.6479,-1.6595,-1.6488,-1.5913,-1.5702,-1.5524,-1.5345,-1.5198,-1.488,-1.443,-1.3871,-1.3348,-1.2812,-1.2329,-1.2101,-1.2101,-1.2101,-1.2101,-1.2101,-1.1852,-1.1578,-2.001,-2.0843,-2.1812,-2.2002,-2.3227,-2.4464,-2.4671,-2.3958,-2.3198,-2.2998,-2.3115,-2.3296,-2.3477,-2.4791,-2.6416,-2.8198,-2.8037,-2.7857,-2.8311,-2.8215,-2.8075,-2.8006,-2.7532,-2.7197,-2.7197,-2.6737,-2.6201,-2.5642,-2.5287,-2.4594,-2.346,-2.3241,-2.2885,-2.2313,-2.2296,-2.2296,-2.2296,-2.2296,-2.2296,-2.2296,-2.2296,-2.2296,-2.2296,-2.2296,-2.2296,-2.2296,-2.2296,-2.2296,-2.2296,-2.2296,-2.2296,-2.2296,-2.2296,-2.2254,-2.2123,-2.1616,-2.1323,-2.1103,-2.0595,-2.0373,-2.0304,-2.0304,-2.0304,-2.0304,-2.0304,-2.0304,-2.022,-1.9892,-1.9752,-1.9782,-2.0028,-1.969,-1.9325,-1.9551,-1.9439,-1.9209,-1.8874,-1.8817,-1.8741,-1.8537,-1.8498,-1.8439,-1.8242,-1.8023,-1.7808,-1.7537,-1.7344,-1.7199,-1.7199,-1.7199,-1.6947,-1.6265,-1.6436,-1.6272,-1.5546,-1.5479,-1.5367,-1.5108,-1.5108,-1.488,-1.443,-1.3999,-1.3481,-1.2812,-1.2442,-1.2215,-1.2101,-1.2101,-1.2101,-1.2101,-1.2101,-1.1852,-2.2047,-2.2536,-2.2771,-2.3451,-2.2701,-2.2149,-2.357,-2.2727,-2.2057,-2.3433,-2.4302,-2.5063,-2.5805,-2.726,-2.8307,-2.8166,-2.8342,-2.8347,-2.7829,-2.7968,-2.8006,-2.7757,-2.743,-2.7197,-2.7197,-2.6277,-2.5659,-2.5592,-2.4323,-2.3511,-2.341,-2.275,-2.2347,-2.2296,-2.2296,-2.2296,-2.2296,-2.2296,-2.2296,-2.2296,-2.2296,-2.2296,-2.2296,-2.2296,-2.2296,-2.2296,-2.2296,-2.2296,-2.2296,-2.2296,-2.2296,-2.2296,-2.2296,-2.2123,-2.1827,-2.1766,-2.1371,-2.0827,-2.0778,-2.0561,-2.0304,-2.0304,-2.0304,-2.0304,-2.0304,-2.0304,-2.022,-1.9892,-1.9621,-1.9431,-1.945,-1.9195,-1.8936,-1.8955,-1.8955,-1.8855,-1.8581,-1.8537,-1.8517,-1.8498,-1.8498,-1.8439,-1.8242,-1.8023,-1.7808,-1.7537,-1.7344,-1.7199,-1.7199,-1.7199,-1.6947,-1.6265,-1.6222,-1.5947,-1.5198,-1.5131,-1.5131,-1.5108,-1.5108,-1.488,-1.443,-1.435,-1.386,-1.2812,-1.2764,-1.254,-1.2101,-1.2101,-1.2101,-1.2101,-1.2101,-1.2002,-2.03,-2.1568,-2.2771,-2.3053,-2.3017,-2.3343,-2.4936,-2.5233,-2.5323,-2.5921,-2.6276,-2.659,-2.688,-2.7857,-2.8492,-2.8156,-2.8215,-2.8147,-2.7774,-2.7609,-2.7502,-2.7398,-2.7101,-2.6891,-2.6891,-2.6113,-2.5423,-2.4949,-2.3968,-2.319,-2.275,-2.2448,-2.2296,-2.2296,-2.2296,-2.2296,-2.2296,-2.2296,-2.2296,-2.2296,-2.2296,-2.2296,-2.2296,-2.2296,-2.2296,-2.2296,-2.2296,-2.2296,-2.2296,-2.2296,-2.2296,-2.2296,-2.2296,-2.2209,-2.2094,-2.1886,-2.1509,-2.1071,-2.086,-2.0578,-2.0304,-2.0304,-2.0304,-2.0304,-2.0304,-2.0304,-2.022,-1.9892,-1.9732,-1.9621,-1.945,-1.904,-1.8697,-1.8874,-1.8779,-1.862,-1.8517,-1.8498,-1.8498,-1.8498,-1.8498,-1.84,-1.8063,-1.7942,-1.7767,-1.7365,-1.7261,-1.7199,-1.7199,-1.7199,-1.6947,-1.6265,-1.5792,-1.5401,-1.5131,-1.5108,-1.5108,-1.5108,-1.5108,-1.5017,-1.4834,-1.4558,-1.4035,-1.3314,-1.2967,-1.2555,-1.2101,-1.2101,-1.2101,-1.2101,-1.2101,-1.1902,-2.0581,-2.1785,-2.3097,-2.335,-2.3614,-2.4212,-2.5842,-2.6427,-2.6862,-2.7622,-2.7785,-2.7785,-2.7785,-2.8238,-2.8492,-2.8156,-2.8102,-2.8006,-2.7745,-2.7415,-2.7197,-2.7197,-2.6907,-2.6691,-2.6691,-2.5812,-2.5033,-2.4541,-2.3596,-2.2835,-2.233,-2.2296,-2.2296,-2.2296,-2.2296,-2.2296,-2.2296,-2.2296,-2.2296,-2.2296,-2.2296,-2.2296,-2.2296,-2.2296,-2.2296,-2.2296,-2.2296,-2.2296,-2.2296,-2.2296,-2.2296,-2.2296,-2.2296,-2.2296,-2.2268,-2.1915,-2.1601,-2.1261,-2.0909,-2.0578,-2.0304,-2.0304,-2.0304,-2.0304,-2.0304,-2.0304,-2.022,-1.9892,-1.9749,-1.9621,-1.9325,-1.8946,-1.8659,-1.8741,-1.8639,-1.8498,-1.8498,-1.8498,-1.8498,-1.8498,-1.8498,-1.838,-1.7963,-1.7902,-1.7727,-1.7261,-1.7199,-1.7199,-1.7199,-1.7199,-1.6947,-1.6265,-1.5536,-1.5108,-1.5108,-1.5108,-1.5108,-1.5108,-1.5108,-1.5108,-1.5108,-1.4789,-1.4373,-1.3858,-1.3494,-1.2967,-1.2329,-1.2329,-1.224,-1.2101,-1.2101,-1.1877,-2.3769,-2.3777,-2.3994,-2.4773,-2.4411,-2.4248,-2.586,-2.5606,-2.5697,-2.8111,-2.86,-2.86,-2.86,-2.86,-2.8492,-2.8156,-2.8102,-2.8006,-2.7728,-2.7415,-2.7197,-2.7197,-2.6907,-2.6691,-2.6691,-2.5371,-2.4491,-2.4491,-2.3122,-2.2296,-2.2296,-2.2296,-2.2296,-2.2296,-2.2296,-2.2296,-2.2296,-2.2296,-2.2296,-2.2296,-2.2296,-2.2296,-2.2296,-2.2296,-2.2296,-2.2296,-2.2296,-2.2296,-2.2296,-2.2296,-2.2296,-2.2296,-2.2296,-2.2296,-2.2237,-2.1915,-2.1569,-2.1261,-2.0925,-2.0578,-2.0304,-2.0304,-2.0304,-2.0304,-2.0304,-2.0304,-2.022,-1.9892,-1.9603,-1.9321,-1.8988,-1.8898,-1.8822,-1.8562,-1.8498,-1.8498,-1.8498,-1.8498,-1.8498,-1.8498,-1.8498,-1.838,-1.7963,-1.7902,-1.7727,-1.7261,-1.7199,-1.7199,-1.7199,-1.7199,-1.6926,-1.6265,-1.5536,-1.5108,-1.5108,-1.5108,-1.5108,-1.5108,-1.5108,-1.5108,-1.5108,-1.5108,-1.488,-1.4396,-1.4396,-1.386,-1.2788,-1.2788,-1.2564,-1.2101,-1.2101,-1.2026,-2.0789,-2.2528,-2.4447,-2.3586,-2.5287,-2.7152,-2.7061,-2.6862,-2.7043,-2.8346,-2.86,-2.86,-2.86,-2.86,-2.8492,-2.8156,-2.794,-2.7713,-2.74,-2.7069,-2.6858,-2.6858,-2.6758,-2.6691,-2.6691,-2.5371,-2.4491,-2.4491,-2.3122,-2.2296,-2.2296,-2.2296,-2.2296,-2.2296,-2.2296,-2.2296,-2.2296,-2.2296,-2.2296,-2.2296,-2.2296,-2.2296,-2.2296,-2.2296,-2.2296,-2.2296,-2.2296,-2.2296,-2.2296,-2.2296,-2.2296,-2.2282,-2.2034,-2.1945,-2.1901,-2.1569,-2.1229,-2.0926,-2.0828,-2.0578,-2.0304,-2.0304,-2.0304,-2.0304,-2.0304,-2.015,-1.9927,-1.9823,-1.9603,-1.9321,-1.8988,-1.8898,-1.8822,-1.8562,-1.8498,-1.8498,-1.8498,-1.8498,-1.8498,-1.8498,-1.84,-1.8222,-1.7942,-1.7747,-1.7529,-1.724,-1.7199,-1.7199,-1.7199,-1.6778,-1.6426,-1.6222,-1.5536,-1.5108,-1.5108,-1.5108,-1.5108,-1.5108,-1.5108,-1.5108,-1.5108,-1.5108,-1.488,-1.4396,-1.4022,-1.3481,-1.2788,-1.2467,-1.224,-1.2101,-1.2101,-1.2076,-2.3353,-2.5092,-2.6747,-2.6149,-2.7061,-2.8075,-2.7912,-2.7876,-2.802,-2.8509,-2.86,-2.86,-2.86,-2.86,-2.8531,-2.8339,-2.7957,-2.7669,-2.7562,-2.7051,-2.6741,-2.6891,-2.6775,-2.6691,-2.6691,-2.5371,-2.4491,-2.4491,-2.3122,-2.2296,-2.2296,-2.2296,-2.2296,-2.2296,-2.2268,-2.2254,-2.2254,-2.2209,-2.2178,-2.2178,-2.2223,-2.2254,-2.2254,-2.2282,-2.2296,-2.2296,-2.2296,-2.2296,-2.2296,-2.2296,-2.2209,-2.2077,-2.1886,-2.1721,-2.157,-2.1229,-2.0974,-2.0778,-2.0645,-2.046,-2.0304,-2.0304,-2.0304,-2.0304,-2.0304,-2.0168,-1.9962,-1.9841,-1.9603,-1.9321,-1.8988,-1.8817,-1.8697,-1.8537,-1.8498,-1.8498,-1.8498,-1.8498,-1.8498,-1.8498,-1.8341,-1.8143,-1.7922,-1.7672,-1.7434,-1.724,-1.7199,-1.7199,-1.7199,-1.662,-1.62,-1.62,-1.5536,-1.5108,-1.5108,-1.5108,-1.5108,-1.5108,-1.5108,-1.5108,-1.5108,-1.5108,-1.4971,-1.4674,-1.4362,-1.3836,-1.3112,-1.2842,-1.2486,-1.2101,-1.2101,-1.2101,-2.8516,-2.9368,-2.9839,-3.0418,-2.9029,-2.7695,-2.8437,-2.86,-2.86,-2.86,-2.86,-2.86,-2.86,-2.8574,-2.8543,-2.8543,-2.8059,-2.7742,-2.7978,-2.7255,-2.6808,-2.7117,-2.6891,-2.6691,-2.6691,-2.5371,-2.4491,-2.4491,-2.3122,-2.2296,-2.2296,-2.2296,-2.2296,-2.2296,-2.2225,-2.22,-2.22,-2.2075,-2.2013,-2.2013,-2.212,-2.2183,-2.2183,-2.2268,-2.2296,-2.2296,-2.2296,-2.2296,-2.2296,-2.2296,-2.2123,-2.1842,-2.1766,-2.1569,-2.1261,-2.0893,-2.0761,-2.0712,-2.0407,-2.0304,-2.0304,-2.0304,-2.0287,-2.0252,-2.0252,-2.0218,-2.0115,-1.9788,-1.953,-1.9246,-1.895,-1.8678,-1.8498,-1.8498,-1.8498,-1.8498,-1.8498,-1.8498,-1.8498,-1.8478,-1.8321,-1.8103,-1.7902,-1.7652,-1.7413,-1.724,-1.7199,-1.7199,-1.7157,-1.6599,-1.62,-1.6144,-1.5513,-1.5108,-1.5108,-1.5108,-1.5108,-1.5108,-1.5108,-1.5108,-1.5108,-1.5108,-1.5108,-1.5108,-1.5062,-1.4605,-1.3658,-1.3563,-1.306,-1.2175,-1.2126,-1.2101,-2.3632,-2.6023,-2.86,-2.7508,-2.7785,-2.8382,-2.8563,-2.86,-2.86,-2.86,-2.86,-2.86,-2.86,-2.8378,-2.8215,-2.8215,-2.7695,-2.7338,-2.7382,-2.6988,-2.6725,-2.6808,-2.6741,-2.6691,-2.6691,-2.5371,-2.4491,-2.4491,-2.3122,-2.2296,-2.2296,-2.2296,-2.2296,-2.2296,-2.2225,-2.22,-2.22,-2.2075,-2.2013,-2.2013,-2.203,-2.2044,-2.2044,-2.2223,-2.2296,-2.2296,-2.2296,-2.2296,-2.2296,-2.2296,-2.2268,-2.2152,-2.16,-2.137,-2.1229,-2.0628,-2.0407,-2.0407,-2.0321,-2.0304,-2.0304,-2.0304,-2.0133,-1.9909,-1.9909,-1.957,-1.9199,-1.9109,-1.8893,-1.8692,-1.86,-1.8537,-1.8498,-1.8498,-1.8498,-1.8498,-1.8498,-1.8498,-1.8459,-1.8301,-1.8103,-1.7868,-1.7632,-1.7406,-1.7261,-1.722,-1.7199,-1.7094,-1.685,-1.6436,-1.6078,-1.5746,-1.5356,-1.5108,-1.5108,-1.5108,-1.5108,-1.5108,-1.5108,-1.5108,-1.5108,-1.5108,-1.5108,-1.5108,-1.4743,-1.4443,-1.4233,-1.3375,-1.2871,-1.2652,-1.2264,-1.2101,-2.4817,-2.7001,-2.8974,-2.8123,-2.8256,-2.86,-2.86,-2.86,-2.86,-2.86,-2.86,-2.8562,-2.8396,-2.8215,-2.8061,-2.794,-2.7502,-2.7197,-2.7197,-2.6907,-2.6691,-2.6691,-2.6691,-2.6691,-2.6691,-2.5371,-2.4491,-2.4491,-2.3122,-2.2296,-2.2296,-2.2268,-2.224,-2.224,-2.2123,-2.2049,-2.2049,-2.1974,-2.1897,-2.1897,-2.1926,-2.1969,-2.2013,-2.218,-2.2268,-2.2296,-2.2296,-2.2296,-2.2296,-2.2296,-2.2209,-2.2005,-2.1493,-2.1198,-2.1007,-2.0494,-2.0304,-2.0304,-2.0304,-2.0304,-2.0304,-2.0304,-2.0065,-1.9806,-1.9806,-1.9497,-1.9101,-1.8936,-1.8798,-1.8659,-1.8537,-1.8498,-1.8498,-1.8498,-1.8498,-1.8498,-1.8498,-1.842,-1.8341,-1.8222,-1.7929,-1.7652,-1.7516,-1.7344,-1.7199,-1.7199,-1.7199,-1.7073,-1.6744,-1.6414,-1.6057,-1.5635,-1.53,-1.5108,-1.5108,-1.5108,-1.5108,-1.5108,-1.5108,-1.5108,-1.5108,-1.488,-1.488,-1.5108,-1.4628,-1.4396,-1.4396,-1.3576,-1.3064,-1.2788,-1.2329,-1.2101,-2.6518,-2.8051,-2.9078,-2.9494,-2.9101,-2.86,-2.86,-2.86,-2.8587,-2.8518,-2.8505,-2.8422,-2.8143,-2.8002,-2.7865,-2.7639,-2.7338,-2.7117,-2.7117,-2.6874,-2.6691,-2.6691,-2.6691,-2.6691,-2.6691,-2.5371,-2.4491,-2.4491,-2.3122,-2.2296,-2.2296,-2.2242,-2.22,-2.22,-2.2003,-2.1913,-2.1913,-2.1825,-2.1812,-2.1812,-2.1855,-2.1911,-2.1984,-2.2106,-2.2211,-2.2282,-2.224,-2.2254,-2.2296,-2.224,-2.2049,-2.1783,-2.1432,-2.1103,-2.0761,-2.0424,-2.0304,-2.0304,-2.0304,-2.0304,-2.0304,-2.0304,-2.003,-1.9732,-1.9732,-1.9493,-1.9191,-1.8912,-1.8836,-1.8779,-1.8556,-1.8498,-1.8498,-1.8498,-1.8498,-1.8478,-1.84,-1.8307,-1.8222,-1.8049,-1.7733,-1.7496,-1.7455,-1.7344,-1.722,-1.7136,-1.7115,-1.6955,-1.6561,-1.6262,-1.5947,-1.5546,-1.5266,-1.5108,-1.5108,-1.5108,-1.5108,-1.5108,-1.5108,-1.5108,-1.5108,-1.4558,-1.4489,-1.4971,-1.4558,-1.4303,-1.4233,-1.3729,-1.3242,-1.2716,-1.2255,-1.2051,-2.1676,-2.3487,-2.6131,-2.8238,-2.869,-2.86,-2.86,-2.86,-2.8518,-2.8228,-2.8156,-2.8156,-2.8116,-2.7663,-2.7305,-2.7276,-2.6989,-2.6775,-2.6775,-2.6725,-2.6691,-2.6691,-2.6691,-2.6691,-2.6691,-2.5371,-2.4491,-2.4491,-2.3122,-2.2296,-2.2296,-2.2242,-2.22,-2.22,-2.2003,-2.1913,-2.1913,-2.1825,-2.1812,-2.1812,-2.1796,-2.1855,-2.1928,-2.1984,-2.2089,-2.2214,-2.1976,-2.2034,-2.2282,-2.1991,-2.1842,-2.1783,-2.1432,-2.1103,-2.0761,-2.0424,-2.0304,-2.0304,-2.0304,-2.0304,-2.0304,-2.0304,-1.9919,-1.945,-1.945,-1.9059,-1.8615,-1.8576,-1.8542,-1.8556,-1.8517,-1.8498,-1.8498,-1.8498,-1.8498,-1.84,-1.7982,-1.8195,-1.8228,-1.7488,-1.7413,-1.7434,-1.7282,-1.7352,-1.731,-1.685,-1.6765,-1.6518,-1.5822,-1.5702,-1.5546,-1.5198,-1.5131,-1.5108,-1.5108,-1.5108,-1.5108,-1.5108,-1.5108,-1.5108,-1.5108,-1.4199,-1.3952,-1.4489,-1.4199,-1.3884,-1.3539,-1.3242,-1.2861,-1.2438,-1.2082,-1.1852,-2.2528,-2.4266,-2.6138,-2.8111,-2.86,-2.86,-2.86,-2.86,-2.8505,-2.8156,-2.7978,-2.7811,-2.7636,-2.7382,-2.7133,-2.6956,-2.6791,-2.6691,-2.6691,-2.6691,-2.6691,-2.6691,-2.6691,-2.6691,-2.6691,-2.5727,-2.4948,-2.4525,-2.3526,-2.275,-2.2313,-2.2163,-2.2092,-2.2092,-2.193,-2.1751,-2.1555,-2.1525,-2.1526,-2.1526,-2.1526,-2.1631,-2.184,-2.1911,-2.1945,-2.1919,-2.1827,-2.1766,-2.1721,-2.1586,-2.1524,-2.1478,-2.115,-2.0926,-2.0761,-2.0424,-2.0304,-2.0304,-2.0304,-2.0304,-2.027,-2.0083,-1.9744,-1.9358,-1.9176,-1.8831,-1.8498,-1.8498,-1.8498,-1.8498,-1.8498,-1.8498,-1.8498,-1.8498,-1.8498,-1.8366,-1.7902,-1.8075,-1.8129,-1.7475,-1.7434,-1.7434,-1.724,-1.7282,-1.7186,-1.6765,-1.6689,-1.6432,-1.569,-1.5591,-1.5479,-1.5131,-1.5108,-1.5108,-1.5108,-1.5108,-1.5108,-1.5108,-1.5108,-1.5108,-1.5108,-1.4129,-1.3692,-1.3847,-1.3423,-1.328,-1.3396,-1.2885,-1.256,-1.2389,-1.1983,-1.1753,-2.2781,-2.4248,-2.5233,-2.7441,-2.8147,-2.8346,-2.8545,-2.86,-2.8505,-2.8156,-2.7883,-2.7612,-2.726,-2.7133,-2.6989,-2.6741,-2.6691,-2.6691,-2.6691,-2.6691,-2.6691,-2.6691,-2.6691,-2.6691,-2.6691,-2.6031,-2.5287,-2.4558,-2.3831,-2.3071,-2.233,-2.2118,-2.2013,-2.2013,-2.1796,-2.1556,-2.1293,-2.1293,-2.1293,-2.1293,-2.1387,-2.151,-2.1693,-2.184,-2.1796,-2.1632,-2.1738,-2.1691,-2.1539,-2.1462,-2.1432,-2.1401,-2.1071,-2.0876,-2.0761,-2.0424,-2.0304,-2.0304,-2.0304,-2.0304,-2.0252,-1.9909,-1.9621,-1.9339,-1.9007,-1.8702,-1.8498,-1.8498,-1.8498,-1.8498,-1.8498,-1.8498,-1.8498,-1.8498,-1.8498,-1.8366,-1.7902,-1.7814,-1.7754,-1.7537,-1.7462,-1.7413,-1.7303,-1.7248,-1.7081,-1.6637,-1.6488,-1.6194,-1.5546,-1.5479,-1.5367,-1.5131,-1.5108,-1.5108,-1.5108,-1.5108,-1.5108,-1.5108,-1.5108,-1.5108,-1.5108,-1.4129,-1.3539,-1.3396,-1.2725,-1.2555,-1.2929,-1.2482,-1.2227,-1.2104,-1.1785,-1.1544,-1.9666,-2.0572,-2.1532,-2.5371,-2.6898,-2.7658,-2.8437,0.0,-2.8505,-2.8156,-2.7883,-2.7612,-2.726,-2.694,-2.6725,-2.6708,-2.6691,-2.6691,-2.6691,-2.6691,-2.6691,-2.6691,-2.6691,-2.6691,-2.6691,-2.6031,-2.5287,-2.4558,-2.3831,-2.3071,-2.233,-2.2118,-2.2013,-2.2013,-2.157,-2.1309,-2.1293,-2.1293,-2.1293,-2.1293,-2.1616,-2.1617,-2.134,-2.1721,-2.1721,-2.1433,-2.1617,-2.1903,-2.2209,-2.1901,-2.1766,-2.1736,-2.1401,-2.1071,-2.0761,-2.0424,-2.0304,-2.0304,-2.0304,-2.0304,-2.0252,-1.9909,-1.9621,-1.9339,-1.9007,-1.8702,-1.8498,-1.8498,-1.8498,-1.8498,-1.8498,-1.8498,-1.8498,-1.8498,-1.8498,-1.8366,-1.7902,-1.7256,-1.6934,-1.7413,-1.7387,-1.7346,-1.7462,-1.7366,-1.7055,-1.634,-1.5913,-1.5524,-1.5176,-1.5131,-1.5131,-1.5108,-1.5108,-1.5108,-1.5108,-1.5108,-1.5108,-1.5108,-1.5108,-1.5108,-1.5108,-1.4129,-1.3539,-1.3396,-1.2304,-1.1694,-1.1594,-1.1819,-1.1719,-1.1368,-1.1452,-1.1141,-1.895,-1.9902,-2.0898,-2.3332,-2.5287,-2.6699,-2.6989,-2.7857,-2.8453,-2.7957,-2.7771,-2.7519,-2.6989,-2.6775,-2.6691,-2.6691,-2.6691,-2.6691,-2.6691,-2.6691,-2.6691,-2.6691,-2.6691,-2.6691,-2.6691,-2.6454,-2.5998,-2.5253,-2.4509,-2.378,-2.3054,-2.237,-2.2013,-2.2013,-2.1751,-2.1526,-2.1293,-2.1087,-2.1087,-2.1293,-2.1418,-2.1418,-2.1293,-2.1449,-2.1494,-2.1462,-2.1539,-2.1586,-2.1602,-2.1509,-2.1339,-2.1151,-2.1023,-2.0762,-2.046,-2.0339,-2.0304,-2.0304,-2.0304,-2.0304,-2.0218,-1.9708,-1.9472,-1.9302,-1.8812,-1.8581,-1.8498,-1.8498,-1.8498,-1.8498,-1.8498,-1.8498,-1.8498,-1.8498,-1.8268,-1.7922,-1.7496,-1.6976,-1.6765,-1.7372,-1.7462,-1.738,-1.7214,-1.7139,-1.6803,-1.5944,-1.568,-1.5479,-1.5131,-1.5108,-1.5108,-1.5108,-1.5108,-1.5108,-1.5108,-1.5108,-1.5108,-1.5108,-1.5108,-1.5017,-1.4834,-1.3965,-1.3338,-1.3016,-1.2058,-1.1553,-1.1502,-1.1519,-1.1452,-1.1293,-1.0964,-1.0659,-1.753,-1.8471,-1.9612,-2.1757,-2.3459,-2.4972,-2.6312,-2.7224,-2.7805,-2.7837,-2.7757,-2.7519,-2.6972,-2.6775,-2.6691,-2.6691,-2.6691,-2.6691,-2.6691,-2.6691,-2.6691,-2.6691,-2.6691,-2.6691,-2.6691,-2.6691,-2.6387,-2.5659,-2.5152,-2.444,-2.3444,-2.2771,-2.2208,-2.1781,-2.1676,-2.1526,-2.1293,-2.0974,-2.0909,-2.1135,-2.1135,-2.1071,-2.0942,-2.1071,-2.1166,-2.1276,-2.1307,-2.137,-2.1402,-2.1447,-2.1261,-2.0958,-2.0844,-2.0662,-2.0443,-2.0339,-2.0304,-2.0304,-2.0304,-2.0304,-2.02,-1.9596,-1.9395,-1.9284,-1.8692,-1.8498,-1.8498,-1.8498,-1.84,-1.8268,-1.8268,-1.8155,-1.8055,-1.8055,-1.77,-1.7289,-1.7018,-1.668,-1.6595,-1.7165,-1.7248,-1.7173,-1.7034,-1.6909,-1.6548,-1.5724,-1.5501,-1.5345,-1.5131,-1.5108,-1.5108,-1.5108,-1.5108,-1.5108,-1.5108,-1.5108,-1.5108,-1.5108,-1.5108,-1.4926,-1.4558,-1.38,-1.3146,-1.2618,-1.1884,-1.1477,-1.1418,-1.1352,-1.1301,-1.1301,-1.0684,-1.0216,0.0,0.0,0.0,-2.0536,-2.1377,0.0,-2.6301,0.0,-2.6429,-2.775,-2.7795,-2.751,-2.7227,-2.6923,-2.6691,-2.6691,-2.6691,-2.6691,-2.6691,-2.6691,-2.6691,-2.6691,-2.6691,-2.6691,-2.6691,-2.6691,-2.6404,-2.5693,-2.5609,-2.4966,-2.3511,-2.3259,-2.2605,-2.1357,-2.1309,-2.1309,-2.1309,-2.099,-2.0827,-2.0811,-2.0811,-2.0613,-2.0225,-2.0613,-2.0794,-2.0811,-2.0926,-2.1276,-2.1783,-2.1766,-2.1601,-2.1261,-2.0926,-2.0794,-2.0745,-2.0424,-2.0304,-2.0304,-2.0304,-2.0304,-2.02,-1.9596,-1.9395,-1.9284,-1.8692,-1.8498,-1.8498,-1.8498,-1.8175,-1.7821,-1.7787,-1.7516,-1.722,-1.7199,-1.6842,-1.65,-1.65,-1.6389,-1.6377,-1.6731,-1.6731,-1.6752,-1.6951,-1.671,-1.6272,-1.568,-1.53,-1.5108,-1.5108,-1.5108,-1.5108,-1.5108,-1.5108,-1.5108,-1.5108,-1.5108,-1.5108,-1.5108,-1.5085,-1.4834,-1.4222,-1.3671,-1.3016,-1.2209,-1.1726,-1.1452,-1.1326,-1.1301,-1.1301,-1.1301,-1.0659,-0.9821,-1.4571,0.0,0.0,0.0,0.0,0.0,0.0,0.0,-2.3256,-2.5584,-2.5546,-2.5449,-2.6616,-2.6758,-2.6691,-2.6691,-2.6691,-2.6691,-2.6691,-2.6691,-2.6691,-2.6691,-2.6691,-2.6691,-2.6691,-2.6691,-2.6607,0.0,-2.5896,-2.5186,-2.4254,-2.3007,-2.213,-2.1678,-2.1646,-2.1646,-2.1646,-2.157,-2.1402,-2.1167,-2.1167,-2.099,-2.0629,-2.0446,-2.0547,-2.0861,-2.0714,-2.0747,-2.0958,-2.1308,-2.1245,-2.0926,-2.0844,-2.0645,-2.0441,-2.0339,-2.0304,-2.0304,-2.0304,-2.0304,-2.02,-1.9596,-1.9395,-1.9284,-1.8692,-1.8498,-1.8498,-1.8498,-1.842,-1.8234,-1.7902,-1.772,-1.7557,-1.7282,-1.6842,-1.65,-1.65,-1.6175,-1.611,-1.6934,-1.6633,-1.6395,-1.6799,-1.6463,-1.5923,-1.5334,-1.5153,-1.5108,-1.5108,-1.5108,-1.5108,-1.5108,-1.5108,-1.5108,-1.5108,-1.5108,-1.5108,-1.5108,-1.4926,-1.4547,-1.3944,-1.3294,-1.2783,-1.2427,-1.1719,-1.1477,-1.1719,-1.1452,-1.1301,-1.1276,-1.0285,-0.9458,-1.439,-1.4637,-1.5169,0.0,0.0,0.0,-2.1096,-2.1682,-2.2522,0.0,-2.583,-2.5656,-2.6537,-2.6691,-2.6691,-2.6691,-2.6691,-2.6691,-2.6691,-2.6691,-2.6691,-2.6691,-2.6691,-2.6691,-2.6691,-2.6691,-2.6691,-2.6691,-2.6302,-2.5592,-2.4481,-2.3195,-2.2291,-2.1812,-2.1812,-2.1812,-2.1812,-2.1646,-2.1433,-2.1087,-2.0926,-2.0679,-2.0325,-2.0102,-2.0137,-2.0395,-2.0309,-2.0308,-2.0376,-2.073,-2.0762,-2.0595,-2.0595,-2.046,-2.0304,-2.0304,-2.0304,-2.0304,-2.0304,-2.0202,-2.0028,-1.956,-1.9321,-1.9101,-1.8639,-1.8498,-1.8498,-1.8498,-1.8248,-1.7855,-1.7393,-1.711,-1.69,-1.665,-1.6371,-1.6154,-1.6076,-1.578,-1.577,-1.6552,-1.6303,-1.6051,-1.6265,-1.603,-1.5657,-1.5176,-1.5108,-1.5108,-1.5108,-1.5108,-1.5108,-1.5108,-1.5108,-1.5108,-1.5108,-1.4994,-1.4971,-1.5085,-1.4617,-1.4095,-1.3566,-1.2909,-1.2384,-1.2002,-1.1553,-1.1427,-1.1653,-1.1418,-1.1175,-1.0913,-1.0241,-0.9536,-1.4716,-1.4499,-1.4886,0.0,0.0,0.0,-2.1748,-2.2077,-2.2381,0.0,-2.6335,-2.6054,-2.601,-2.6031,-2.6048,-2.5964,-2.6251,-2.6505,-2.6674,-2.6691,-2.6691,-2.6691,-2.6691,-2.6691,-2.6691,-2.6691,-2.6691,-2.6691,-2.6623,-2.5915,-2.4373,-2.3572,-2.2713,-2.1769,-2.1736,-2.1736,-2.1736,-2.1495,-2.1167,-2.0794,-2.0446,-2.0085,-1.9747,-1.9726,-1.9711,-1.9764,-1.9919,-1.9988,-2.0023,-2.02,-2.0287,-2.0304,-2.0304,-2.0304,-2.0304,-2.0304,-2.0304,-2.0304,-2.0304,-2.01,-1.9803,-1.949,-1.9195,-1.8912,-1.8581,-1.8498,-1.8498,-1.8439,-1.7855,-1.7157,-1.6616,-1.6175,-1.5836,-1.5715,-1.5693,-1.5649,-1.5536,-1.539,-1.5413,-1.5846,-1.5802,-1.5703,-1.5657,-1.5591,-1.5434,-1.5153,-1.5108,-1.5108,-1.5108,-1.5108,-1.5108,-1.5108,-1.5108,-1.5085,-1.5062,-1.4857,-1.4834,-1.504,-1.4281,-1.3613,-1.3218,-1.2536,-1.1907,-1.1377,-1.1377,-1.1352,-1.1301,-1.1301,-1.1015,-1.0506,-1.0377,-0.9795,0.0,0.0,0.0,0.0,0.0,0.0,-1.6819,-1.6544,-1.6923,0.0,-1.9518,-1.9453,-2.1212,-2.1946,-2.207,-2.1417,-2.3342,-2.5337,-2.6522,-2.6691,-2.6691,-2.6691,-2.6691,-2.6691,-2.6691,-2.6691,-2.6691,-2.6691,-2.615,-2.5375,-2.434,-2.3287,-2.2324,-2.1435,-2.1402,-2.1402,-2.1402,-2.1602,-2.1402,-2.0794,-2.0712,-2.0479,-2.0087,-1.9818,-1.9854,-2.0087,-1.9922,-1.9902,-2.0005,-2.0098,-2.0202,-2.0304,-2.0304,-2.0304,-2.0304,-2.0304,-2.0304,-2.0304,-2.0304,-2.027,-2.0115,-1.9578,-1.9358,-1.9209,-1.8673,-1.8498,-1.842,-1.8042,-1.7821,-1.7503,-1.6701,-1.6358,-1.6107,-1.577,-1.5614,-1.5536,-1.5513,-1.539,-1.5335,-1.5413,-1.5323,-1.5379,-1.5834,-1.5524,-1.5176,-1.5108,-1.5108,-1.5108,-1.5108,-1.5108,-1.5108,-1.5108,-1.5108,-1.5017,-1.48,-1.4926,-1.4949,-1.4789,-1.4154,-1.3613,-1.3218,-1.2393,-1.1893,-1.1803,-1.1778,-1.1628,-1.1301,-1.1301,-1.1251,-1.1091,-1.019,-0.964,0.0,0.0,0.0,-1.599,0.0,0.0,0.0,0.0,-1.6746,-1.9195,-1.9121,-1.8944,-2.0081,-2.0463,-2.0602,-2.0602,-2.2479,-2.3949,-2.3966,-2.5541,-2.6691,-2.6691,-2.6691,-2.6691,-2.6691,-2.6691,-2.6691,-2.6691,-2.6353,-2.578,-2.4942,-2.3802,-2.2753,-2.1923,-2.1344,-2.1055,-2.1055,-2.1387,-2.1198,-2.0496,-2.0696,-2.0495,-1.9945,-1.9782,-1.9782,-1.996,-1.9851,-1.9884,-2.0005,-2.0063,-2.0185,-2.0304,-2.0304,-2.0304,-2.0304,-2.0304,-2.0304,-2.0304,-2.0304,-2.0185,-1.9977,-1.9527,-1.9302,-1.9064,-1.862,-1.8498,-1.8406,-1.7922,-1.7659,-1.7331,-1.6582,-1.6207,-1.5913,-1.5582,-1.5447,-1.539,-1.5311,-1.5244,-1.521,-1.521,-1.5165,-1.5198,-1.5501,-1.53,-1.5108,-1.5108,-1.5108,-1.5108,-1.5108,-1.5108,-1.5108,-1.5108,-1.5108,-1.4994,-1.472,-1.472,-1.4605,-1.4258,-1.3552,-1.3025,-1.2716,-1.1974,-1.1603,-1.1603,-1.1603,-1.1502,-1.1301,-1.0989,-1.1015,-1.1276,-1.0421,-0.9847,0.0,0.0,0.0,0.0,0.0,-1.5447,0.0,0.0,0.0,0.0,0.0,0.0,0.0,0.0,0.0,0.0,0.0,0.0,0.0,0.0,0.0,0.0,0.0,0.0,-2.6099,-2.6048,-2.6234,-2.6657,-2.6319,-2.5897,-2.5529,-2.4414,-2.3373,-2.2427,-2.1403,-2.0821,-2.0695,-2.1039,-2.0909,-2.0311,-2.0579,-2.0376,-1.9782,-1.9744,-1.9708,-1.9708,-1.9762,-1.9866,-1.999,-2.0063,-2.0168,-2.0304,-2.0304,-2.0304,-2.0304,-2.0304,-2.0304,-2.0304,-2.0304,-2.0133,-1.9839,-1.9523,-1.9139,-1.8779,-1.8576,-1.8498,-1.84,-1.7841,-1.7455,-1.7052,-1.6367,-1.5935,-1.5604,-1.5357,-1.5289,-1.5233,-1.5108,-1.5108,-1.5108,-1.5108,-1.5108,-1.5108,-1.5108,-1.5108,-1.5108,-1.5108,-1.5108,-1.5108,-1.5108,-1.5108,-1.5108,-1.5108,-1.5108,-1.4971,-1.4685,-1.4466,-1.4176,-1.3755,-1.2914,-1.2378,-1.2218,-1.1626,-1.1301,-1.1301,-1.1301,-1.1251,-1.1124,-1.0633,-1.0659,-1.1116,-1.0421,-0.9847,0.0,0.0,0.0,0.0,-1.6822,0.0,0.0,0.0,-1.4976,-1.4907,0.0,0.0,0.0,0.0,0.0,0.0,0.0,0.0,0.0,0.0,0.0,0.0,0.0,0.0,0.0,-2.3765,-2.4577,-2.6539,-2.4881,-2.4275,-2.5444,-2.4635,-2.3496,-2.2112,-2.1469,-2.0877,-2.0275,-2.0663,-2.0811,-2.0745,-2.0412,-2.0208,-2.0122,-1.9836,-1.9708,-1.9708,-1.9708,-1.9815,-2.0005,-2.0023,-2.0146,-2.0304,-2.0304,-2.0304,-2.0304,-2.0304,-2.0304,-2.0304,-2.0304,-2.0287,-2.015,-1.9578,-1.9003,-1.8537,-1.8517,-1.8498,-1.8327,-1.7509,-1.724,-1.6989,-1.6013,-1.5659,-1.5491,-1.5335,-1.521,-1.5108,-1.5108,-1.5108,-1.5108,-1.5108,-1.5108,-1.5108,-1.5108,-1.5108,-1.5108,-1.5108,-1.5108,-1.5108,-1.5108,-1.5108,-1.5108,-1.5108,-1.5108,-1.4926,-1.4466,-1.4303,-1.4012,-1.3481,-1.2691,-1.2218,-1.2184,-1.1626,-1.1301,-1.1301,-1.1301,-1.104,-1.0506,-1.0429,-1.0454,-1.048,-0.9458,-0.8955,0.0,0.0,0.0,0.0,0.0,0.0,-1.5314,0.0,-1.4148,0.0,0.0,0.0,0.0,0.0,0.0,0.0,-1.5831,0.0,0.0,0.0,0.0,0.0,0.0,0.0,0.0,0.0,0.0,0.0,-2.4644,-2.4223,-2.61,-2.4929,-2.3733,-2.2738,-2.153,-2.0588,-1.9925,-2.0275,-2.0344,-2.017,-2.0189,-2.0087,-1.9925,-1.9764,-1.9708,-1.9708,-1.9708,-1.9797,-2.0005,-2.0005,-2.0113,-2.0304,-2.0304,-2.0304,-2.0304,-2.0304,-2.0304,-2.0304,-2.0304,-2.0304,-2.02,-1.9596,-1.8984,-1.8498,-1.8498,-1.8307,-1.7975,-1.7365,-1.6955,-1.6518,-1.578,-1.548,-1.5345,-1.521,-1.5131,-1.5108,-1.5108,-1.5108,-1.5108,-1.5108,-1.5108,-1.5108,-1.5108,-1.5108,-1.5108,-1.5108,-1.5108,-1.5108,-1.5108,-1.5108,-1.5108,-1.5108,-1.4971,-1.4651,-1.4095,-1.386,-1.3386,-1.2574,-1.1999,-1.1676,-1.1676,-1.1435,-1.1301,-1.1301,-1.1301,-1.1175,-1.0913,-1.0267,-0.9925,-0.9925,-0.9145,-0.8804,-1.9975,0.0,0.0,0.0,0.0,0.0,0.0,0.0,0.0,0.0,0.0,0.0,0.0,0.0,0.0,0.0,0.0,0.0,0.0,0.0,0.0,0.0,0.0,0.0,0.0,0.0,0.0,0.0,0.0,-2.3714,-2.6539,-2.5416,-2.4384,-2.3655,-2.2022,-2.0839,-2.0159,-2.0089,-1.998,-1.9836,-1.9997,-1.998,-1.9836,-1.9729,-1.9708,-1.9708,-1.9726,-1.983,-2.0005,-2.0008,-2.0131,-2.0304,-2.0304,-2.0304,-2.0304,-2.0304,-2.0304,-2.0304,-2.0304,-2.02,-1.999,-1.9541,-1.8984,-1.8498,-1.8498,-1.8155,-1.7686,-1.7269,-1.671,-1.6117,-1.5568,-1.5368,-1.5267,-1.5131,-1.5108,-1.5108,-1.5108,-1.5108,-1.5108,-1.5108,-1.4994,-1.4949,-1.5085,-1.5108,-1.5108,-1.5108,-1.5108,-1.5108,-1.5108,-1.5108,-1.5062,-1.4994,-1.4811,-1.4443,-1.3755,-1.3399,-1.2808,-1.1794,-1.1452,-1.1301,-1.1301,-1.1301,-1.1301,-1.1301,-1.1301,-1.1141,-1.0829,-1.0002,-0.9432,-0.9126,-0.8725,-0.8547,0.0,0.0,0.0,-1.7458,0.0,0.0,0.0,0.0,-1.4519,0.0,0.0,0.0,0.0,0.0,0.0,0.0,0.0,0.0,0.0,0.0,0.0,0.0,0.0,0.0,0.0,0.0,0.0,0.0,0.0,0.0,-2.6454,-2.6228,-2.558,-2.4771,-2.319,-2.1985,-2.1263,-2.0225,-1.9871,-2.0174,-1.9871,-1.9889,-2.0174,-1.9854,-1.9708,-1.9708,-1.9762,-1.9866,-2.0005,-2.0063,-2.0185,-2.0304,-2.0304,-2.0304,-2.0304,-2.0304,-2.0304,-2.0304,-2.0304,-1.9919,-1.9431,-1.9413,-1.8984,-1.8498,-1.8498,-1.8115,-1.7605,-1.7139,-1.6566,-1.5996,-1.5446,-1.5312,-1.5267,-1.5131,-1.5108,-1.5108,-1.5108,-1.5108,-1.5108,-1.5108,-1.4743,-1.4558,-1.5017,-1.5108,-1.5108,-1.5108,-1.5108,-1.5108,-1.5108,-1.5108,-1.4994,-1.4754,-1.4708,-1.4339,-1.3491,-1.3064,-1.2384,-1.1368,-1.1301,-1.1301,-1.1301,-1.1301,-1.1301,-1.1301,-1.1301,-1.0753,-0.9666,-0.9614,-0.904,-0.7955,-0.7928,-0.7928,-2.5336,-2.5058,-2.4191,-2.0473,0.0,0.0,0.0,0.0,0.0,0.0,0.0,0.0,0.0,0.0,0.0,0.0,0.0,0.0,0.0,0.0,0.0,0.0,0.0,0.0,0.0,0.0,0.0,0.0,0.0,0.0,0.0,-2.6262,-2.5667,-2.4942,-2.3542,-2.2449,-2.1757,-2.0617,-2.0102,-2.0191,-1.9871,-1.9747,-1.9871,-1.9747,-1.9726,-1.9762,-1.978,-2.0146,-2.0719,-2.0755,-2.1087,-2.1627,-2.1627,-2.135,-2.0903,-2.0474,-2.0304,-2.027,-2.0048,-1.9999,-1.9958,-1.9288,-1.8798,-1.8439,-1.8135,-1.772,-1.7248,-1.6697,-1.6139,-1.5623,-1.5368,-1.5233,-1.5165,-1.5108,-1.5108,-1.5108,-1.5108,-1.5108,-1.5108,-1.5108,-1.472,-1.4443,-1.4605,-1.4628,-1.4743,-1.5062,-1.5108,-1.5108,-1.5108,-1.4949,-1.4789,-1.4708,-1.4176,-1.36,-1.3064,-1.227,-1.166,-1.1326,-1.1301,-1.1301,-1.1301,-1.1301,-1.1301,-1.1301,-1.1301,-1.0913,-1.0138,-0.9769,-0.9223,-0.8494,-0.8082,-0.7901,-2.7197,-2.713,-2.6289,-2.257,-2.1441,0.0,-1.6465,0.0,-1.5518,0.0,0.0,0.0,0.0,0.0,0.0,0.0,0.0,0.0,0.0,0.0,0.0,0.0,0.0,0.0,0.0,0.0,0.0,0.0,0.0,0.0,0.0,0.0,-2.6028,-2.5579,-2.437,-2.3474,-2.2989,-2.184,-2.1181,-2.0969,-2.0752,-2.0567,-2.0412,-2.043,-2.0467,-2.0523,-2.0612,-2.0983,-2.1476,-2.1513,-2.183,-2.2305,-2.2305,-2.2043,-2.1565,-2.0888,-2.0435,-2.0083,-1.9874,-1.9838,-1.9758,-1.9104,-1.8606,-1.8195,-1.7861,-1.7318,-1.6731,-1.6303,-1.5778,-1.5334,-1.5255,-1.5165,-1.5108,-1.5108,-1.5108,-1.5108,-1.5108,-1.5108,-1.5108,-1.5108,-1.472,-1.4396,-1.4396,-1.4396,-1.4489,-1.4811,-1.4994,-1.5108,-1.5108,-1.4869,-1.4605,-1.4408,-1.3789,-1.3146,-1.253,-1.176,-1.1301,-1.1301,-1.1301,-1.1301,-1.1301,-1.1301,-1.1192,-1.0989,-1.0989,-1.06,-0.9821,-0.9484,-0.904,-0.8468,-0.8082,-0.7901]},{"header":{"parameterUnit":"m.s-1","parameterCategory":1,"la1":30.6,"la2":29.2853,"lo1":-89.7004,"lo2":-87.6739,"dx":0.0162,"dy":0.0183,"nx":112,"ny":82,"refTime":"2022-12-03T18:00:00:Z","depth":0,"parameterNumber":3,"parameterNumberName":"V-component_of_WINDS"},"data":[0.0,0.0,0.0,0.0,0.0,0.0,0.0,0.0,0.0,0.0,0.0,0.0,0.0,0.0,0.0,0.0,0.0,0.0,0.0,0.0,0.0,0.0,0.0,0.0,0.0,0.0,0.0,0.0,0.0,0.0,0.0,0.0,0.0,0.0,0.0,0.0,0.0,0.0,0.0,0.0,0.0,0.0,0.0,0.0,0.0,0.0,0.0,0.0,0.0,0.0,0.0,0.0,0.0,0.0,0.0,0.0,0.0,0.0,0.0,0.0,0.0,0.0,0.0,0.0,0.0,0.0,0.0,0.0,0.0,0.0,0.0,0.0,0.0,0.0,0.0,0.0,0.0,0.0,0.0,0.0,0.0,0.0,0.0,0.0,0.0,0.0,0.0,0.0,0.0,0.0,0.9147,0.9803,1.027,1.0614,1.0815,1.0464,0.9904,0.9151,0.0,0.0,0.0,0.0,0.0,0.0,0.0,0.0,0.0,0.0,0.0,0.0,0.0,0.0,0.0,0.0,0.0,0.0,0.0,0.0,0.0,0.0,0.0,0.0,0.0,0.0,0.0,0.0,0.0,0.0,0.0,0.0,0.0,0.0,0.0,0.0,0.0,0.0,0.0,0.0,0.0,0.0,0.0,0.0,0.0,0.0,0.0,0.0,0.0,0.0,0.0,0.0,0.0,0.0,0.0,0.0,0.0,0.0,0.0,0.0,0.0,0.0,0.0,0.0,0.0,0.0,0.0,0.0,0.0,0.0,0.0,0.0,0.0,0.0,0.0,0.0,0.0,0.0,0.0,0.0,0.0,0.0,0.0,0.0,0.0,0.0,0.0,0.0,0.0,0.0,0.0,0.0,0.0,0.0,0.0,0.0,0.0,0.0,0.0,0.0,0.0,0.0,0.0,0.0,0.9088,1.0853,1.1124,1.1213,1.1375,1.1308,1.0653,0.9189,0.0,0.0,0.0,0.0,0.0,0.0,0.0,0.0,0.0,0.0,0.0,0.0,0.0,0.0,0.0,0.0,0.0,0.0,0.0,0.0,0.0,0.0,0.0,0.0,0.0,0.0,0.0,0.0,0.0,0.0,0.0,0.0,0.0,0.0,0.0,0.0,0.0,0.0,0.0,0.0,0.0,0.0,0.0,0.0,0.0,0.0,0.0,0.0,0.0,0.0,0.0,0.0,0.0,0.0,0.0,0.0,0.0,0.0,0.0,0.0,0.0,0.0,0.0,0.0,0.0,0.0,0.0,0.0,0.0,0.0,0.0,0.0,0.0,0.0,0.0,0.0,0.0,0.0,0.0,0.0,0.0,0.0,0.0,0.0,0.0,0.0,0.0,0.0,0.0,0.0,0.0,0.0,0.0,0.0,0.0,0.0,0.0,0.0,0.0,0.0,0.0,0.0,0.0,0.9426,1.0245,1.1603,1.1719,1.1756,1.1828,1.1632,1.0916,0.952,0.9069,0.0,0.0,0.0,0.0,0.0,0.0,0.0,0.0,0.0,0.0,0.0,0.0,0.0,0.0,0.0,0.0,0.0,0.0,0.0,0.0,0.0,0.0,0.0,0.0,0.0,0.0,0.0,0.0,0.0,0.0,0.0,0.0,0.0,0.0,0.0,0.0,0.0,0.0,0.0,0.0,0.0,0.0,0.0,0.0,0.0,0.0,0.0,0.0,0.0,0.0,0.0,0.0,0.0,0.0,0.0,0.0,0.0,0.0,0.0,0.0,0.0,0.0,0.0,0.0,0.0,0.0,0.0,0.0,0.0,0.0,0.0,0.0,0.0,0.0,0.0,0.0,0.0,0.0,0.0,0.0,0.0,0.0,0.0,0.0,0.0,0.0,0.0,0.0,0.0,0.0,0.0,0.0,0.0,0.0,0.0,0.0,0.0,0.0,0.0,0.0,0.0,0.0,1.0772,1.1426,1.2027,1.2101,1.2101,1.2101,1.1825,1.1113,0.9845,0.962,0.0,0.0,0.0,0.0,0.0,0.0,0.0,0.0,0.0,0.0,0.0,0.0,0.0,0.0,0.0,0.0,0.0,0.0,0.0,0.0,0.0,0.0,0.0,0.0,0.0,0.0,0.0,0.0,0.0,0.0,0.0,0.0,0.0,0.0,0.0,0.0,0.0,0.0,0.0,0.0,0.0,0.0,0.0,0.0,0.0,0.0,0.0,0.0,0.0,0.0,0.0,0.0,0.0,0.0,0.0,0.0,0.0,0.0,0.0,0.0,0.0,0.0,0.0,0.0,0.0,0.0,0.0,0.0,0.0,0.0,0.0,0.0,0.0,0.0,0.0,0.0,0.0,0.0,0.0,0.0,0.0,0.0,0.0,0.0,0.0,0.0,0.0,0.0,0.0,0.0,0.0,0.0,0.0,0.0,0.0,0.0,0.0,0.0,0.0,0.0,0.0,0.0,1.1072,1.2036,1.2092,1.2101,1.2101,1.2101,1.2073,1.1468,1.0065,0.9971,0.0,0.0,0.0,0.0,0.0,0.0,0.0,0.0,0.0,0.0,0.0,0.0,0.0,0.0,0.0,0.0,0.0,0.0,0.0,0.0,0.0,0.0,0.0,0.0,0.0,0.0,0.0,0.0,0.0,0.0,0.0,0.0,0.0,0.0,0.0,0.0,0.0,0.0,0.0,0.0,0.0,0.0,0.0,0.0,0.0,0.0,0.0,0.0,0.0,0.0,0.0,0.0,0.0,0.0,0.0,0.0,0.0,0.0,0.0,0.0,0.0,0.0,0.0,0.0,0.0,0.0,0.0,0.0,0.0,0.0,0.0,0.0,0.0,0.0,0.0,0.0,0.0,0.0,0.0,0.0,0.0,0.0,0.0,0.0,0.0,0.0,0.0,0.0,0.0,0.0,0.0,0.0,0.0,0.0,0.0,0.0,0.0,0.0,0.0,0.0,0.0,0.0,1.0755,1.1635,1.207,1.2101,1.2101,1.2101,1.2101,1.1458,0.9915,0.0,0.0,0.0,0.0,0.0,0.0,0.0,0.0,0.0,0.0,0.0,0.0,0.0,0.0,0.0,0.0,0.0,0.0,0.0,0.0,0.0,0.0,0.0,0.0,0.0,0.0,0.0,0.0,0.0,0.0,0.0,0.0,0.0,0.0,0.0,0.0,0.0,0.0,0.0,0.0,0.0,0.0,0.0,0.0,0.0,0.0,0.0,0.0,0.0,0.0,0.0,0.0,0.0,0.0,0.0,0.0,0.0,0.0,0.0,0.0,0.0,0.0,0.0,0.0,0.0,0.0,0.0,0.0,0.0,0.0,0.0,0.0,0.0,0.0,0.0,0.0,0.0,0.0,0.0,0.0,0.0,0.0,0.0,0.0,0.0,0.0,0.0,0.0,0.0,0.0,0.0,0.0,0.0,0.0,0.0,0.0,0.0,0.0,0.0,0.0,0.0,0.0,0.9689,1.0773,1.1649,1.212,1.2126,1.2101,1.2101,1.2101,1.138,0.9709,0.0,0.0,0.0,0.0,0.0,0.0,0.0,0.0,0.0,0.0,0.0,0.0,0.0,0.0,0.0,0.0,0.0,0.0,0.0,0.0,0.0,0.0,0.0,0.0,0.0,0.0,0.0,0.0,0.0,0.0,0.0,0.0,0.0,0.0,0.0,0.0,0.0,0.0,0.0,0.0,0.0,0.0,0.0,0.0,0.0,0.0,0.0,0.0,0.0,0.0,0.0,0.0,0.0,0.0,0.0,0.0,0.0,0.0,0.0,0.0,0.0,0.0,0.0,0.0,0.0,0.0,0.0,0.0,0.0,0.0,0.0,0.0,0.0,0.0,0.0,0.0,0.0,0.0,0.0,0.0,0.0,0.0,0.0,0.0,0.0,0.0,0.0,0.0,0.0,0.0,0.0,0.0,0.0,0.0,0.0,0.0,0.0,0.0,0.0,0.0,0.0,0.0,0.9854,1.1313,1.2298,1.2298,1.2175,1.2101,1.2101,1.2101,1.132,0.0,0.0,0.0,0.0,0.0,0.0,0.0,0.0,0.0,0.0,0.0,0.0,0.0,0.0,0.0,0.0,0.0,0.0,0.0,0.0,0.0,0.0,0.0,0.0,0.0,0.0,0.0,0.0,0.0,0.0,0.0,0.0,0.0,0.0,0.0,0.0,0.0,0.0,0.0,0.0,0.0,0.0,0.0,0.0,0.0,0.0,0.0,0.0,0.0,0.0,0.0,0.0,0.0,0.0,0.0,0.0,0.0,0.0,0.0,0.0,0.0,0.0,0.0,0.0,0.0,0.0,0.0,0.0,0.0,0.0,0.0,0.0,0.0,0.0,0.0,0.0,0.0,0.0,0.0,0.0,0.0,0.0,0.0,0.0,0.0,0.0,0.0,0.0,0.0,0.0,0.0,0.0,0.0,0.0,0.0,0.0,0.0,0.0,0.0,0.0,0.0,0.0,0.0,0.9864,1.147,1.2505,1.2323,1.2249,1.22,1.2101,1.2101,1.1283,0.931,0.0,0.0,0.0,0.0,0.0,0.0,0.0,0.0,0.0,0.0,0.0,0.0,0.0,0.0,0.0,0.0,0.0,0.0,0.0,0.0,0.0,0.0,0.0,0.0,0.0,0.0,0.0,0.0,0.0,0.0,0.0,0.0,0.0,0.0,0.0,0.0,0.0,0.0,0.0,0.0,0.0,0.0,0.0,0.0,0.0,0.0,0.0,0.0,0.0,0.0,0.0,0.0,0.0,0.0,0.0,0.0,0.0,0.0,0.0,0.0,0.0,0.0,0.0,0.0,0.0,0.0,0.0,0.0,0.0,0.0,0.0,0.0,0.0,0.0,0.0,0.0,0.0,0.0,0.0,0.0,0.0,0.0,0.0,0.0,0.0,0.0,0.0,0.0,0.0,0.0,0.0,0.0,0.0,0.0,0.0,0.0,0.0,0.0,0.0,0.0,0.0,0.0,0.9962,1.1583,1.2627,1.248,1.2397,1.2332,1.22,1.2298,1.1555,0.9619,0.0,0.0,0.0,0.0,0.0,0.0,0.0,0.0,0.0,0.0,0.0,0.0,0.0,0.0,0.0,0.0,0.0,0.0,0.0,0.0,0.0,0.0,0.0,0.0,0.0,0.0,0.0,0.0,0.0,0.0,0.0,0.0,0.0,0.0,0.0,0.0,0.0,0.0,0.0,0.0,0.0,0.0,0.0,0.0,0.0,0.0,0.0,0.0,0.0,0.0,0.0,0.0,0.0,0.0,0.0,0.0,0.0,0.0,0.0,0.0,0.0,0.0,0.0,0.0,0.0,0.0,0.0,0.0,0.0,0.0,0.0,0.0,0.0,0.0,0.0,0.0,0.0,0.0,0.0,0.0,0.0,0.0,0.0,0.0,0.0,0.0,0.0,0.0,0.0,0.0,0.0,0.0,0.0,0.0,0.0,0.0,0.0,0.0,0.0,0.0,0.0,0.0,1.007,1.1673,1.27,1.27,1.2603,1.248,1.2397,1.2657,1.2073,1.0302,0.0,0.0,0.0,0.0,0.0,0.0,0.0,0.0,0.0,0.0,0.0,0.0,0.0,0.0,0.0,0.0,0.0,0.0,0.0,0.0,0.0,0.0,0.0,0.0,0.0,0.0,0.0,0.0,0.0,0.0,0.0,0.0,0.0,0.0,0.0,0.0,0.0,0.0,0.0,0.0,0.0,0.0,0.0,0.0,0.0,0.0,0.0,0.0,0.0,0.0,0.0,0.0,0.0,0.0,0.0,0.0,0.0,0.0,0.0,0.0,0.7188,0.675,0.0,0.0,0.0,0.0,0.0,0.0,0.0,0.0,0.0,0.0,0.0,0.0,0.0,0.0,0.0,0.0,0.0,0.0,0.0,0.0,0.0,0.0,0.0,0.0,0.0,0.0,0.0,0.0,0.0,0.0,0.0,0.0,0.0,0.0,0.0,0.0,0.0,0.0,0.0,0.0,1.0089,1.1772,1.2832,1.27,1.2676,1.274,1.2977,1.3074,1.2486,1.0983,1.0787,0.0,0.0,0.0,0.0,0.0,0.0,0.0,0.0,0.0,0.0,0.0,0.0,0.0,0.0,0.0,0.0,0.0,0.0,0.0,0.0,0.0,0.0,0.0,0.0,0.0,0.0,0.0,0.0,0.0,0.0,0.0,0.0,0.0,0.0,0.0,0.0,0.0,0.0,0.0,0.0,0.0,0.0,0.0,0.0,0.0,0.0,0.0,0.0,0.0,0.0,0.0,0.0,0.0,0.0,0.0,0.0,0.0,0.0,0.0,0.8417,0.7866,0.0,0.0,0.0,0.0,0.0,0.0,0.0,0.0,0.0,0.0,0.0,0.0,0.0,0.0,0.0,0.0,0.0,0.0,0.0,0.0,0.0,0.0,0.0,0.0,0.0,0.0,0.0,0.0,0.0,0.0,0.0,0.0,0.0,0.0,0.0,0.0,0.0,0.0,0.0,0.0,1.0166,1.1807,1.2968,1.3128,1.3128,1.3286,1.3647,1.3826,1.3479,1.245,1.216,0.0,0.0,0.0,0.0,0.0,0.0,0.0,0.0,0.0,0.0,0.0,0.0,0.0,0.0,0.0,0.0,0.0,0.0,0.0,0.0,0.0,0.0,0.0,0.0,0.0,0.0,0.0,0.0,0.0,0.0,0.0,0.0,0.0,0.0,0.0,0.0,0.0,0.0,0.0,0.0,0.0,0.0,0.0,0.0,0.0,0.0,0.0,0.0,0.0,0.0,0.0,0.0,0.0,0.9432,0.9706,0.9823,1.0357,1.0716,1.081,0.9933,0.9445,0.9251,0.8342,0.0,0.0,0.0,0.0,0.0,0.0,0.0,0.0,0.0,0.0,0.0,0.0,0.0,0.0,0.0,0.0,0.0,0.0,0.0,0.0,0.0,0.0,0.9539,0.9843,1.0333,1.0584,1.0008,0.0,0.0,0.0,0.0,0.0,0.0,0.0,0.0,0.0,0.0,0.0,1.0449,1.1984,1.3162,1.3573,1.3597,1.38,1.4316,1.4536,1.4428,1.4004,1.3561,1.2547,0.0,0.0,0.0,0.0,0.0,0.0,0.0,0.0,0.0,0.0,0.0,0.0,0.0,0.0,0.0,0.0,0.0,0.0,0.0,0.0,0.0,0.0,0.0,0.0,0.0,0.0,0.0,0.0,0.0,0.0,0.0,0.0,0.5576,0.5609,0.0,0.0,0.0,0.0,0.0,0.0,0.0,0.0,0.0,0.0,0.0,0.0,0.0,0.8686,0.8774,0.9016,0.9371,0.9826,1.0151,1.0538,1.1014,1.1592,1.1594,1.1173,1.1532,0.0,1.0525,1.0035,0.0,0.0,0.0,0.0,0.0,0.0,0.0,0.0,0.0,0.0,0.0,0.0,0.0,0.0,0.0,0.0,0.0,0.0,0.0,0.0,0.0,0.0,1.1794,1.222,1.2445,1.2642,1.293,1.0937,0.9086,0.9234,0.8909,0.8325,0.0,0.0,0.0,0.0,0.0,0.0,1.1261,1.266,1.3525,1.3586,1.3597,1.3965,1.4892,1.4605,1.4451,1.4644,1.4599,1.3592,1.1398,1.0794,0.0,0.0,0.0,0.0,0.0,0.0,0.0,0.0,0.0,0.0,0.0,0.0,0.0,0.0,0.0,0.0,0.0,0.0,0.0,0.0,0.0,0.0,0.0,0.0,0.0,0.0,0.0,0.0,0.0,0.5646,0.5832,0.5976,0.6531,0.6792,0.0,0.0,0.0,0.0,0.0,0.0,0.0,0.0,0.0,0.898,0.8987,0.9068,0.9204,0.9351,0.9543,0.9789,1.0494,1.0973,1.1234,1.215,1.2397,1.2166,1.2421,1.2318,1.1885,1.0724,1.0043,0.9679,0.0,0.0,0.0,0.0,0.9327,0.9256,1.0105,1.0248,1.0009,0.9834,0.0,0.0,0.0,0.0,0.0,0.0,0.0,1.0459,1.1082,1.1521,1.1991,1.2686,1.3069,1.3344,1.3573,1.2576,1.1401,1.0508,0.9796,0.897,0.785,0.8273,0.0,0.0,0.0,1.0939,1.1506,1.2533,1.332,1.3573,1.3847,1.4281,1.504,1.5119,1.5207,1.536,1.5348,1.4779,1.3485,1.2319,1.1025,0.0,0.0,0.0,0.0,0.0,0.0,0.0,0.0,0.0,0.0,0.0,0.0,0.0,0.0,0.0,0.0,0.0,0.0,0.0,0.0,0.0,0.0,0.0,0.0,0.0,0.0,0.0,0.0,0.6228,0.6442,0.658,0.7206,0.7389,0.0,0.0,0.0,0.0,0.0,0.0,0.8919,0.8926,0.9036,0.9302,0.931,0.9387,0.9607,0.9588,0.9666,0.9821,1.0744,1.1276,1.146,1.2446,1.2905,1.2905,1.2905,1.2905,1.2808,1.1495,1.0899,1.0723,1.0185,0.9899,0.9894,1.0547,1.0594,1.0491,1.1463,1.1589,1.1296,1.1054,1.0899,1.0772,1.0454,0.0,0.0,0.0,0.0,1.1426,1.1824,1.2029,1.23,1.3087,1.343,1.3658,1.3918,1.3716,1.3083,1.1834,1.0971,1.0069,0.8889,0.9582,0.0,0.9322,1.0676,1.1816,1.191,1.2612,1.3272,1.3729,1.3978,1.4444,1.5221,1.5356,1.5536,1.5792,1.5792,1.5552,1.5025,1.3803,1.2693,1.173,0.0,0.0,0.0,0.0,0.0,0.0,0.0,0.0,0.0,0.0,0.0,0.0,0.0,0.0,0.0,0.0,0.0,0.0,0.0,0.0,0.0,0.0,0.0,0.0,0.0,0.0,0.0,0.0,0.0,0.7386,0.7892,0.0,0.0,0.0,0.0,0.9102,0.9138,0.927,0.953,0.9563,0.957,0.9592,0.9592,0.9599,0.9588,0.9588,0.9847,1.0377,1.0922,1.151,1.2076,1.2627,1.2905,1.2905,1.2905,1.2905,1.2881,1.2808,1.2497,1.2095,1.2056,1.183,1.1521,1.1957,1.2079,1.2151,1.2652,1.2808,1.2788,1.2764,1.2503,1.2203,1.2182,1.1971,0.0,0.0,1.2214,1.2325,1.272,1.3164,1.3629,1.4107,1.3918,1.3847,1.4834,1.3967,1.3116,1.3398,1.307,1.2455,1.1567,0.0,1.2004,1.1514,1.1905,1.2391,1.2801,1.3266,1.3729,1.4212,1.3884,1.4212,1.5637,1.4903,1.4789,1.5748,1.5792,1.5552,1.5025,1.4929,1.3863,1.1742,1.1291,0.0,0.0,0.0,0.0,0.0,0.0,0.0,0.0,0.0,0.0,0.0,0.0,0.0,0.0,0.0,0.0,0.0,0.0,0.0,0.0,0.0,0.0,0.0,0.0,0.0,0.0,0.0,0.0,0.7961,0.837,0.0,0.8391,0.8921,0.9255,0.9207,0.9351,0.9504,0.9581,0.9588,0.9588,0.9588,0.9588,0.9588,0.9588,0.9588,0.9873,1.0403,1.093,1.151,1.2126,1.2652,1.2905,1.2905,1.2905,1.2905,1.2905,1.2905,1.2793,1.2646,1.2646,1.2549,1.2445,1.2588,1.2646,1.2676,1.2856,1.2905,1.2905,1.2905,1.2809,1.2742,1.3055,1.3053,1.3052,1.3472,1.358,1.3552,1.3396,1.3478,1.3573,1.343,1.3729,1.4071,1.4129,1.4254,1.4211,1.3708,1.3499,1.3115,1.2208,1.2653,1.2894,1.2166,1.2405,1.2745,1.289,1.3041,1.3344,1.38,1.3705,1.4082,1.5244,1.5028,1.5096,1.577,1.5792,1.5708,1.5516,1.5181,1.4485,1.3401,1.2914,1.1206,0.0,0.0,0.0,0.0,0.0,0.0,0.0,0.0,0.0,0.0,0.0,0.0,0.0,0.0,0.0,0.0,0.0,0.0,0.0,0.0,0.0,0.0,0.0,0.0,0.0,0.8333,0.8508,0.8602,0.888,0.9027,0.888,0.9314,0.9533,0.9336,0.9504,0.9588,0.9588,0.9588,0.9588,0.9588,0.9588,0.9588,0.9588,0.9769,1.0061,1.0403,1.1158,1.1719,1.2126,1.2652,1.2905,1.2905,1.2905,1.2905,1.2905,1.2905,1.2905,1.2905,1.2905,1.2905,1.2905,1.2905,1.2905,1.2905,1.2905,1.2905,1.2905,1.2905,1.3017,1.3176,1.3501,1.3705,1.3871,1.4025,1.4188,1.4165,1.3525,1.3597,1.3705,1.3248,1.3729,1.4212,1.3907,1.4351,1.4593,1.3752,1.3651,1.3424,1.264,1.3114,1.3328,1.2575,1.2858,1.3078,1.2891,1.3014,1.332,1.38,1.3847,1.4235,1.5244,1.4853,1.4905,1.5746,1.5478,1.5442,1.578,1.4962,1.4261,1.377,1.3137,1.1528,0.891,0.0,0.0,0.0,0.0,0.0,0.0,0.0,0.0,0.0,0.0,0.0,0.0,0.0,0.0,0.0,0.0,0.0,0.0,0.0,0.0,0.0,0.0,0.0,0.9214,0.9431,0.9504,0.9251,0.9446,0.9504,0.9244,0.9446,0.9588,0.9588,0.9588,0.9588,0.9588,0.9588,0.9588,0.9588,0.9588,0.9588,0.9588,1.0138,1.0403,1.0454,1.1569,1.2101,1.215,1.2652,1.2905,1.2905,1.2905,1.2905,1.2905,1.2905,1.2905,1.2905,1.2905,1.2905,1.2905,1.2905,1.2905,1.2905,1.2905,1.2905,1.2905,1.2905,1.32,1.3586,1.3597,1.3918,1.4165,1.3729,1.3941,1.4071,1.3162,1.3597,1.4165,1.3681,1.3941,1.4281,1.4258,1.4271,1.4165,1.3681,1.361,1.3478,1.3002,1.3296,1.3418,1.2906,1.3271,0.0,1.2884,1.3281,1.3766,1.4215,1.425,1.4675,1.5678,1.4376,1.4153,1.5698,1.4895,1.4787,1.5766,1.4377,1.3324,1.2811,1.1958,1.127,1.0747,0.0,0.0,0.0,0.0,0.0,0.0,0.0,0.0,0.0,0.0,0.0,0.0,0.0,0.0,0.0,0.0,0.0,0.0,0.0,0.0,0.0,0.9292,0.9497,0.9497,0.9563,0.9585,0.9504,0.9563,0.9585,0.9504,0.9563,0.9588,0.9588,0.9588,0.9588,0.9588,0.9588,0.9588,0.9588,0.9588,0.9588,0.9588,1.0138,1.06,1.0981,1.1744,1.2298,1.2686,1.2832,1.2905,1.2905,1.2905,1.2905,1.2905,1.2905,1.2905,1.2905,1.2905,1.2905,1.2905,1.2905,1.2905,1.2905,1.2905,1.2905,1.2905,1.2905,1.3002,1.3162,1.3501,1.3454,1.3406,1.3954,1.3965,1.3729,1.3478,1.3597,1.3658,1.32,1.3454,1.3705,1.3368,1.3823,1.4165,1.3681,1.386,1.3954,1.3478,1.3501,1.3663,1.3854,1.3419,1.316,1.3351,1.3514,1.3491,1.3249,1.3216,1.3624,1.4641,1.3956,1.4153,1.5698,1.5538,1.5514,1.578,1.5394,1.5059,1.4812,1.311,1.2058,0.0,0.0,0.0,0.0,0.0,0.0,0.0,0.0,0.0,0.0,0.0,0.0,0.0,0.0,0.0,0.0,0.0,0.0,0.0,0.0,0.0,0.0,0.9424,0.9588,0.9588,0.9588,0.9588,0.9588,0.9588,0.9588,0.9588,0.9588,0.9588,0.9588,0.9588,0.9588,0.9588,0.9588,0.9588,0.9588,0.9588,0.9588,0.9588,1.0336,1.0905,1.1209,1.2042,1.2603,1.2905,1.2905,1.2905,1.2905,1.2905,1.2905,1.2905,1.2905,1.2905,1.2905,0.0,0.0,0.0,0.0,1.2905,1.2905,1.2905,1.2905,1.2905,1.2905,1.2905,1.2954,1.3224,1.3113,1.3017,1.3573,1.3658,1.3549,1.3368,1.3454,1.3478,1.3017,1.3272,1.3525,1.3248,1.3776,1.4165,1.3681,1.3978,0.0,1.3681,1.3597,1.369,1.3975,1.3389,1.3078,1.3548,1.3778,1.3765,1.3455,1.3814,1.4298,1.4869,1.4266,0.0,0.0,0.0,1.513,1.5057,1.5176,0.0,0.0,0.0,1.3395,1.3866,1.3403,0.0,0.0,1.2231,1.2061,0.0,0.0,0.0,0.0,0.0,0.0,0.0,0.0,0.0,0.0,0.0,0.0,0.0,0.0,0.0,0.0,0.9497,0.9588,0.9588,0.9588,0.9588,0.9588,0.9588,0.9588,0.9588,0.9588,0.9588,0.9588,0.9588,0.9588,0.9588,0.9588,0.0,0.0,0.0,0.9588,0.9588,1.0609,1.1108,1.1124,1.219,1.2749,1.2808,1.2808,1.2832,1.2905,1.2905,1.2905,1.2905,1.2905,1.2905,1.2905,1.2905,1.2905,1.2905,1.2905,1.2905,1.2905,1.2905,0.0,0.0,1.2905,1.2905,1.2905,1.2905,1.2905,1.2905,1.2905,1.321,1.343,1.3017,1.32,1.3406,1.3002,1.3224,1.3549,1.3597,1.3941,1.4118,1.3752,1.4025,1.4165,1.3752,1.3634,1.364,1.376,1.3325,1.3165,1.3615,1.41,1.4331,1.4152,1.5036,0.0,1.5634,1.4811,1.4727,1.5754,1.5009,1.445,1.4275,1.4589,1.4561,1.4123,1.4409,1.5168,1.6443,1.7064,1.7524,1.7689,1.3038,1.2344,0.0,0.0,0.0,0.0,0.0,0.0,0.0,0.0,0.0,0.0,0.0,0.0,0.0,0.0,0.0,1.0134,0.9835,0.9588,0.9588,0.9588,0.9588,0.9588,0.9588,0.9588,0.9588,0.9588,0.9588,0.9588,0.9588,0.9588,0.9588,0.9588,0.9588,0.9588,0.9588,0.9588,0.9588,1.0241,1.0549,1.0549,1.1234,0.0,1.2249,1.2249,1.2505,1.2905,1.2905,1.2905,1.2905,1.2905,1.2905,1.2905,1.2905,1.2905,1.2905,1.2905,1.2905,1.2905,1.2905,1.2905,1.2905,1.2905,1.2905,1.2905,1.2905,1.2905,0.0,1.2905,1.2978,1.3017,1.2929,1.2978,1.3017,1.2929,1.2978,1.3138,1.3525,1.3658,1.3823,1.4118,1.4235,1.4281,1.4188,1.3847,1.3886,1.4676,1.4052,1.3627,1.4105,1.4619,1.4474,1.3227,1.3993,1.4602,1.4602,1.441,1.4727,1.5754,1.588,1.5901,1.5852,1.6219,1.6508,1.6679,1.7052,1.7281,1.7347,1.8063,1.8188,1.7765,1.6646,1.6567,0.0,0.0,0.0,0.0,0.0,0.0,0.0,0.0,0.0,0.0,0.0,1.0392,0.0,0.0,1.0155,1.0005,0.9769,0.9588,0.9588,0.9588,0.9588,0.9588,0.976,0.9855,0.9855,1.0002,1.0104,1.0104,1.0104,1.0031,0.9863,0.9855,0.9782,0.9621,0.9588,0.9588,0.9588,1.0138,1.0403,1.0403,1.093,1.136,1.1669,1.1968,1.2258,1.2505,1.2783,1.2905,1.2905,1.2905,1.2905,1.2905,1.2905,1.2905,1.2905,1.2905,1.2905,1.2905,1.2905,1.2905,1.2905,1.2905,1.2905,1.2905,1.2905,1.2905,1.2905,1.2905,1.2905,1.2905,1.2905,1.2905,1.2905,1.2905,1.2905,1.3089,1.38,1.3954,1.4095,1.4605,1.4709,1.4709,1.4709,1.4281,1.4212,1.4994,1.4246,1.3871,1.4605,1.4709,1.4518,1.3993,1.4607,1.5043,1.5043,1.5198,1.5438,1.5778,1.6454,1.6774,1.6616,1.7115,1.757,1.7928,1.8147,1.8384,1.8662,1.9019,1.9153,1.9057,1.8949,1.8778,0.0,0.0,0.0,0.0,0.0,0.0,0.0,0.0,1.0913,1.1345,1.1524,1.1396,1.0731,1.0545,1.0368,0.9911,0.9703,0.9588,0.9588,0.9588,0.961,0.9702,0.9943,1.0126,1.0192,1.0433,1.0587,1.0587,1.0587,1.047,1.0207,1.0192,1.0046,0.9716,0.9709,0.968,0.9614,1.0035,1.0241,1.0241,1.0668,1.0947,1.1057,1.1669,1.2002,1.2126,1.2686,1.2905,1.2905,1.2905,1.2905,1.2905,1.2905,1.2905,1.2905,1.2905,1.2905,1.2905,1.2905,1.2905,1.2905,1.2905,1.2905,1.2905,1.2905,1.2905,1.2905,1.2905,1.2905,1.2905,1.2905,1.2905,1.2905,1.2905,1.2905,1.3162,1.4095,1.4305,1.4467,1.4994,1.5108,1.5108,1.5108,1.4743,1.4628,1.5153,1.4478,1.4176,1.4994,1.48,1.472,1.5062,1.5513,1.5836,1.5891,1.6129,1.6216,1.6035,1.6892,1.7282,1.7002,1.7584,1.8089,1.8481,1.8592,1.8959,1.9708,1.978,1.9975,2.0306,2.0384,2.0015,1.0565,1.0507,1.0455,1.0126,1.0294,1.0712,0.0,0.0,1.1495,1.1579,1.1967,1.2068,1.1416,1.1043,1.083,1.0758,1.0113,0.9588,0.9588,0.9588,0.9724,1.0009,1.0082,1.0214,1.0507,1.0565,1.0587,1.0587,1.0587,1.0572,1.0564,1.0536,1.0382,1.0053,1.0046,0.9907,0.9588,0.9666,0.9692,0.9692,0.9744,1.0028,1.0506,1.1057,1.1585,1.2126,1.2686,1.2905,1.2905,1.2905,1.2905,1.2905,1.2905,1.2905,1.2905,1.2905,1.2905,1.2905,1.2905,1.2905,1.2905,1.2905,1.2905,1.2905,1.2905,1.2905,1.2905,1.2905,1.2905,1.2905,1.2905,1.2905,1.2905,1.2905,1.2905,1.3162,1.4095,1.4305,1.4467,1.4994,1.5108,1.5108,1.5108,1.5062,1.5176,1.5659,1.5266,1.496,1.5085,1.5401,1.5491,1.5131,1.5513,1.5913,1.6216,1.6269,1.6432,1.6769,1.7178,1.7372,1.7352,1.7706,1.8089,1.8481,1.8841,1.9254,1.9708,2.0063,2.0252,2.0321,2.0895,2.0774,1.1114,1.1041,0.0,0.0,1.0938,1.1309,1.1736,1.1977,1.2182,1.2307,1.2523,1.2419,1.1567,1.1296,1.1091,0.0,1.0431,1.0185,1.0185,1.0185,1.0302,1.0631,1.0667,1.0748,1.0887,1.107,1.1188,1.1188,1.1188,1.11,1.0909,1.0902,1.0638,1.0119,1.0104,0.9943,0.9588,0.9588,0.9588,0.9588,0.9588,0.9873,1.0429,1.0956,1.1685,1.2578,1.2808,1.2905,1.2905,1.2905,1.2905,1.2905,1.2905,1.2905,1.2905,1.2905,1.2905,1.2905,1.2905,1.2905,1.2905,1.2905,1.2905,1.2905,1.2905,1.2905,1.2905,1.2905,1.2905,1.2905,1.2905,1.2905,1.2905,1.2905,1.2905,1.3162,1.4095,1.4305,1.4536,1.5356,1.5289,1.5198,1.5446,1.5289,1.5266,1.5726,1.5401,1.5198,1.5468,1.5424,1.5424,1.5491,1.5856,1.6151,1.629,1.6676,1.6934,1.6897,1.7399,1.7591,1.7413,1.7727,1.8208,1.8841,1.9007,1.9435,2.0113,2.0235,2.0321,2.0356,2.1007,2.113,1.1217,1.1217,0.0,1.1107,1.1349,1.168,1.206,1.2337,1.2562,1.2738,1.2777,1.2517,1.1618,1.137,1.1193,1.0805,1.0674,1.0587,1.0587,1.0587,1.0711,1.1063,1.1107,1.1144,1.1232,1.1452,1.1591,1.1591,1.1591,1.1489,1.1254,1.1239,1.0982,1.0389,1.0368,1.0214,0.9885,0.9885,0.9833,0.9746,0.9746,0.9963,1.0429,1.1133,1.2047,1.3071,1.2954,1.2905,1.2905,1.2905,1.2905,1.2905,1.2905,1.2905,1.2905,1.2905,1.2905,1.2905,1.2905,1.2905,1.2905,1.2905,1.2905,1.2905,1.2905,1.2905,1.2905,1.2905,1.2905,1.2905,1.2905,1.2905,1.2905,1.2905,1.3002,1.332,1.4142,1.4421,1.4766,1.5625,1.5525,1.5401,1.5748,1.5513,1.5401,1.5748,1.5525,1.5424,1.577,1.5491,1.5424,1.577,1.6098,1.6333,1.6454,1.7026,1.7344,1.7191,1.7625,1.7808,1.7632,1.7808,1.8293,1.9176,1.9139,1.9527,2.0371,2.0321,2.0321,2.0405,2.1007,2.1308,1.0697,1.0865,1.1107,1.1107,1.1349,1.1771,1.2351,1.2504,1.2504,1.2496,1.2527,1.2312,1.1717,1.1336,1.1085,1.1092,1.0821,1.0587,1.0587,1.0587,1.0711,1.1063,1.1107,1.1232,0.0,1.1591,1.1591,1.1591,1.1591,1.1591,1.1577,1.1577,1.1423,1.1085,1.1078,1.0916,1.0565,1.0558,1.0404,1.0082,1.0082,1.0188,1.0454,1.1569,1.2588,1.3467,1.3057,1.2905,1.2905,1.2905,1.2905,1.2905,1.2905,1.2905,1.2905,1.2905,1.2905,1.2905,1.2905,1.2905,1.2905,1.2905,1.2905,1.2905,1.2905,1.2905,1.2905,1.2905,1.2905,1.2905,1.2905,1.2905,1.2905,1.2905,1.3248,1.3705,1.4212,1.4697,1.5221,1.5703,1.5792,1.5792,1.5792,1.5792,1.5792,1.5792,1.5792,1.5792,1.5792,1.5792,1.5792,1.5792,1.6098,1.6454,1.6854,1.7199,1.7529,1.7862,1.7882,1.7983,1.8163,1.8003,1.8372,1.9369,1.9199,1.9508,2.0304,2.0304,2.0321,2.0405,2.1007,2.1323,1.0909,1.1019,1.1158,1.1371,1.1511,1.1654,1.1864,1.1888,1.1888,1.1888,1.1888,1.1833,1.1654,1.1503,1.143,1.143,1.1335,1.1261,1.1261,1.1261,1.1305,1.1415,1.143,0.0,0.0,0.0,1.1591,1.1591,1.1591,1.1591,1.1591,1.1591,1.1445,1.1114,1.1107,1.0946,1.0594,1.0587,1.0528,1.0454,1.0938,1.1431,1.1929,1.242,1.2957,1.3486,1.3066,1.2905,1.2905,1.2905,1.2905,1.2905,1.2905,1.2905,1.2905,1.2905,1.2905,1.2905,1.2905,1.2905,1.2905,1.2905,1.2905,1.2905,1.2905,1.2905,1.2905,1.2905,1.2905,1.2905,1.2905,1.2905,1.2968,1.3296,1.3478,1.3823,1.4663,1.496,1.5244,1.5703,1.5792,1.5792,1.5792,1.5792,1.5792,1.5792,1.5792,1.5869,1.6098,1.6129,1.6129,1.6129,1.6667,1.6997,1.6897,1.7419,1.7767,1.7882,1.7902,1.7983,1.8183,1.8143,1.8528,1.9442,1.9402,1.9764,2.0575,2.0475,2.0492,2.0609,2.1166,2.1447,1.1012,1.1107,1.118,1.1511,1.1591,1.1591,1.1591,1.1591,1.1591,1.1591,1.1591,1.1591,1.1591,1.1591,1.1591,1.1591,1.1591,1.1591,1.1591,1.1591,1.1591,1.1591,1.1591,1.1591,0.0,0.0,0.0,1.1591,1.1591,1.1591,1.1591,1.1591,1.1496,1.1291,1.1276,1.118,1.0968,1.0968,1.0909,1.0784,1.1782,1.2467,1.2806,1.3182,1.3564,1.3945,1.3516,1.3242,1.3105,1.3105,1.3042,1.2905,1.2905,1.2905,1.2905,1.2905,1.2905,1.2905,1.2905,1.2905,1.2905,1.2905,1.2905,1.2905,1.2905,1.2905,1.2905,1.2905,1.2905,1.2905,1.2905,1.3017,1.3224,1.3525,1.3871,1.4316,1.4971,1.5221,1.5424,1.5748,1.5792,1.5792,1.5792,1.5792,1.5792,1.5792,1.5792,1.5913,1.6247,1.629,1.6355,1.6509,1.706,1.7323,1.7094,1.7584,1.7902,1.7902,1.7963,1.8103,1.8301,1.8321,1.8721,1.9588,1.9533,1.9871,2.0627,2.0544,2.0577,2.071,2.1261,2.1524,1.1019,1.1114,1.1202,1.1518,1.1591,1.1591,1.1591,1.1591,1.1591,1.1569,1.1569,1.1562,0.0,0.0,1.1569,1.1569,1.1584,1.1591,1.1591,1.1591,1.1591,0.0,0.0,0.0,0.0,0.0,0.0,1.1591,1.1591,1.1591,1.1591,1.1591,1.1591,1.1591,1.1591,1.1591,1.1591,1.1591,1.1461,1.1159,1.2597,1.3211,1.3073,1.3781,1.4375,1.4756,1.4299,1.388,1.3535,1.3516,1.3271,1.2935,1.2915,1.2905,1.2905,1.2905,1.2905,1.2905,1.2905,1.2905,1.2905,1.2905,1.2905,1.2905,1.2905,1.2905,1.2905,1.2905,1.2929,1.2954,1.2954,1.3272,1.3634,1.3658,1.4408,1.5108,1.5131,1.5491,1.5792,1.5792,1.5792,1.5792,1.5792,1.5792,1.5814,1.5814,1.5836,1.5957,1.6303,1.6333,1.6475,1.6876,1.722,1.7427,1.7393,1.7706,1.7902,1.7902,1.8083,1.8301,1.8498,1.8517,1.8917,1.9788,1.9624,1.9839,2.0527,2.0527,2.0578,2.0726,2.1261,2.1586,1.1078,1.1283,1.1489,1.1569,1.1591,1.1591,1.1591,1.1591,1.1525,1.1276,1.1232,1.1151,0.0,0.0,0.0,1.1232,1.1437,0.0,1.1591,1.1591,0.0,1.1591,0.0,1.2097,1.1654,1.2004,0.0,1.1622,1.1591,1.1591,1.1591,1.1591,1.1591,1.1591,1.1591,1.1591,1.1591,1.1591,1.1637,1.1709,1.2592,1.3195,1.3618,1.3946,1.4375,1.4756,1.4299,1.4046,1.3929,1.3607,1.3447,1.3311,1.3023,1.2905,1.2905,1.2905,1.2905,1.2905,1.2905,1.2905,1.2905,1.2905,1.2905,1.2905,1.2905,1.2905,1.2905,1.2905,1.3162,1.3406,1.3406,1.3776,1.4212,1.4617,1.4915,1.5198,1.5547,1.5726,1.5792,1.5792,1.5792,1.5792,1.5792,1.5792,1.5869,1.6129,1.6173,1.6303,1.6693,1.6757,1.6884,1.724,1.757,1.7686,1.7413,1.7706,1.7902,1.7902,1.8083,1.8301,1.8498,1.8625,1.9105,1.9922,1.9902,2.015,2.0728,2.0728,2.0745,2.0778,2.1433,2.1736,1.1276,1.1236,1.1122,1.1122,1.0895,1.0728,1.0884,1.0948,1.0918,1.0894,1.0887,1.0806,1.0616,1.0887,1.1107,0.0,0.0,0.0,1.1591,1.1591,1.1591,0.0,1.1888,0.0,1.2011,1.2305,1.2489,1.2444,1.1926,1.1591,1.1591,1.1591,1.1591,1.1591,1.1864,1.1973,1.1973,1.229,1.2341,1.2166,1.3126,1.3635,1.3675,1.4374,1.4656,1.4678,1.4665,1.4562,1.4404,1.417,1.3848,1.3486,1.3242,1.3071,1.2905,1.2905,1.2905,1.2905,1.2905,1.2905,1.2905,1.2905,1.2905,1.2905,1.2905,1.2905,1.2954,1.3162,1.3392,1.3644,1.3847,1.4281,1.4731,1.504,1.5266,1.5468,1.5748,1.5792,1.5792,1.5792,1.5792,1.5792,1.5792,1.5792,1.5913,1.6247,1.629,1.6497,1.7052,1.7115,1.724,1.757,1.7788,1.7808,1.7645,1.7788,1.7902,1.7902,1.8163,1.838,1.8498,1.8779,1.9269,1.9988,2.0005,2.027,2.0794,2.0794,2.0794,2.0811,2.1494,2.1812,1.1518,1.1059,1.0485,1.0485,1.0002,0.961,0.9997,1.0083,1.017,1.048,1.0521,1.0514,1.047,1.0792,1.1041,1.1041,0.0,1.1591,1.1591,1.1685,1.1685,1.1622,1.1747,1.1981,1.2366,1.2543,1.2856,1.3321,1.2444,1.1809,1.1709,1.1709,1.1709,1.1709,1.2243,1.2451,1.2389,1.3108,1.3161,1.2512,1.3855,1.4201,1.3653,1.4844,1.5118,1.4647,1.5177,1.5205,1.4863,1.4746,1.4258,1.3584,1.3467,1.3203,1.2905,1.2905,1.2905,1.2905,1.2905,1.2905,1.2905,1.2978,1.2954,1.2905,1.2978,1.2992,1.3089,1.3478,1.3692,1.3894,1.4305,1.48,1.5198,1.5198,1.5491,1.5792,1.5792,1.5792,1.5792,1.5792,1.5792,1.5792,1.5792,1.5792,1.5935,1.6324,1.6333,1.657,1.7372,1.7427,1.7529,1.7862,1.7902,1.7902,1.7902,1.7902,1.7902,1.7902,1.8307,1.8542,1.8542,1.8969,1.9472,2.0043,2.0043,2.0289,2.0794,2.0844,2.086,2.0876,2.1539,2.1855,1.1577,1.1059,1.0485,1.0485,1.0002,0.961,0.9997,1.0083,0.0,0.0,1.0185,1.0104,0.9833,1.0272,1.0704,1.0704,1.1202,1.1591,1.1591,1.2035,1.2158,0.0,1.2536,1.2812,1.1864,1.2712,0.0,1.2696,1.2978,1.2926,1.2358,1.2336,1.2336,1.2336,1.2451,1.2274,1.1771,1.2926,1.3161,1.2512,1.3855,1.444,1.435,1.5059,1.5352,1.5264,1.5352,1.5371,1.5244,1.4513,1.4133,1.3929,1.3262,1.2964,1.2905,1.2905,1.2905,1.2905,1.2905,1.2905,1.2968,1.3344,1.3224,1.2978,1.3368,1.3478,1.3501,1.3573,1.4199,1.4846,1.4937,1.5311,1.5681,1.5681,1.5748,1.5792,1.5792,1.5792,1.5792,1.5792,1.5792,1.5792,1.5792,1.5792,1.6035,1.6693,1.6497,1.6655,1.7686,1.757,1.7529,1.7862,1.7902,1.7902,1.7902,1.7902,1.7902,1.7902,1.8481,1.8831,1.8831,1.9475,1.9993,2.0325,2.0325,2.0478,2.0794,2.1071,2.1214,2.123,2.1851,2.2139,1.1115,1.051,0.9907,0.955,0.923,0.9029,0.9259,0.0,0.0,0.0,0.9848,0.9797,0.9643,1.0009,1.0338,1.0338,1.0909,1.1342,1.1342,1.1751,1.1919,1.1622,1.2143,1.2382,1.2097,1.2612,1.313,1.3524,1.3532,1.3351,1.3039,1.3009,1.3191,1.3524,1.3545,1.3403,1.3108,1.3713,1.3863,1.3554,1.4192,1.4499,1.4529,1.5118,1.5235,1.4932,1.5032,1.5088,1.5039,1.4367,1.3977,1.3743,1.3359,1.3076,1.2905,1.2905,1.2905,1.2905,1.2905,1.3065,1.3334,1.3823,1.3644,1.3344,1.3823,1.3954,1.4025,1.4292,1.4731,1.5153,1.5401,1.5637,1.5792,1.5792,1.5792,1.5792,1.5792,1.5792,1.5792,1.5792,1.5792,1.5792,1.5792,1.5792,1.6057,1.6791,1.6735,1.6913,1.7788,1.7767,1.7727,1.7882,1.7902,1.7902,1.7902,1.7902,1.7942,1.8043,1.8597,1.8949,1.9043,1.9657,2.0131,2.0393,2.041,2.0529,2.0794,2.1135,2.1293,2.1309,2.1924,2.2206,1.0674,1.0002,0.9326,0.8683,0.8619,0.8684,0.861,0.9114,0.0,0.9588,0.9588,0.9588,0.9588,0.9826,1.0046,0.0,1.0638,1.1048,1.1188,1.1545,1.1802,0.0,1.1926,0.0,1.2665,1.2726,0.0,1.441,1.4142,1.3833,1.3722,1.3442,1.3593,1.4261,1.4291,1.4222,1.4073,1.449,1.4617,1.4499,1.4617,1.4706,1.4706,1.5177,1.5147,1.4688,1.4763,1.4813,1.4774,1.4192,1.3782,1.3496,1.3408,1.3174,1.2905,1.2905,1.2905,1.2905,1.2905,1.3138,1.3549,1.4118,1.4048,1.3847,1.4328,1.4467,1.4559,1.4983,1.5176,1.5334,1.5703,1.5792,1.5792,1.5792,1.5792,1.5792,1.5792,1.5792,1.5792,1.5792,1.5792,1.5792,1.5792,1.5792,1.6057,1.6791,1.6769,1.696,1.7788,1.7767,1.7727,1.7882,1.7902,1.7902,1.7902,1.7902,1.7963,1.8123,1.866,1.9062,1.921,1.9836,2.0254,2.0478,2.0495,2.0629,2.0909,2.1246,2.1449,2.1509,2.2053,2.2347,1.0516,1.0002,0.9326,0.8683,0.8973,0.9253,0.8729,0.0,0.9584,0.9588,0.9588,0.9588,0.9588,0.9636,0.9855,1.0448,1.0623,1.0865,1.1459,1.2043,1.242,1.242,0.0,0.0,1.3411,1.342,1.3713,1.444,1.4942,1.5001,1.444,1.3243,1.2917,1.3563,1.3593,1.3282,1.2687,1.4442,1.503,1.4499,1.5059,1.5323,1.5323,1.5381,1.5381,1.5303,1.4933,1.4813,1.4754,1.3906,1.3545,1.3467,1.3111,1.2935,1.2905,1.2905,1.2905,1.2905,1.2905,1.2929,1.3113,1.4001,1.4281,1.4328,1.4869,1.504,1.504,1.5085,1.5401,1.5748,1.5792,1.5792,1.5792,1.5792,1.5792,1.5792,1.5792,1.5792,1.5792,1.5792,1.5792,1.5792,1.5792,1.5792,1.6057,1.6791,1.634,1.6392,1.774,1.7357,1.7233,1.7842,1.7902,1.7902,1.7902,1.7902,1.7902,1.7922,1.876,1.9273,1.9292,2.0208,2.0745,2.0761,2.0761,2.0925,2.1246,2.1602,2.1882,2.2122,2.249,2.2786,0.939,0.9102,0.8748,0.8069,0.8716,0.9348,0.8729,0.0,1.0094,0.9693,0.9475,0.9402,0.9585,0.9307,0.9263,0.9899,1.0002,1.0163,1.0616,1.1249,1.1647,1.1647,1.2073,0.0,0.0,0.0,1.2781,1.3812,1.449,1.4913,1.503,1.4183,1.3825,1.4073,1.4112,1.4163,1.4234,1.5021,1.5264,1.503,1.5294,1.541,1.541,1.541,1.541,1.5391,1.4971,1.4639,1.4319,1.3724,1.3359,1.3115,1.2964,1.2905,1.2905,1.2905,1.2905,1.2905,1.2905,1.3089,1.3392,1.3752,1.4292,1.4869,1.5379,1.5513,1.5513,1.5513,1.5659,1.5792,1.5792,1.5792,1.5792,1.5792,1.5792,1.5792,1.5792,1.5792,1.5792,1.5792,1.5792,1.5792,1.5792,1.5792,1.6057,1.6791,1.6663,1.6799,1.7781,1.7679,1.7604,1.7862,1.8003,1.8083,1.8083,1.8183,1.8372,1.8655,1.9225,1.9663,1.9949,2.0496,2.0794,2.0794,2.0794,2.0958,2.1293,2.1648,2.194,2.2206,2.2717,2.3008,0.8619,0.849,0.8328,0.7652,0.8651,0.9574,0.0,0.0,1.0404,0.9746,0.938,0.9266,0.9446,0.9051,0.889,0.9511,0.9588,0.9797,1.0316,1.0785,1.1167,1.1338,0.0,1.1912,1.1997,1.2112,1.2536,1.342,1.4112,1.4677,1.5118,1.4736,1.4499,1.4499,1.4499,1.4706,1.5118,1.5323,1.541,1.541,1.541,1.541,1.541,1.541,1.541,1.5381,1.4834,1.4424,1.4065,1.3545,1.3154,1.2905,1.2905,1.2905,1.2905,1.2905,1.2905,1.2929,1.3065,1.332,1.3644,1.3941,1.4524,1.5198,1.5659,1.5792,1.5792,1.5792,1.5792,1.5792,1.5792,1.5792,1.5792,1.5792,1.5792,1.5792,1.5792,1.5792,1.5792,1.5792,1.5792,1.5836,1.5935,1.5957,1.6197,1.6926,1.696,1.7149,1.7821,1.7808,1.7808,1.7963,1.8163,1.8262,1.8222,1.838,1.8664,1.9095,1.9479,1.9889,2.0291,2.0628,2.0794,2.0794,2.0794,2.1023,2.1449,2.1676,2.1984,2.2361,2.2871,2.3175,0.849,0.849,0.8328,0.7652,0.9005,1.0169,0.0,0.963,1.0404,0.9746,0.938,0.92,0.9207,0.8936,0.889,0.9511,0.9588,0.9958,1.096,1.11,1.1309,0.0,1.2283,1.2619,1.2951,1.3288,1.348,1.3511,1.4112,1.4499,1.4499,1.4499,1.4499,1.4499,1.4499,1.4499,1.4499,1.5089,1.541,1.541,1.541,1.541,1.541,1.541,1.541,1.5361,1.4484,1.4114,1.4046,1.3232,1.2905,1.2905,1.2905,1.2905,1.2905,1.2905,1.2905,1.2978,1.343,1.3597,1.3752,1.4754,1.5085,1.5198,1.5659,1.5792,1.5792,1.5792,1.5792,1.5792,1.5792,1.5792,1.5792,1.5792,1.5792,1.5792,1.5792,1.5792,1.5792,1.5792,1.5792,1.5913,1.6238,1.629,1.6548,1.7289,1.7115,1.7149,1.7821,1.7611,1.7611,1.8129,1.838,1.842,1.8222,1.838,1.8606,1.8893,1.9406,1.9833,2.0083,2.0545,2.0794,2.0794,2.0794,2.1119,2.1781,2.1812,2.2118,2.2699,2.2965,2.3348,0.7636,0.7596,0.753,0.7109,0.8157,0.9116,0.8483,0.9331,1.0075,0.9446,0.909,0.887,0.887,0.8392,0.837,0.9413,0.9446,0.965,1.0609,0.0,0.0,1.1368,1.1684,1.1943,0.0,1.2517,1.3009,1.3472,1.3692,1.4192,1.5059,1.4706,1.4499,1.4499,1.4499,1.4706,1.5118,1.5294,1.5264,1.498,1.5273,1.5264,1.5,1.5283,1.541,1.5381,1.4824,1.4414,1.4065,1.3535,1.3135,1.2905,1.2905,1.2905,1.2905,1.2905,1.2905,1.2978,1.343,1.3597,1.3716,1.4362,1.48,1.5131,1.5289,1.5547,1.5792,1.5792,1.5792,1.5792,1.5792,1.5792,1.5792,1.5792,1.5792,1.5792,1.5792,1.5792,1.5792,1.5792,1.5792,1.5913,1.6238,1.629,1.6548,1.7289,1.7434,1.7611,1.8063,1.8129,1.8228,1.84,1.86,1.8683,1.8625,1.8955,1.931,1.9621,1.9977,2.0308,2.0578,2.0728,2.0794,2.0794,2.1023,2.1371,2.1812,2.1984,2.2375,2.2982,2.32,2.3484,0.7078,0.7133,0.7142,0.6873,0.7755,0.8614,0.8283,0.9077,0.9775,0.9302,0.884,0.8509,0.8509,0.8173,0.8194,0.9116,0.9211,0.953,1.0484,1.0792,0.0,1.1261,1.157,0.0,1.1934,1.252,1.3161,1.3833,1.3872,1.4222,1.503,1.4771,1.4502,1.424,1.4473,1.4725,1.4903,1.4903,1.4767,1.4541,1.4777,1.4883,1.4795,1.5059,1.5264,1.5381,1.4795,1.4385,0.0,1.3506,1.314,1.2905,1.2905,1.2905,1.2905,1.2905,1.3017,1.3224,1.3705,1.4012,1.4246,1.472,1.5096,1.5356,1.5356,1.557,1.5792,1.5792,1.5792,1.5792,1.5792,1.5792,1.5792,1.5792,1.5792,1.5792,1.5792,1.5891,1.5957,1.5814,1.5891,1.6098,1.6454,1.6531,1.6786,1.7488,1.7754,1.7955,1.8169,1.838,1.8537,1.86,1.8741,1.8822,1.8898,1.9258,1.9639,1.9988,2.0254,2.0512,2.0794,2.0794,2.0794,2.0794,2.1135,2.1464,2.1812,2.2198,2.2669,2.3212,2.3341,2.3599,0.0,0.6936,0.7095,0.6831,0.7701,0.8554,0.8223,0.8891,0.0,0.9192,0.8626,0.8202,0.8202,0.818,0.8297,0.8692,0.9016,0.9537,1.0485,1.0667,0.0,0.0,1.1866,1.217,1.248,1.3161,1.3842,1.444,1.4499,1.4519,1.4521,1.4649,1.4439,1.381,1.4381,1.4512,1.4114,1.4104,1.4094,1.4065,1.4094,1.4299,1.4697,1.4784,1.498,1.5245,1.4445,1.4085,1.3997,1.3213,1.2905,1.2905,1.2905,1.2905,1.2905,1.2905,1.321,1.3658,1.4142,1.4651,1.5176,1.5659,1.5792,1.5792,1.5792,1.5792,1.5792,1.5792,1.5792,1.5792,1.5792,1.5792,1.5792,1.5792,1.5792,1.5814,1.5836,1.6076,1.6216,1.5935,1.6141,1.6475,1.6876,1.6939,1.717,1.7821,1.8083,1.8242,1.8228,1.842,1.862,1.8803,1.8822,1.8898,1.9082,1.9365,1.9672,1.9988,2.0272,2.0545,2.0794,2.0794,2.0811,2.0844,2.1183,2.1525,2.1871,2.2426,2.2917,2.3346,2.338,2.3671,0.596,0.0,0.66,0.6398,0.7219,0.7985,0.0,0.8472,0.9141,0.8546,0.8304,0.8202,0.8202,0.7997,0.8173,0.9226,0.927,0.9618,1.0821,1.1202,0.0,1.1577,1.2058,1.2425,1.2504,1.3584,1.4321,1.4499,1.4499,1.4576,1.4725,1.4289,1.3885,1.3583,1.373,1.3906,1.4104,1.4104,1.3948,1.3636,1.3948,1.3997,1.3828,1.4492,1.4658,1.4397,1.4192,1.3929,1.3588,1.3096,1.2905,1.2905,1.2905,1.2905,1.2905,1.2905,1.321,1.3658,1.4142,1.4651,1.5176,1.5659,1.5792,1.5792,1.5792,1.5792,1.5792,1.5792,1.5792,1.5792,1.5792,1.5792,1.5792,1.5792,1.5792,1.5869,1.6129,1.6238,1.6367,1.6599,1.6705,1.6863,1.722,1.7282,1.7468,1.8043,1.8301,1.8498,1.8644,1.8836,1.8969,1.9026,1.9026,1.9045,1.9101,1.9581,1.9919,2.0005,2.0443,2.0745,2.0794,2.0794,2.0925,2.1183,2.1703,2.2139,2.2494,2.2632,2.2747,2.2871,2.3236,2.3459,0.6328,0.6295,0.6369,0.645,0.707,0.7701,0.7784,0.8282,0.8626,0.8275,0.8085,0.7975,0.7975,0.8077,0.8385,0.908,0.9416,0.997,1.0968,1.1386,1.1591,1.1591,1.2405,1.2948,1.2948,1.4154,1.4913,1.4913,1.4913,1.4762,1.4374,1.4081,1.3658,1.3053,1.3159,1.333,1.3555,1.3555,1.3447,1.3223,1.3447,1.3545,1.3525,1.3994,1.418,1.4094,1.3899,1.3695,1.3477,1.3081,1.2905,1.2905,1.2905,1.2905,1.2905,1.2905,1.3344,1.3954,1.4212,1.4789,1.5446,1.5726,1.5792,1.5792,1.5792,1.5792,1.5792,1.5792,1.5792,1.5792,1.5792,1.5792,1.5792,1.5792,1.5792,1.5891,1.6238,1.6454,1.6637,1.6854,1.7023,1.7199,1.7372,1.7475,1.7679,1.8129,1.8445,1.8683,1.8784,1.8988,1.9157,1.9273,1.9176,1.9157,1.9273,1.9708,2.0005,2.0005,2.0494,2.0794,2.0794,2.0958,2.1246,2.1688,2.2022,2.2361,2.2699,2.2699,2.2764,2.2893,2.314,2.3306,0.7086,0.6743,0.6476,0.675,0.7193,0.7653,0.8044,0.818,0.8187,0.8136,0.7946,0.78,0.7916,0.8385,0.8833,0.8955,0.9694,1.0441,1.1026,1.1386,1.1591,1.1591,1.272,1.3511,1.3511,1.4638,1.541,1.541,1.5352,1.4888,1.3904,1.3943,1.3576,1.259,1.2784,1.2905,1.2905,1.2905,1.2905,1.2905,1.2905,1.3066,1.3418,1.3477,1.3636,1.3899,1.3633,1.3477,1.3379,1.3027,1.2905,1.2905,1.2905,1.2905,1.2905,1.2968,1.3573,1.4328,1.449,1.5096,1.5792,1.5792,1.5792,1.5792,1.5792,1.5792,1.5792,1.5792,1.5836,1.5859,1.5814,1.5836,1.5869,1.5869,1.5869,1.5979,1.6377,1.6744,1.6981,1.7044,1.7282,1.7488,1.7488,1.7639,1.7882,1.8189,1.8567,1.8803,1.8841,1.8988,1.9199,1.9475,1.9291,1.9273,1.9548,1.9869,2.0061,2.0061,2.0527,2.0827,2.0876,2.1198,2.163,2.2192,2.2248,2.2419,2.2699,2.2699,2.2816,2.3045,2.3082,2.3194,0.7181,0.7314,0.731,0.7047,0.7579,0.8024,0.7557,0.7843,0.8121,0.7843,0.7968,0.8297,0.8877,0.906,0.939,1.017,1.0682,1.099,1.1092,1.1386,1.1591,1.1591,1.272,1.3511,1.3511,1.4638,1.541,1.541,1.5078,1.466,1.4086,1.375,1.3357,1.2841,1.2895,1.2905,1.2905,1.2905,1.2905,1.2905,1.2905,1.2935,1.2988,1.335,1.335,1.3096,1.3379,1.3311,1.2993,1.2935,1.2905,1.2905,1.2905,1.2905,1.2954,1.3344,1.3847,1.4421,1.5277,1.5681,1.5792,1.5792,1.5792,1.5792,1.5792,1.5792,1.5792,1.5792,1.5988,1.6151,1.5869,1.601,1.6216,1.6216,1.6216,1.6411,1.7102,1.7269,1.7406,1.7686,1.7801,1.7808,1.7808,1.7989,1.8189,1.842,1.8644,1.886,1.9026,1.9082,1.9199,1.9475,1.9457,1.9566,1.9902,2.0185,2.0342,2.0342,2.0628,2.0925,2.1214,2.1556,2.1868,2.2192,2.249,2.2642,2.2699,2.2699,2.2725,2.2764,2.2977,2.3114,0.7508,0.7839,0.8156,0.7966,0.8389,0.8842,0.8818,0.8883,0.8875,0.8568,0.8626,0.884,0.9141,0.9471,1.0014,1.099,1.1122,1.1166,1.1342,1.179,1.2097,1.2097,1.323,1.4052,1.4052,1.4844,1.5312,1.5088,1.4893,1.4492,1.3802,1.3613,1.3311,1.2915,1.2905,1.2905,1.2905,1.2905,1.2905,1.2905,1.2905,1.2905,1.2915,1.3076,1.3066,1.2915,1.3111,1.3057,1.2905,1.2905,1.2905,1.2905,1.2905,1.2905,1.3002,1.3705,1.4118,1.4433,1.5446,1.5792,1.5792,1.5792,1.5792,1.5792,1.5792,1.5792,1.5836,1.601,1.6173,1.6216,1.5891,1.6219,1.6573,1.6346,1.6475,1.6765,1.7289,1.7393,1.7509,1.7828,1.7902,1.7922,1.8043,1.8242,1.8439,1.8625,1.8836,1.9007,1.9082,1.9101,1.9269,1.9726,1.9603,1.9693,2.0185,2.0325,2.0461,2.0596,2.0728,2.0958,2.1294,2.1616,2.1943,2.2192,2.2531,2.2699,2.2699,2.2699,2.2699,2.2699,2.2829,2.297,0.8085,0.8421,0.884,0.889,0.9033,0.9299,0.9843,0.968,0.9372,0.9292,0.9368,0.9442,0.9515,1.0016,1.074,1.1644,1.147,1.1396,1.1981,1.2305,1.2573,1.2726,1.3765,1.4499,1.4499,1.4974,1.5127,1.4805,1.46,1.4199,1.3545,1.3418,1.3213,1.2915,1.2905,1.2905,1.2905,1.2905,1.2905,1.2905,1.2905,1.2905,1.2905,1.2905,1.2905,1.2905,1.2905,1.2905,1.2905,1.2905,1.2905,1.2905,1.2905,1.2978,1.3162,1.3871,1.4281,1.4605,1.5379,1.5703,1.5792,1.5792,1.5792,1.5792,1.5792,1.5792,1.5869,1.6216,1.6355,1.638,1.611,1.6522,1.6947,1.6625,1.6786,1.7107,1.7447,1.7509,1.7591,1.7862,1.7902,1.7963,1.8163,1.838,1.8562,1.8765,1.8969,1.9101,1.9101,1.9101,1.9325,1.9952,1.9762,1.9871,2.0444,2.0495,2.0579,2.0794,2.0794,2.0958,2.1294,2.1556,2.1838,2.2192,2.2446,2.2615,2.2699,2.2699,2.2699,2.2699,2.2699,2.2829,0.8936,0.9134,0.9229,0.9475,0.9143,0.8892,0.9493,0.9182,0.8912,0.9468,0.9819,1.0126,1.0426,1.1048,1.1689,1.232,1.1958,1.1996,1.3199,1.2856,1.2726,1.3351,1.4052,1.4499,1.4499,1.4716,1.4814,1.4813,1.4043,1.3574,1.3516,1.3135,1.2935,1.2905,1.2905,1.2905,1.2905,1.2905,1.2905,1.2905,1.2905,1.2905,1.2905,1.2905,1.2905,1.2905,1.2905,1.2905,1.2905,1.2905,1.2905,1.2905,1.2905,1.3162,1.3573,1.3634,1.4246,1.5062,1.5131,1.5424,1.5792,1.5792,1.5792,1.5792,1.5792,1.5792,1.5869,1.6216,1.6573,1.6854,1.6833,1.7094,1.7352,1.7331,1.7331,1.7468,1.7788,1.7862,1.7882,1.7902,1.7902,1.7963,1.8163,1.838,1.8562,1.8765,1.8969,1.9101,1.9101,1.9101,1.9325,1.9952,1.9988,2.0183,2.0728,2.0778,2.0778,2.0794,2.0794,2.0958,2.1294,2.1324,2.16,2.2192,2.222,2.2392,2.2699,2.2699,2.2699,2.2699,2.2699,2.2751,0.8202,0.8714,0.9229,0.9314,0.9299,0.9431,1.0075,1.0227,1.0263,1.0506,1.0616,1.0777,1.0894,1.1291,1.1802,1.2389,1.2305,1.2458,1.3359,1.3653,1.3825,1.4073,1.4677,1.5059,1.5059,1.4887,1.4678,1.4404,1.3838,1.3389,1.3135,1.2993,1.2905,1.2905,1.2905,1.2905,1.2905,1.2905,1.2905,1.2905,1.2905,1.2905,1.2905,1.2905,1.2905,1.2905,1.2905,1.2905,1.2905,1.2905,1.2905,1.2905,1.2905,1.3017,1.321,1.3478,1.4035,1.4651,1.4983,1.5401,1.5792,1.5792,1.5792,1.5792,1.5792,1.5792,1.5869,1.6216,1.6411,1.6573,1.6833,1.7295,1.7666,1.7447,1.755,1.7747,1.7882,1.7902,1.7902,1.7902,1.7902,1.8003,1.8341,1.8459,1.86,1.895,1.9045,1.9101,1.9101,1.9101,1.9325,1.9952,2.0304,2.0578,2.0778,2.0794,2.0794,2.0794,2.0794,2.086,2.099,2.1183,2.1509,2.194,2.2124,2.2361,2.2699,2.2699,2.2699,2.2699,2.2699,2.2803,0.8289,0.8802,0.9361,0.9464,0.9541,0.9782,1.0441,1.0711,1.0887,1.1195,1.1261,1.1261,1.1261,1.1445,1.1802,1.2389,1.2512,1.2726,1.342,1.4082,1.4499,1.4499,1.503,1.541,1.541,1.4902,1.4453,1.4133,1.3623,1.3184,1.2925,1.2905,1.2905,1.2905,1.2905,1.2905,1.2905,1.2905,1.2905,1.2905,1.2905,1.2905,1.2905,1.2905,1.2905,1.2905,1.2905,1.2905,1.2905,1.2905,1.2905,1.2905,1.2905,1.2905,1.2954,1.343,1.3894,1.4374,1.4915,1.5401,1.5792,1.5792,1.5792,1.5792,1.5792,1.5792,1.5869,1.6216,1.6389,1.6573,1.6947,1.7399,1.7706,1.7591,1.7727,1.7902,1.7902,1.7902,1.7902,1.7902,1.7902,1.8023,1.8439,1.8498,1.8639,1.9045,1.9101,1.9101,1.9101,1.9101,1.9325,1.9952,2.0477,2.0794,2.0794,2.0794,2.0794,2.0794,2.0794,2.0794,2.0794,2.1023,2.1309,2.1648,2.1807,2.2124,2.2531,2.2531,2.2602,2.2699,2.2699,2.2816,0.9573,0.9607,0.9694,1.0009,0.9863,0.9797,1.0448,1.0346,1.0382,1.1393,1.1591,1.1591,1.1591,1.1591,1.1802,1.2389,1.2512,1.2726,1.3411,1.4082,1.4499,1.4499,1.503,1.541,1.541,1.4611,1.4104,1.4104,1.335,1.2905,1.2905,1.2905,1.2905,1.2905,1.2905,1.2905,1.2905,1.2905,1.2905,1.2905,1.2905,1.2905,1.2905,1.2905,1.2905,1.2905,1.2905,1.2905,1.2905,1.2905,1.2905,1.2905,1.2905,1.2905,1.2968,1.343,1.3907,1.4374,1.4926,1.5401,1.5792,1.5792,1.5792,1.5792,1.5792,1.5792,1.5869,1.6216,1.6595,1.6981,1.7323,1.7393,1.7475,1.7808,1.7902,1.7902,1.7902,1.7902,1.7902,1.7902,1.7902,1.8023,1.8439,1.8498,1.8639,1.9045,1.9101,1.9101,1.9101,1.9101,1.9343,1.9952,2.0477,2.0794,2.0794,2.0794,2.0794,2.0794,2.0794,2.0794,2.0794,2.0794,2.0958,2.1293,2.1293,2.16,2.2206,2.2206,2.2378,2.2699,2.2699,2.2738,0.8399,0.9102,0.9877,0.9559,1.0249,1.1004,1.0968,1.0887,1.096,1.1489,1.1591,1.1591,1.1591,1.1591,1.1802,1.2389,1.2917,1.3442,1.4112,1.4736,1.5118,1.5118,1.5294,1.541,1.541,1.4611,1.4104,1.4104,1.335,1.2905,1.2905,1.2905,1.2905,1.2905,1.2905,1.2905,1.2905,1.2905,1.2905,1.2905,1.2905,1.2905,1.2905,1.2905,1.2905,1.2905,1.2905,1.2905,1.2905,1.2905,1.2905,1.2929,1.3272,1.3382,1.3454,1.3907,1.4421,1.4892,1.5028,1.5401,1.5792,1.5792,1.5792,1.5792,1.5792,1.5957,1.6173,1.6269,1.6595,1.6981,1.7323,1.7393,1.7475,1.7808,1.7902,1.7902,1.7902,1.7902,1.7902,1.7902,1.8003,1.8183,1.8459,1.862,1.8798,1.9064,1.9101,1.9101,1.9101,1.9472,1.9795,1.9988,2.0477,2.0794,2.0794,2.0794,2.0794,2.0794,2.0794,2.0794,2.0794,2.0794,2.0958,2.1293,2.1541,2.1838,2.2206,2.2433,2.2602,2.2699,2.2699,2.2712,0.9406,1.0106,1.0806,1.0565,1.0968,1.1379,1.1313,1.1298,1.1357,1.1555,1.1591,1.1591,1.1591,1.1591,1.1709,1.2066,1.2926,1.3532,1.3704,1.4688,1.5323,1.5059,1.5264,1.541,1.541,1.4611,1.4104,1.4104,1.335,1.2905,1.2905,1.2905,1.2905,1.2905,1.2954,1.2978,1.2978,1.3017,1.3031,1.3031,1.2992,1.2978,1.2978,1.2929,1.2905,1.2905,1.2905,1.2905,1.2905,1.2905,1.3017,1.32,1.3478,1.3705,1.3941,1.4421,1.4823,1.5131,1.5311,1.5558,1.5792,1.5792,1.5792,1.5792,1.5792,1.5935,1.6129,1.6247,1.6595,1.6981,1.7323,1.7509,1.7666,1.7862,1.7902,1.7902,1.7902,1.7902,1.7902,1.7902,1.8063,1.8262,1.8478,1.8664,1.886,1.9064,1.9101,1.9101,1.9101,1.9632,2.0005,2.0005,2.0477,2.0794,2.0794,2.0794,2.0794,2.0794,2.0794,2.0794,2.0794,2.0794,2.0893,2.1103,2.1293,2.1615,2.2039,2.2243,2.2467,2.2699,2.2699,2.2699,1.1485,1.1828,1.2018,1.2251,1.1728,1.1224,1.1525,1.1591,1.1591,1.1591,1.1591,1.1591,1.1591,1.1654,1.1677,1.1677,1.275,1.3381,1.2787,1.4264,1.5206,1.4647,1.5059,1.541,1.541,1.4611,1.4104,1.4104,1.335,1.2905,1.2905,1.2905,1.2905,1.2905,1.3027,1.3109,1.3109,1.3166,1.3194,1.3194,1.3128,1.3099,1.3099,1.2954,1.2905,1.2905,1.2905,1.2905,1.2905,1.2905,1.3162,1.3549,1.3634,1.3907,1.4374,1.4937,1.5153,1.5221,1.5659,1.5792,1.5792,1.5792,1.5814,1.5859,1.5859,1.5903,1.6001,1.6312,1.668,1.7065,1.7365,1.7686,1.7902,1.7902,1.7902,1.7902,1.7902,1.7902,1.7902,1.7922,1.8083,1.8301,1.8498,1.8683,1.8879,1.9064,1.9101,1.9101,1.9139,1.965,2.0005,2.0025,2.0494,2.0794,2.0794,2.0794,2.0794,2.0794,2.0794,2.0794,2.0794,2.0794,2.0794,2.0794,2.0827,2.1151,2.1751,2.1811,2.2115,2.2659,2.2685,2.2699,0.9548,1.0514,1.1591,1.1114,1.1261,1.1503,1.1577,1.1591,1.1591,1.1591,1.1591,1.1591,1.1591,1.1973,1.2305,1.2305,1.3433,1.4231,1.4103,1.4844,1.5352,1.5206,1.5323,1.541,1.541,1.4611,1.4104,1.4104,1.335,1.2905,1.2905,1.2905,1.2905,1.2905,1.3027,1.3109,1.3109,1.3166,1.3194,1.3194,1.3204,1.318,1.318,1.2992,1.2905,1.2905,1.2905,1.2905,1.2905,1.2905,1.2954,1.3113,1.386,1.4212,1.4421,1.5334,1.5659,1.5659,1.577,1.5792,1.5792,1.5792,1.5979,1.6194,1.6194,1.6603,1.706,1.7131,1.7427,1.7699,1.7767,1.7862,1.7902,1.7902,1.7902,1.7902,1.7902,1.7902,1.7942,1.8103,1.8301,1.8503,1.8702,1.8912,1.9045,1.9082,1.9101,1.9195,1.9384,1.9762,2.0078,2.0291,2.0611,2.0794,2.0794,2.0794,2.0794,2.0794,2.0794,2.0794,2.0794,2.0794,2.0794,2.0794,2.1055,2.1262,2.1402,2.188,2.2181,2.2306,2.2588,2.2699,1.0058,1.0909,1.1706,1.1363,1.1452,1.1591,1.1591,1.1591,1.1591,1.1591,1.1591,1.1685,1.1981,1.2305,1.2604,1.2917,1.3825,1.4499,1.4499,1.503,1.541,1.541,1.541,1.541,1.541,1.4611,1.4104,1.4104,1.335,1.2905,1.2905,1.2954,1.3002,1.3002,1.3162,1.3248,1.3248,1.3334,1.3386,1.3386,1.3338,1.3266,1.3194,1.3065,1.2954,1.2905,1.2905,1.2905,1.2905,1.2905,1.3017,1.332,1.4025,1.4467,1.4777,1.5513,1.5792,1.5792,1.5792,1.5792,1.5792,1.5792,1.6032,1.629,1.629,1.6689,1.7199,1.7352,1.7529,1.7706,1.7862,1.7902,1.7902,1.7902,1.7902,1.7902,1.7902,1.7983,1.8063,1.8183,1.8445,1.8683,1.8784,1.8969,1.9101,1.9101,1.9101,1.9213,1.9475,1.978,2.0096,2.0376,2.0629,2.0794,2.0794,2.0794,2.0794,2.0794,2.0794,2.0794,2.0794,2.0958,2.0958,2.0794,2.1135,2.1293,2.1293,2.1779,2.2068,2.2206,2.2531,2.2699,1.0748,1.1333,1.1711,1.1879,1.1758,1.1591,1.1591,1.1591,1.1622,1.174,1.1771,1.1919,1.242,1.2687,1.3031,1.3593,1.4231,1.4647,1.4647,1.5089,1.541,1.541,1.541,1.541,1.541,1.4611,1.4104,1.4104,1.335,1.2905,1.2905,1.3036,1.3109,1.3109,1.3286,1.3396,1.3396,1.3539,1.3597,1.3597,1.3491,1.3362,1.3242,1.3152,1.3051,1.2929,1.3002,1.2978,1.2905,1.3002,1.3248,1.3644,1.4118,1.464,1.5153,1.5637,1.5792,1.5792,1.5792,1.5792,1.5792,1.5792,1.6076,1.6411,1.6411,1.6723,1.7128,1.7406,1.7488,1.755,1.7842,1.7902,1.7902,1.7902,1.7902,1.7922,1.8003,1.8069,1.8183,1.8327,1.8606,1.8803,1.8841,1.8969,1.9082,1.9157,1.9176,1.9291,1.9606,1.9904,2.0183,2.0444,2.0678,2.0794,2.0794,2.0794,2.0794,2.0794,2.0794,2.0794,2.0794,2.1183,2.123,2.0893,2.1183,2.1356,2.1402,2.1706,2.1984,2.2248,2.2571,2.2725,0.8758,0.949,1.0558,1.1445,1.1628,1.1591,1.1591,1.1591,1.174,1.2274,1.2389,1.2389,1.2481,1.3455,1.4252,1.435,1.4883,1.5264,1.5264,1.5352,1.541,1.541,1.541,1.541,1.541,1.4611,1.4104,1.4104,1.335,1.2905,1.2905,1.3036,1.3109,1.3109,1.3286,1.3396,1.3396,1.3539,1.3597,1.3597,1.3586,1.3491,1.3372,1.3242,1.3142,1.3085,1.3368,1.3272,1.2929,1.3344,1.3549,1.3644,1.4118,1.464,1.5153,1.5637,1.5792,1.5792,1.5792,1.5792,1.5792,1.5792,1.6275,1.6833,1.6833,1.7274,1.7781,1.7821,1.7828,1.7842,1.7882,1.7902,1.7902,1.7902,1.7902,1.8003,1.8338,1.8155,1.8149,1.8836,1.8879,1.886,1.9026,1.8936,1.8974,1.9384,1.9457,1.9642,2.0206,2.0325,2.0444,2.0728,2.0778,2.0794,2.0794,2.0794,2.0794,2.0794,2.0794,2.0794,2.0794,2.1402,2.1587,2.123,2.1402,2.1584,2.1825,2.1984,2.2164,2.2381,2.2664,2.2829,0.9102,0.9804,1.0594,1.1393,1.1591,1.1591,1.1591,1.1591,1.1771,1.2389,1.2787,1.3191,1.3554,1.4103,1.4617,1.4942,1.5235,1.541,1.541,1.541,1.541,1.541,1.541,1.541,1.541,1.4853,1.4367,1.4124,1.3549,1.3135,1.2915,1.3055,1.3176,1.3176,1.3406,1.3658,1.3965,1.4012,1.4046,1.4046,1.4046,1.3847,1.3515,1.3362,1.3382,1.3498,1.3573,1.3634,1.3705,1.3918,1.3978,1.4048,1.4536,1.4892,1.5153,1.5637,1.5792,1.5792,1.5792,1.5792,1.5836,1.601,1.6457,1.6939,1.7115,1.7522,1.7902,1.7902,1.7902,1.7902,1.7902,1.7902,1.7902,1.7902,1.7902,1.8009,1.8417,1.8274,1.8248,1.8822,1.886,1.886,1.9064,1.9026,1.9087,1.9457,1.9497,1.9714,2.0309,2.041,2.0495,2.0778,2.0794,2.0794,2.0794,2.0794,2.0794,2.0794,2.0794,2.0794,2.0794,2.1448,2.1753,2.1631,2.1851,2.1938,2.1913,2.215,2.2313,2.2409,2.2717,2.2881,0.9204,0.9797,1.0227,1.1122,1.1408,1.1489,1.1569,1.1591,1.1771,1.2389,1.3039,1.3692,1.438,1.4617,1.4883,1.5323,1.541,1.541,1.541,1.541,1.541,1.541,1.541,1.541,1.541,1.5029,1.46,1.4143,1.3724,1.332,1.2925,1.3094,1.3194,1.3194,1.3586,1.3999,1.4396,1.4396,1.4396,1.4396,1.4257,1.4069,1.3787,1.3515,1.3586,1.3881,1.3716,1.3752,1.3954,1.4071,1.4118,1.4165,1.4686,1.4994,1.5153,1.5637,1.5792,1.5792,1.5792,1.5792,1.5859,1.6194,1.6573,1.696,1.7303,1.7632,1.7902,1.7902,1.7902,1.7902,1.7902,1.7902,1.7902,1.7902,1.7902,1.8009,1.8417,1.8528,1.8586,1.8765,1.8808,1.8879,1.9007,1.903,1.918,1.9566,1.9693,1.9909,2.0444,2.0495,2.0579,2.0778,2.0794,2.0794,2.0794,2.0794,2.0794,2.0794,2.0794,2.0794,2.0794,2.1448,2.1825,2.1913,2.2265,2.2361,2.2169,2.2402,2.252,2.2586,2.282,2.2965,0.7946,0.8312,0.8699,1.025,1.0902,1.121,1.1525,0.0,1.1771,1.2389,1.3039,1.3692,1.438,1.4971,1.5352,1.5381,1.541,1.541,1.541,1.541,1.541,1.541,1.541,1.541,1.541,1.5029,1.46,1.4143,1.3724,1.332,1.2925,1.3094,1.3194,1.3194,1.3941,1.4373,1.4396,1.4396,1.4396,1.4396,1.3871,1.3905,1.4326,1.3705,1.3705,1.4152,1.3905,1.3488,1.3017,1.3454,1.3634,1.3681,1.4165,1.4651,1.5153,1.5637,1.5792,1.5792,1.5792,1.5792,1.5859,1.6194,1.6573,1.696,1.7303,1.7632,1.7902,1.7902,1.7902,1.7902,1.7902,1.7902,1.7902,1.7902,1.7902,1.8009,1.8417,1.8997,1.931,1.8879,1.885,1.8888,1.8808,1.8869,1.9151,1.9866,2.0185,2.0461,2.0745,2.0778,2.0778,2.0794,2.0794,2.0794,2.0794,2.0794,2.0794,2.0794,2.0794,2.0794,2.0794,2.1448,2.1825,2.1913,2.2544,2.2889,2.294,2.2825,2.2876,2.3052,2.3033,2.3163,0.7632,0.8041,0.8443,0.9456,1.0249,1.0821,1.0938,1.1291,1.1895,1.2926,1.3321,1.3833,1.4883,1.5264,1.541,1.541,1.541,1.541,1.541,1.541,1.541,1.541,1.541,1.541,1.541,1.5273,1.501,1.458,1.415,1.3695,1.3311,1.3243,1.3194,1.3194,1.3658,1.4046,1.4396,1.4697,1.4697,1.4396,1.421,1.421,1.4396,1.4163,1.4059,1.4071,1.3954,1.3918,1.3928,1.4035,1.4258,1.457,1.4754,1.5119,1.5558,1.5748,1.5792,1.5792,1.5792,1.5792,1.5903,1.65,1.6778,1.7002,1.7543,1.7788,1.7902,1.7902,1.7902,1.7902,1.7902,1.7902,1.7902,1.7902,1.8109,1.8397,1.8803,1.9273,1.9457,1.8917,1.8808,1.8884,1.9035,1.9076,1.9372,2.0135,2.0342,2.0495,2.0778,2.0794,2.0794,2.0794,2.0794,2.0794,2.0794,2.0794,2.0794,2.0794,2.0794,2.086,2.099,2.1555,2.1926,2.2096,2.2677,2.2982,2.3008,2.2977,2.3033,2.3089,2.3247,2.3389,0.7082,0.7463,0.7924,0.8818,0.9508,1.0089,1.0631,1.1034,1.1624,1.2907,1.3351,1.3833,1.4913,1.5264,1.541,1.541,1.541,1.541,1.541,1.541,1.541,1.541,1.541,1.541,1.541,1.541,1.5234,1.4814,1.4521,1.4075,1.3535,1.3447,1.3476,1.361,1.3776,1.4046,1.4396,1.4857,1.4949,1.4628,1.4628,1.472,1.4869,1.472,1.4547,1.4351,1.4271,1.4212,1.4199,1.4095,1.4374,1.4846,1.504,1.5289,1.558,1.5748,1.5792,1.5792,1.5792,1.5792,1.5925,1.6663,1.6897,1.7023,1.7699,1.7902,1.7902,1.7902,1.8003,1.8109,1.8109,1.8195,1.8293,1.8293,1.8611,1.8993,1.9236,1.953,1.9603,1.9105,1.903,1.9072,1.9169,1.9281,1.9591,2.0308,2.0478,2.0596,2.0778,2.0794,2.0794,2.0794,2.0794,2.0794,2.0794,2.0794,2.0794,2.0794,2.0794,2.0925,2.1183,2.1661,2.2041,2.2303,2.2769,2.302,2.3028,2.3082,2.3107,2.3107,2.3377,2.3565,0.0,0.0,0.0,0.8297,0.8664,0.0,1.066,0.0,1.0914,1.2246,1.2998,1.3678,1.4401,1.5001,1.541,1.541,1.541,1.541,1.541,1.541,1.541,1.541,1.541,1.541,1.541,1.541,1.5244,1.4834,1.4823,1.4414,1.3574,1.3735,1.4023,1.4372,1.4373,1.4373,1.4373,1.4834,1.5062,1.5085,1.5085,1.5322,1.5766,1.5322,1.5108,1.5085,1.4823,1.4317,1.3644,1.3634,1.3894,1.4374,1.4892,1.5108,1.5176,1.5637,1.5792,1.5792,1.5792,1.5792,1.5925,1.6663,1.6897,1.7023,1.7699,1.7902,1.7902,1.7902,1.8175,1.8495,1.85,1.8784,1.9082,1.9101,1.9417,1.9708,1.9708,1.9749,1.9734,1.946,1.946,1.9442,1.9244,1.9479,1.9871,2.0342,2.0629,2.0794,2.0794,2.0794,2.0794,2.0794,2.0794,2.0794,2.0794,2.0794,2.0794,2.0794,2.0811,2.099,2.1386,2.172,2.2096,2.2485,2.2829,2.3033,2.3095,2.3107,2.3107,2.3107,2.3389,2.371,0.5906,0.0,0.0,0.0,0.0,0.0,0.0,0.0,1.0142,1.21,1.2494,1.3037,1.483,1.5294,1.541,1.541,1.541,1.541,1.541,1.541,1.541,1.541,1.541,1.541,1.541,1.541,1.5361,0.0,1.4951,1.4541,1.3968,1.3586,1.3528,1.381,1.3823,1.3823,1.3823,1.3941,1.4199,1.4581,1.4581,1.4834,1.53,1.5512,1.5378,1.4949,1.5119,1.5073,1.4778,1.4305,1.4398,1.4892,1.504,1.5311,1.5614,1.5748,1.5792,1.5792,1.5792,1.5792,1.5925,1.6663,1.6897,1.7023,1.7699,1.7902,1.7902,1.7902,1.7983,1.8115,1.8417,1.8592,1.8745,1.9026,1.9417,1.9708,1.9708,1.9975,2.0028,1.931,1.9518,1.9669,1.9325,1.9663,2.0152,2.0628,2.0761,2.0794,2.0794,2.0794,2.0794,2.0794,2.0794,2.0794,2.0794,2.0794,2.0794,2.0794,2.0925,2.1166,2.1522,2.1907,2.2254,2.2477,2.2876,2.302,2.2876,2.3033,2.3107,2.3119,2.3513,2.3858,0.5832,0.5951,0.6148,0.0,0.0,0.0,0.8577,0.9204,1.0205,0.0,1.3019,1.357,1.5129,1.541,1.541,1.541,1.541,1.541,1.541,1.541,1.541,1.541,1.541,1.541,1.541,1.541,1.541,1.541,1.5186,1.4813,1.4277,1.3766,1.3527,1.3597,1.3597,1.3597,1.3597,1.3823,1.4186,1.4697,1.4892,1.5232,1.5702,1.5954,1.591,1.5579,1.569,1.5724,1.5635,1.513,1.5119,1.5379,1.5379,1.5558,1.5792,1.5792,1.5792,1.5792,1.5792,1.5891,1.611,1.6705,1.6981,1.7199,1.7727,1.7902,1.7902,1.7902,1.8129,1.8489,1.8898,1.9128,1.9314,1.9581,1.9815,1.9993,2.003,2.0289,2.0321,1.9639,1.9821,2.0,1.9776,2.0017,2.0359,2.0745,2.0794,2.0794,2.0794,2.0794,2.0794,2.0794,2.0794,2.0794,2.0794,2.0876,2.0893,2.0811,2.1119,2.1447,2.1763,2.2136,2.2456,2.2751,2.2982,2.3045,2.2932,2.3028,2.3168,2.3271,2.3553,2.3827,0.5964,0.5876,0.6014,0.0,0.0,0.0,0.8842,0.9571,1.0466,0.0,1.3491,1.4109,1.4791,1.4991,1.5039,1.499,1.5118,1.5303,1.54,1.541,1.541,1.541,1.541,1.541,1.541,1.541,1.541,1.541,1.5371,1.5075,1.4537,1.4164,1.3885,1.3702,1.3681,1.3681,1.3681,1.4093,1.4581,1.5108,1.5512,1.5976,1.6423,1.6479,1.6466,1.6402,1.6275,1.6222,1.6178,1.5925,1.5814,1.5792,1.5792,1.5792,1.5792,1.5792,1.5792,1.5792,1.5792,1.5988,1.6324,1.6757,1.7094,1.7406,1.7788,1.7902,1.7902,1.7963,1.8489,1.9139,1.9584,1.9975,2.027,2.0388,2.0405,2.044,2.0477,2.061,2.0594,2.0237,2.0272,2.0373,2.0359,2.041,2.0529,2.0761,2.0794,2.0794,2.0794,2.0794,2.0794,2.0794,2.0794,2.0811,2.0827,2.0974,2.099,2.0844,2.1323,2.1733,2.1998,2.2327,2.2691,2.307,2.307,2.3082,2.3107,2.3107,2.3223,2.3458,2.3515,2.3721,0.0,0.0,0.0,0.0,0.0,0.0,0.7313,0.7825,0.8646,0.0,1.0134,1.059,1.1728,1.2416,1.271,1.2396,1.3477,1.4591,1.5312,1.541,1.541,1.541,1.541,1.541,1.541,1.541,1.541,1.541,1.5098,1.4798,1.4516,1.4481,1.4394,1.4255,1.4233,1.4233,1.4233,1.3928,1.4199,1.5108,1.5187,1.5467,1.5942,1.6337,1.6293,1.5942,1.6241,1.6297,1.62,1.6022,1.5891,1.5792,1.5792,1.5792,1.5792,1.5792,1.5792,1.5792,1.5792,1.5836,1.6001,1.6684,1.6939,1.7107,1.772,1.7902,1.7983,1.8279,1.8495,1.8769,1.9512,1.98,1.998,2.0321,2.0441,2.0477,2.0494,2.061,2.0676,2.0594,2.0661,2.0595,2.0222,2.0461,2.0745,2.0794,2.0794,2.0794,2.0794,2.0794,2.0794,2.0794,2.0794,2.086,2.1038,2.0925,2.0909,2.1023,2.1385,2.1733,2.1998,2.2473,2.2786,2.2855,2.2868,2.2944,2.3107,2.3107,2.3132,2.3187,2.3576,2.3785,0.0,0.0,0.0,0.646,0.0,0.0,0.0,0.0,0.8304,0.9207,0.9795,1.0339,1.0988,1.1548,1.1895,1.1895,1.2978,1.3792,1.3802,1.4746,1.541,1.541,1.541,1.541,1.541,1.541,1.541,1.541,1.5215,1.4997,1.4765,1.4873,1.4846,1.4614,1.4703,1.4743,1.4743,1.4257,1.4501,1.5445,1.521,1.5479,1.6151,1.638,1.638,1.6163,1.6328,1.6318,1.62,1.6066,1.5913,1.5792,1.5792,1.5792,1.5792,1.5792,1.5792,1.5792,1.5792,1.5913,1.6141,1.6714,1.7002,1.724,1.7747,1.7902,1.7969,1.8397,1.8649,1.8955,1.9588,1.9925,2.0185,2.0491,2.0592,2.061,2.0645,2.0695,2.0744,2.0744,2.0777,2.0728,2.0478,2.0629,2.0794,2.0794,2.0794,2.0794,2.0794,2.0794,2.0794,2.0794,2.0794,2.0876,2.1071,2.1071,2.1151,2.1339,2.1794,2.2113,2.2248,2.2699,2.2957,2.2957,2.2957,2.3008,2.3107,2.3235,2.3223,2.3119,2.3474,2.37,0.0,0.0,0.0,0.0,0.0,0.6497,0.0,0.0,0.0,0.0,0.0,0.0,0.0,0.0,0.0,0.0,0.0,0.0,0.0,0.0,0.0,0.0,0.0,0.0,1.5068,1.5039,1.5146,1.5391,1.5157,1.5027,1.5,1.5367,1.5397,1.495,1.5231,1.5336,1.5244,1.4766,1.4915,1.5656,1.5367,1.5635,1.638,1.6457,1.65,1.65,1.6436,1.634,1.6188,1.6066,1.5935,1.5792,1.5792,1.5792,1.5792,1.5792,1.5792,1.5792,1.5792,1.5979,1.6281,1.6748,1.7157,1.755,1.7821,1.7902,1.8003,1.8475,1.8841,1.9232,1.9767,2.0168,2.0474,2.066,2.071,2.0727,2.0794,2.0794,2.0794,2.0794,2.0794,2.0794,2.0794,2.0794,2.0794,2.0794,2.0794,2.0794,2.0794,2.0794,2.0794,2.0794,2.0794,2.0893,2.1119,2.1246,2.1417,2.1643,2.22,2.2504,2.2502,2.2879,2.3107,2.3107,2.3107,2.3132,2.3193,2.34,2.3389,2.3175,2.3474,2.37,0.0,0.0,0.0,0.0,0.7402,0.0,0.0,0.0,0.7692,0.6852,0.0,0.0,0.0,0.0,0.0,0.0,0.0,0.0,0.0,0.0,0.0,0.0,0.0,0.0,0.0,1.3721,1.4189,1.5322,1.4365,1.4086,1.4951,1.6036,1.6262,1.5447,1.6068,1.6201,1.5734,1.5255,1.5085,1.5176,1.5557,1.5788,1.5898,1.6315,1.65,1.65,1.65,1.6371,1.62,1.6178,1.6025,1.5792,1.5792,1.5792,1.5792,1.5792,1.5792,1.5792,1.5792,1.5814,1.5957,1.6684,1.7337,1.7862,1.7882,1.7902,1.8049,1.8817,1.9064,1.9288,2.0131,2.0407,2.051,2.0676,2.0744,2.0794,2.0794,2.0794,2.0794,2.0794,2.0794,2.0794,2.0794,2.0794,2.0794,2.0794,2.0794,2.0794,2.0794,2.0794,2.0794,2.0794,2.0794,2.0925,2.1246,2.1356,2.1525,2.1838,2.2261,2.2502,2.2499,2.2879,2.3107,2.3107,2.3107,2.3211,2.3458,2.3492,2.3481,2.347,2.3858,2.403,0.0,0.0,0.0,0.0,0.0,0.0,0.656,0.0,0.7035,0.0,0.0,0.0,0.0,0.0,0.0,0.0,0.9025,0.0,0.0,0.0,0.0,0.0,0.0,0.0,0.0,0.0,0.0,0.0,1.4228,1.4021,1.5183,1.6228,1.6502,1.5811,1.6633,1.6784,1.6207,1.5734,1.5645,1.5901,1.5844,1.5942,1.6207,1.6402,1.65,1.65,1.65,1.6392,1.62,1.62,1.6035,1.5792,1.5792,1.5792,1.5792,1.5792,1.5792,1.5792,1.5792,1.5792,1.5925,1.6663,1.7357,1.7902,1.7902,1.8069,1.8372,1.895,1.9291,1.9642,2.0289,2.0543,2.0644,2.0744,2.0778,2.0794,2.0794,2.0794,2.0794,2.0794,2.0794,2.0794,2.0794,2.0794,2.0794,2.0794,2.0794,2.0794,2.0794,2.0794,2.0794,2.0794,2.0893,2.1119,2.1447,2.16,2.1897,2.2395,2.2686,2.2854,2.2854,2.2998,2.3107,2.3107,2.3107,2.3168,2.3271,2.3542,2.3667,2.3667,2.3979,2.4107,0.8223,0.0,0.0,0.0,0.0,0.0,0.0,0.0,0.0,0.0,0.0,0.0,0.0,0.0,0.0,0.0,0.0,0.0,0.0,0.0,0.0,0.0,0.0,0.0,0.0,0.0,0.0,0.0,0.0,1.3691,1.5322,1.6231,1.6486,1.5993,1.686,1.7064,1.6507,1.6159,1.6107,1.6315,1.6086,1.6107,1.6315,1.6445,1.65,1.65,1.6479,1.6383,1.62,1.6166,1.6013,1.5792,1.5792,1.5792,1.5792,1.5792,1.5792,1.5792,1.5792,1.5925,1.6188,1.6727,1.7357,1.7902,1.7902,1.8195,1.8597,1.9011,1.9479,1.9947,2.0427,2.0627,2.0726,2.0778,2.0794,2.0794,2.0794,2.0794,2.0794,2.0794,2.0876,2.0909,2.0811,2.0794,2.0794,2.0794,2.0794,2.0794,2.0794,2.0794,2.0827,2.0876,2.1006,2.1262,2.1643,2.1866,2.224,2.2838,2.3033,2.3107,2.3107,2.3107,2.3107,2.3107,2.3107,2.3163,2.3289,2.3635,2.3868,2.4008,2.4135,2.422,0.0,0.0,0.0,0.7704,0.0,0.0,0.0,0.0,0.7639,0.0,0.0,0.0,0.0,0.0,0.0,0.0,0.0,0.0,0.0,0.0,0.0,0.0,0.0,0.0,0.0,0.0,0.0,0.0,0.0,0.0,1.5273,1.6112,1.6336,1.5933,1.6694,1.6908,1.65,1.6488,1.6272,1.5832,1.6272,1.625,1.5832,1.6293,1.65,1.65,1.6436,1.634,1.62,1.6066,1.5913,1.5792,1.5792,1.5792,1.5792,1.5792,1.5792,1.5792,1.5792,1.6275,1.6854,1.6876,1.7357,1.7902,1.7902,1.8234,1.8674,1.9076,1.9525,2.0019,2.0544,2.0693,2.0726,2.0778,2.0794,2.0794,2.0794,2.0794,2.0794,2.0794,2.1055,2.1183,2.086,2.0794,2.0794,2.0794,2.0794,2.0794,2.0794,2.0794,2.0876,2.1071,2.1103,2.1308,2.1855,2.2068,2.2456,2.3052,2.3107,2.3107,2.3107,2.3107,2.3107,2.3107,2.3107,2.3324,2.3774,2.3795,2.4019,2.4482,2.4491,2.4491,1.0592,1.0993,1.1345,0.9142,0.0,0.0,0.0,0.0,0.0,0.0,0.0,0.0,0.0,0.0,0.0,0.0,0.0,0.0,0.0,0.0,0.0,0.0,0.0,0.0,0.0,0.0,0.0,0.0,0.0,0.0,0.0,1.6093,1.6273,1.5775,1.6332,1.6385,1.5843,1.5963,1.5954,1.581,1.6272,1.6423,1.6272,1.6423,1.6479,1.6436,1.6414,1.646,1.6591,1.6546,1.6661,1.6859,1.6859,1.6643,1.6295,1.5924,1.5792,1.5836,1.6054,1.667,1.735,1.7253,1.7529,1.7963,1.8214,1.8592,1.903,1.9464,1.9929,2.0361,2.0627,2.0727,2.0777,2.0794,2.0794,2.0794,2.0794,2.0794,2.0794,2.0794,2.1071,2.1262,2.1151,2.1135,2.1055,2.0827,2.0794,2.0794,2.0794,2.0909,2.1023,2.1103,2.1417,2.1764,2.2068,2.2541,2.2884,2.3095,2.3107,2.3107,2.3107,2.3107,2.3107,2.3107,2.3107,2.3271,2.3598,2.3732,2.3949,2.4238,2.442,2.45,1.2287,1.2759,1.3107,1.0887,1.0749,0.0,0.864,0.0,0.8824,0.0,0.0,0.0,0.0,0.0,0.0,0.0,0.0,0.0,0.0,0.0,0.0,0.0,0.0,0.0,0.0,0.0,0.0,0.0,0.0,0.0,0.0,0.0,1.5989,1.5713,1.5978,1.5983,1.5653,1.5795,1.5997,1.6273,1.6581,1.6841,1.7089,1.7067,1.7023,1.6955,1.6878,1.6916,1.7083,1.7036,1.7171,1.7387,1.7387,1.7183,1.6811,1.6283,1.6037,1.601,1.6238,1.6831,1.7519,1.7429,1.7733,1.8155,1.8456,1.894,1.946,1.9821,2.0241,2.0628,2.0711,2.0777,2.0794,2.0794,2.0794,2.0794,2.0794,2.0794,2.0794,2.0794,2.1071,2.1293,2.1293,2.1293,2.123,2.1006,2.0876,2.0794,2.0794,2.099,2.1151,2.1261,2.1645,2.2041,2.2375,2.2833,2.3107,2.3107,2.3107,2.3107,2.3107,2.3107,2.3139,2.3235,2.3235,2.3394,2.371,2.3847,2.4019,2.4248,2.442,2.45]}]]